<?xml version="1.0" encoding="UTF-8" standalone="no" ?>
<gpx xmlns="http://www.topografix.com/GPX/1/1" xmlns:xsi="http://www.w3.org/2001/XMLSchema-instance" xsi:schemaLocation="http://www.topografix.com/GPX/1/1 http://www.topografix.com/GPX/1/1/gpx.xsd" version="1.1" creator="VisuGPX - https://www.visugpx.com">
  <metadata>
    <name>20241015-sotteville sous le val</name>
    <desc><![CDATA[Boucle A-R au départ de la salle polyvalente des Authieux]]></desc>
  </metadata>
  <trk>
    <name><![CDATA[SityTrail - 20241015-sotteville sous le val]]></name>
    <desc><![CDATA[Boucle A-R au départ de la salle polyvalente des Authieux]]></desc>
    <trkseg>
      <trkpt lat="49.34104" lon="1.13229">
        <ele>83</ele>
        <time>2024-10-15T11:51:45.932+00:00</time>
      </trkpt>
      <trkpt lat="49.34104" lon="1.13229">
        <ele>83</ele>
        <time>2024-10-15T11:51:45.932+00:00</time>
      </trkpt>
      <trkpt lat="49.34103" lon="1.13246">
        <ele>83</ele>
        <time>2024-10-15T11:53:48.170+00:00</time>
      </trkpt>
      <trkpt lat="49.34105" lon="1.13255">
        <ele>83</ele>
        <time>2024-10-15T11:53:52.706+00:00</time>
      </trkpt>
      <trkpt lat="49.34105" lon="1.13264">
        <ele>83</ele>
        <time>2024-10-15T11:53:57.163+00:00</time>
      </trkpt>
      <trkpt lat="49.34107" lon="1.13271">
        <ele>83</ele>
        <time>2024-10-15T11:54:01.689+00:00</time>
      </trkpt>
      <trkpt lat="49.34108" lon="1.13279">
        <ele>83</ele>
        <time>2024-10-15T11:54:06.170+00:00</time>
      </trkpt>
      <trkpt lat="49.34109" lon="1.13287">
        <ele>83</ele>
        <time>2024-10-15T11:54:10.623+00:00</time>
      </trkpt>
      <trkpt lat="49.3411" lon="1.13296">
        <ele>83</ele>
        <time>2024-10-15T11:54:15.151+00:00</time>
      </trkpt>
      <trkpt lat="49.34107" lon="1.13304">
        <ele>83</ele>
        <time>2024-10-15T11:54:19.685+00:00</time>
      </trkpt>
      <trkpt lat="49.34104" lon="1.1331">
        <ele>83</ele>
        <time>2024-10-15T11:54:23.848+00:00</time>
      </trkpt>
      <trkpt lat="49.34098" lon="1.13311">
        <ele>83</ele>
        <time>2024-10-15T11:54:28.206+00:00</time>
      </trkpt>
      <trkpt lat="49.34094" lon="1.13316">
        <ele>84</ele>
        <time>2024-10-15T11:54:33.099+00:00</time>
      </trkpt>
      <trkpt lat="49.34093" lon="1.13322">
        <ele>84</ele>
        <time>2024-10-15T11:54:37.112+00:00</time>
      </trkpt>
      <trkpt lat="49.34093" lon="1.13329">
        <ele>84</ele>
        <time>2024-10-15T11:54:41.131+00:00</time>
      </trkpt>
      <trkpt lat="49.34094" lon="1.13336">
        <ele>84</ele>
        <time>2024-10-15T11:54:45.205+00:00</time>
      </trkpt>
      <trkpt lat="49.34096" lon="1.13344">
        <ele>84</ele>
        <time>2024-10-15T11:54:49.771+00:00</time>
      </trkpt>
      <trkpt lat="49.34097" lon="1.13351">
        <ele>83</ele>
        <time>2024-10-15T11:54:54.293+00:00</time>
      </trkpt>
      <trkpt lat="49.34098" lon="1.13358">
        <ele>82</ele>
        <time>2024-10-15T11:54:58.327+00:00</time>
      </trkpt>
      <trkpt lat="49.341" lon="1.13365">
        <ele>82</ele>
        <time>2024-10-15T11:55:02.848+00:00</time>
      </trkpt>
      <trkpt lat="49.341" lon="1.13373">
        <ele>82</ele>
        <time>2024-10-15T11:55:06.870+00:00</time>
      </trkpt>
      <trkpt lat="49.34102" lon="1.1338">
        <ele>82</ele>
        <time>2024-10-15T11:55:11.015+00:00</time>
      </trkpt>
      <trkpt lat="49.34101" lon="1.13381">
        <ele>82</ele>
        <time>2024-10-15T11:55:15.454+00:00</time>
      </trkpt>
      <trkpt lat="49.34104" lon="1.13382">
        <ele>82</ele>
        <time>2024-10-15T11:57:19.367+00:00</time>
      </trkpt>
      <trkpt lat="49.34104" lon="1.13391">
        <ele>82</ele>
        <time>2024-10-15T11:57:23.708+00:00</time>
      </trkpt>
      <trkpt lat="49.341" lon="1.13397">
        <ele>82</ele>
        <time>2024-10-15T11:57:28.170+00:00</time>
      </trkpt>
      <trkpt lat="49.34094" lon="1.13397">
        <ele>83</ele>
        <time>2024-10-15T11:57:32.454+00:00</time>
      </trkpt>
      <trkpt lat="49.34089" lon="1.13397">
        <ele>83</ele>
        <time>2024-10-15T11:57:37.099+00:00</time>
      </trkpt>
      <trkpt lat="49.34085" lon="1.13398">
        <ele>83</ele>
        <time>2024-10-15T11:57:41.100+00:00</time>
      </trkpt>
      <trkpt lat="49.34081" lon="1.13403">
        <ele>83</ele>
        <time>2024-10-15T11:57:45.454+00:00</time>
      </trkpt>
      <trkpt lat="49.34079" lon="1.13408">
        <ele>83</ele>
        <time>2024-10-15T11:57:49.467+00:00</time>
      </trkpt>
      <trkpt lat="49.34078" lon="1.13415">
        <ele>83</ele>
        <time>2024-10-15T11:57:53.947+00:00</time>
      </trkpt>
      <trkpt lat="49.34072" lon="1.13418">
        <ele>83</ele>
        <time>2024-10-15T11:58:51.445+00:00</time>
      </trkpt>
      <trkpt lat="49.34069" lon="1.13423">
        <ele>84</ele>
        <time>2024-10-15T11:58:55.465+00:00</time>
      </trkpt>
      <trkpt lat="49.34063" lon="1.13429">
        <ele>84</ele>
        <time>2024-10-15T11:59:00.311+00:00</time>
      </trkpt>
      <trkpt lat="49.34059" lon="1.13435">
        <ele>84</ele>
        <time>2024-10-15T11:59:04.470+00:00</time>
      </trkpt>
      <trkpt lat="49.34054" lon="1.13438">
        <ele>84</ele>
        <time>2024-10-15T11:59:08.531+00:00</time>
      </trkpt>
      <trkpt lat="49.34049" lon="1.13442">
        <ele>84</ele>
        <time>2024-10-15T11:59:13.117+00:00</time>
      </trkpt>
      <trkpt lat="49.34044" lon="1.13444">
        <ele>84</ele>
        <time>2024-10-15T11:59:17.226+00:00</time>
      </trkpt>
      <trkpt lat="49.3404" lon="1.13448">
        <ele>84</ele>
        <time>2024-10-15T11:59:21.323+00:00</time>
      </trkpt>
      <trkpt lat="49.34034" lon="1.13451">
        <ele>84</ele>
        <time>2024-10-15T11:59:25.438+00:00</time>
      </trkpt>
      <trkpt lat="49.34028" lon="1.13452">
        <ele>84</ele>
        <time>2024-10-15T11:59:29.506+00:00</time>
      </trkpt>
      <trkpt lat="49.34022" lon="1.13452">
        <ele>84</ele>
        <time>2024-10-15T11:59:33.675+00:00</time>
      </trkpt>
      <trkpt lat="49.34017" lon="1.13452">
        <ele>84</ele>
        <time>2024-10-15T11:59:37.786+00:00</time>
      </trkpt>
      <trkpt lat="49.34011" lon="1.13454">
        <ele>85</ele>
        <time>2024-10-15T11:59:41.870+00:00</time>
      </trkpt>
      <trkpt lat="49.34005" lon="1.13455">
        <ele>85</ele>
        <time>2024-10-15T11:59:46.428+00:00</time>
      </trkpt>
      <trkpt lat="49.34001" lon="1.13458">
        <ele>85</ele>
        <time>2024-10-15T11:59:50.629+00:00</time>
      </trkpt>
      <trkpt lat="49.33999" lon="1.13459">
        <ele>85</ele>
        <time>2024-10-15T11:59:55.263+00:00</time>
      </trkpt>
      <trkpt lat="49.33999" lon="1.13462">
        <ele>85</ele>
        <time>2024-10-15T11:59:59.727+00:00</time>
      </trkpt>
      <trkpt lat="49.34" lon="1.13469">
        <ele>85</ele>
        <time>2024-10-15T12:00:03.909+00:00</time>
      </trkpt>
      <trkpt lat="49.34" lon="1.13476">
        <ele>85</ele>
        <time>2024-10-15T12:00:08.364+00:00</time>
      </trkpt>
      <trkpt lat="49.34" lon="1.13483">
        <ele>85</ele>
        <time>2024-10-15T12:00:12.452+00:00</time>
      </trkpt>
      <trkpt lat="49.34" lon="1.1349">
        <ele>85</ele>
        <time>2024-10-15T12:00:16.954+00:00</time>
      </trkpt>
      <trkpt lat="49.33999" lon="1.13498">
        <ele>85</ele>
        <time>2024-10-15T12:00:21.429+00:00</time>
      </trkpt>
      <trkpt lat="49.33999" lon="1.13505">
        <ele>85</ele>
        <time>2024-10-15T12:00:25.886+00:00</time>
      </trkpt>
      <trkpt lat="49.33998" lon="1.13513">
        <ele>85</ele>
        <time>2024-10-15T12:00:30.366+00:00</time>
      </trkpt>
      <trkpt lat="49.33998" lon="1.1352">
        <ele>85</ele>
        <time>2024-10-15T12:00:34.869+00:00</time>
      </trkpt>
      <trkpt lat="49.33996" lon="1.13528">
        <ele>85</ele>
        <time>2024-10-15T12:00:39.294+00:00</time>
      </trkpt>
      <trkpt lat="49.33994" lon="1.13535">
        <ele>85</ele>
        <time>2024-10-15T12:00:43.685+00:00</time>
      </trkpt>
      <trkpt lat="49.33993" lon="1.13542">
        <ele>85</ele>
        <time>2024-10-15T12:00:48.105+00:00</time>
      </trkpt>
      <trkpt lat="49.33992" lon="1.1355">
        <ele>85</ele>
        <time>2024-10-15T12:00:52.435+00:00</time>
      </trkpt>
      <trkpt lat="49.3399" lon="1.13555">
        <ele>85</ele>
        <time>2024-10-15T12:00:56.457+00:00</time>
      </trkpt>
      <trkpt lat="49.33988" lon="1.13563">
        <ele>85</ele>
        <time>2024-10-15T12:01:00.833+00:00</time>
      </trkpt>
      <trkpt lat="49.33984" lon="1.13569">
        <ele>84</ele>
        <time>2024-10-15T12:01:05.205+00:00</time>
      </trkpt>
      <trkpt lat="49.33981" lon="1.13577">
        <ele>83</ele>
        <time>2024-10-15T12:01:09.586+00:00</time>
      </trkpt>
      <trkpt lat="49.33978" lon="1.13585">
        <ele>83</ele>
        <time>2024-10-15T12:01:14.008+00:00</time>
      </trkpt>
      <trkpt lat="49.33975" lon="1.13593">
        <ele>83</ele>
        <time>2024-10-15T12:01:18.453+00:00</time>
      </trkpt>
      <trkpt lat="49.33973" lon="1.13601">
        <ele>83</ele>
        <time>2024-10-15T12:01:22.971+00:00</time>
      </trkpt>
      <trkpt lat="49.3397" lon="1.13608">
        <ele>83</ele>
        <time>2024-10-15T12:01:27.284+00:00</time>
      </trkpt>
      <trkpt lat="49.33967" lon="1.13616">
        <ele>83</ele>
        <time>2024-10-15T12:01:31.748+00:00</time>
      </trkpt>
      <trkpt lat="49.33964" lon="1.13623">
        <ele>83</ele>
        <time>2024-10-15T12:01:36.147+00:00</time>
      </trkpt>
      <trkpt lat="49.33961" lon="1.13628">
        <ele>83</ele>
        <time>2024-10-15T12:01:40.478+00:00</time>
      </trkpt>
      <trkpt lat="49.33958" lon="1.13635">
        <ele>82</ele>
        <time>2024-10-15T12:01:44.990+00:00</time>
      </trkpt>
      <trkpt lat="49.33955" lon="1.13642">
        <ele>82</ele>
        <time>2024-10-15T12:01:49.312+00:00</time>
      </trkpt>
      <trkpt lat="49.33952" lon="1.13649">
        <ele>82</ele>
        <time>2024-10-15T12:01:53.752+00:00</time>
      </trkpt>
      <trkpt lat="49.33949" lon="1.13655">
        <ele>83</ele>
        <time>2024-10-15T12:01:58.111+00:00</time>
      </trkpt>
      <trkpt lat="49.33946" lon="1.13662">
        <ele>83</ele>
        <time>2024-10-15T12:02:02.445+00:00</time>
      </trkpt>
      <trkpt lat="49.33943" lon="1.13668">
        <ele>83</ele>
        <time>2024-10-15T12:02:06.729+00:00</time>
      </trkpt>
      <trkpt lat="49.33941" lon="1.13677">
        <ele>83</ele>
        <time>2024-10-15T12:02:11.451+00:00</time>
      </trkpt>
      <trkpt lat="49.33941" lon="1.13687">
        <ele>83</ele>
        <time>2024-10-15T12:02:15.849+00:00</time>
      </trkpt>
      <trkpt lat="49.33939" lon="1.13695">
        <ele>83</ele>
        <time>2024-10-15T12:02:20.251+00:00</time>
      </trkpt>
      <trkpt lat="49.33936" lon="1.137">
        <ele>83</ele>
        <time>2024-10-15T12:02:24.687+00:00</time>
      </trkpt>
      <trkpt lat="49.33933" lon="1.13707">
        <ele>83</ele>
        <time>2024-10-15T12:02:29.107+00:00</time>
      </trkpt>
      <trkpt lat="49.33929" lon="1.13714">
        <ele>82</ele>
        <time>2024-10-15T12:02:33.469+00:00</time>
      </trkpt>
      <trkpt lat="49.33926" lon="1.13721">
        <ele>82</ele>
        <time>2024-10-15T12:02:38.013+00:00</time>
      </trkpt>
      <trkpt lat="49.33923" lon="1.13731">
        <ele>82</ele>
        <time>2024-10-15T12:02:42.487+00:00</time>
      </trkpt>
      <trkpt lat="49.3392" lon="1.13739">
        <ele>81</ele>
        <time>2024-10-15T12:02:46.924+00:00</time>
      </trkpt>
      <trkpt lat="49.33918" lon="1.13748">
        <ele>81</ele>
        <time>2024-10-15T12:02:51.404+00:00</time>
      </trkpt>
      <trkpt lat="49.33915" lon="1.13755">
        <ele>81</ele>
        <time>2024-10-15T12:02:55.927+00:00</time>
      </trkpt>
      <trkpt lat="49.33912" lon="1.13763">
        <ele>81</ele>
        <time>2024-10-15T12:03:00.408+00:00</time>
      </trkpt>
      <trkpt lat="49.3391" lon="1.13769">
        <ele>82</ele>
        <time>2024-10-15T12:03:04.890+00:00</time>
      </trkpt>
      <trkpt lat="49.33908" lon="1.13777">
        <ele>82</ele>
        <time>2024-10-15T12:03:09.315+00:00</time>
      </trkpt>
      <trkpt lat="49.33906" lon="1.13784">
        <ele>82</ele>
        <time>2024-10-15T12:03:13.743+00:00</time>
      </trkpt>
      <trkpt lat="49.33903" lon="1.13791">
        <ele>81</ele>
        <time>2024-10-15T12:03:18.248+00:00</time>
      </trkpt>
      <trkpt lat="49.339" lon="1.13799">
        <ele>81</ele>
        <time>2024-10-15T12:03:22.749+00:00</time>
      </trkpt>
      <trkpt lat="49.33899" lon="1.13808">
        <ele>81</ele>
        <time>2024-10-15T12:03:27.234+00:00</time>
      </trkpt>
      <trkpt lat="49.33896" lon="1.13816">
        <ele>81</ele>
        <time>2024-10-15T12:03:31.788+00:00</time>
      </trkpt>
      <trkpt lat="49.33893" lon="1.13824">
        <ele>81</ele>
        <time>2024-10-15T12:03:36.310+00:00</time>
      </trkpt>
      <trkpt lat="49.33891" lon="1.13832">
        <ele>81</ele>
        <time>2024-10-15T12:03:40.832+00:00</time>
      </trkpt>
      <trkpt lat="49.33889" lon="1.1384">
        <ele>81</ele>
        <time>2024-10-15T12:03:45.347+00:00</time>
      </trkpt>
      <trkpt lat="49.33887" lon="1.13849">
        <ele>80</ele>
        <time>2024-10-15T12:03:49.886+00:00</time>
      </trkpt>
      <trkpt lat="49.33886" lon="1.13857">
        <ele>80</ele>
        <time>2024-10-15T12:03:54.370+00:00</time>
      </trkpt>
      <trkpt lat="49.33885" lon="1.13864">
        <ele>80</ele>
        <time>2024-10-15T12:03:58.903+00:00</time>
      </trkpt>
      <trkpt lat="49.33883" lon="1.1387">
        <ele>80</ele>
        <time>2024-10-15T12:04:03.365+00:00</time>
      </trkpt>
      <trkpt lat="49.33881" lon="1.13879">
        <ele>79</ele>
        <time>2024-10-15T12:04:08.343+00:00</time>
      </trkpt>
      <trkpt lat="49.3388" lon="1.13887">
        <ele>79</ele>
        <time>2024-10-15T12:04:12.689+00:00</time>
      </trkpt>
      <trkpt lat="49.33879" lon="1.13895">
        <ele>79</ele>
        <time>2024-10-15T12:04:17.090+00:00</time>
      </trkpt>
      <trkpt lat="49.33878" lon="1.13904">
        <ele>80</ele>
        <time>2024-10-15T12:04:21.629+00:00</time>
      </trkpt>
      <trkpt lat="49.33877" lon="1.13911">
        <ele>80</ele>
        <time>2024-10-15T12:04:26.085+00:00</time>
      </trkpt>
      <trkpt lat="49.33875" lon="1.1392">
        <ele>80</ele>
        <time>2024-10-15T12:04:30.455+00:00</time>
      </trkpt>
      <trkpt lat="49.33874" lon="1.13928">
        <ele>79</ele>
        <time>2024-10-15T12:04:35.327+00:00</time>
      </trkpt>
      <trkpt lat="49.33874" lon="1.13932">
        <ele>80</ele>
        <time>2024-10-15T12:04:39.368+00:00</time>
      </trkpt>
      <trkpt lat="49.3387" lon="1.13938">
        <ele>80</ele>
        <time>2024-10-15T12:04:43.610+00:00</time>
      </trkpt>
      <trkpt lat="49.33866" lon="1.13943">
        <ele>80</ele>
        <time>2024-10-15T12:04:48.025+00:00</time>
      </trkpt>
      <trkpt lat="49.33861" lon="1.13948">
        <ele>80</ele>
        <time>2024-10-15T12:04:52.502+00:00</time>
      </trkpt>
      <trkpt lat="49.33856" lon="1.13949">
        <ele>80</ele>
        <time>2024-10-15T12:04:57.032+00:00</time>
      </trkpt>
      <trkpt lat="49.3385" lon="1.1395">
        <ele>80</ele>
        <time>2024-10-15T12:05:01.447+00:00</time>
      </trkpt>
      <trkpt lat="49.33845" lon="1.13953">
        <ele>81</ele>
        <time>2024-10-15T12:05:05.467+00:00</time>
      </trkpt>
      <trkpt lat="49.3384" lon="1.13955">
        <ele>81</ele>
        <time>2024-10-15T12:05:09.906+00:00</time>
      </trkpt>
      <trkpt lat="49.33835" lon="1.13959">
        <ele>82</ele>
        <time>2024-10-15T12:05:14.390+00:00</time>
      </trkpt>
      <trkpt lat="49.33831" lon="1.13962">
        <ele>82</ele>
        <time>2024-10-15T12:05:18.823+00:00</time>
      </trkpt>
      <trkpt lat="49.33827" lon="1.13963">
        <ele>82</ele>
        <time>2024-10-15T12:05:22.927+00:00</time>
      </trkpt>
      <trkpt lat="49.33822" lon="1.13965">
        <ele>82</ele>
        <time>2024-10-15T12:05:27.449+00:00</time>
      </trkpt>
      <trkpt lat="49.33818" lon="1.13966">
        <ele>83</ele>
        <time>2024-10-15T12:05:31.457+00:00</time>
      </trkpt>
      <trkpt lat="49.33813" lon="1.13968">
        <ele>83</ele>
        <time>2024-10-15T12:05:35.587+00:00</time>
      </trkpt>
      <trkpt lat="49.33808" lon="1.1397">
        <ele>83</ele>
        <time>2024-10-15T12:05:39.648+00:00</time>
      </trkpt>
      <trkpt lat="49.33803" lon="1.13972">
        <ele>83</ele>
        <time>2024-10-15T12:05:43.688+00:00</time>
      </trkpt>
      <trkpt lat="49.33798" lon="1.13975">
        <ele>83</ele>
        <time>2024-10-15T12:05:47.692+00:00</time>
      </trkpt>
      <trkpt lat="49.33793" lon="1.13978">
        <ele>83</ele>
        <time>2024-10-15T12:05:51.751+00:00</time>
      </trkpt>
      <trkpt lat="49.33788" lon="1.1398">
        <ele>82</ele>
        <time>2024-10-15T12:05:55.772+00:00</time>
      </trkpt>
      <trkpt lat="49.33783" lon="1.13982">
        <ele>82</ele>
        <time>2024-10-15T12:05:59.884+00:00</time>
      </trkpt>
      <trkpt lat="49.33778" lon="1.13985">
        <ele>82</ele>
        <time>2024-10-15T12:06:04.431+00:00</time>
      </trkpt>
      <trkpt lat="49.33773" lon="1.13986">
        <ele>83</ele>
        <time>2024-10-15T12:06:08.451+00:00</time>
      </trkpt>
      <trkpt lat="49.33768" lon="1.13988">
        <ele>83</ele>
        <time>2024-10-15T12:06:12.461+00:00</time>
      </trkpt>
      <trkpt lat="49.33762" lon="1.13991">
        <ele>82</ele>
        <time>2024-10-15T12:06:17.097+00:00</time>
      </trkpt>
      <trkpt lat="49.33757" lon="1.13993">
        <ele>82</ele>
        <time>2024-10-15T12:06:21.728+00:00</time>
      </trkpt>
      <trkpt lat="49.33753" lon="1.13995">
        <ele>82</ele>
        <time>2024-10-15T12:06:25.714+00:00</time>
      </trkpt>
      <trkpt lat="49.33748" lon="1.13997">
        <ele>82</ele>
        <time>2024-10-15T12:06:29.890+00:00</time>
      </trkpt>
      <trkpt lat="49.33742" lon="1.13998">
        <ele>82</ele>
        <time>2024-10-15T12:06:34.451+00:00</time>
      </trkpt>
      <trkpt lat="49.33737" lon="1.14002">
        <ele>82</ele>
        <time>2024-10-15T12:06:38.971+00:00</time>
      </trkpt>
      <trkpt lat="49.33731" lon="1.14003">
        <ele>81</ele>
        <time>2024-10-15T12:06:43.388+00:00</time>
      </trkpt>
      <trkpt lat="49.33726" lon="1.14005">
        <ele>81</ele>
        <time>2024-10-15T12:06:47.927+00:00</time>
      </trkpt>
      <trkpt lat="49.3372" lon="1.14007">
        <ele>81</ele>
        <time>2024-10-15T12:06:52.452+00:00</time>
      </trkpt>
      <trkpt lat="49.33716" lon="1.14007">
        <ele>81</ele>
        <time>2024-10-15T12:06:56.984+00:00</time>
      </trkpt>
      <trkpt lat="49.33711" lon="1.14005">
        <ele>81</ele>
        <time>2024-10-15T12:07:01.445+00:00</time>
      </trkpt>
      <trkpt lat="49.33707" lon="1.14">
        <ele>81</ele>
        <time>2024-10-15T12:07:05.457+00:00</time>
      </trkpt>
      <trkpt lat="49.33706" lon="1.13997">
        <ele>81</ele>
        <time>2024-10-15T12:08:42.476+00:00</time>
      </trkpt>
      <trkpt lat="49.33707" lon="1.13995">
        <ele>81</ele>
        <time>2024-10-15T12:08:47.464+00:00</time>
      </trkpt>
      <trkpt lat="49.33707" lon="1.13993">
        <ele>81</ele>
        <time>2024-10-15T12:08:52.047+00:00</time>
      </trkpt>
      <trkpt lat="49.33704" lon="1.13987">
        <ele>81</ele>
        <time>2024-10-15T12:08:57.009+00:00</time>
      </trkpt>
      <trkpt lat="49.33704" lon="1.13984">
        <ele>80</ele>
        <time>2024-10-15T12:09:01.109+00:00</time>
      </trkpt>
      <trkpt lat="49.33703" lon="1.1398">
        <ele>80</ele>
        <time>2024-10-15T12:09:05.208+00:00</time>
      </trkpt>
      <trkpt lat="49.337" lon="1.13969">
        <ele>80</ele>
        <time>2024-10-15T12:09:09.462+00:00</time>
      </trkpt>
      <trkpt lat="49.33694" lon="1.13959">
        <ele>80</ele>
        <time>2024-10-15T12:09:14.392+00:00</time>
      </trkpt>
      <trkpt lat="49.33693" lon="1.13952">
        <ele>80</ele>
        <time>2024-10-15T12:09:18.465+00:00</time>
      </trkpt>
      <trkpt lat="49.33691" lon="1.13948">
        <ele>80</ele>
        <time>2024-10-15T12:09:22.481+00:00</time>
      </trkpt>
      <trkpt lat="49.3369" lon="1.13942">
        <ele>80</ele>
        <time>2024-10-15T12:09:26.803+00:00</time>
      </trkpt>
      <trkpt lat="49.33688" lon="1.13937">
        <ele>80</ele>
        <time>2024-10-15T12:09:31.443+00:00</time>
      </trkpt>
      <trkpt lat="49.33686" lon="1.13931">
        <ele>80</ele>
        <time>2024-10-15T12:09:35.665+00:00</time>
      </trkpt>
      <trkpt lat="49.33684" lon="1.13929">
        <ele>80</ele>
        <time>2024-10-15T12:09:40.200+00:00</time>
      </trkpt>
      <trkpt lat="49.33684" lon="1.13928">
        <ele>80</ele>
        <time>2024-10-15T12:09:44.751+00:00</time>
      </trkpt>
      <trkpt lat="49.33682" lon="1.13919">
        <ele>80</ele>
        <time>2024-10-15T12:09:49.211+00:00</time>
      </trkpt>
      <trkpt lat="49.33679" lon="1.13912">
        <ele>81</ele>
        <time>2024-10-15T12:09:53.233+00:00</time>
      </trkpt>
      <trkpt lat="49.33676" lon="1.13904">
        <ele>81</ele>
        <time>2024-10-15T12:09:57.704+00:00</time>
      </trkpt>
      <trkpt lat="49.33673" lon="1.13897">
        <ele>81</ele>
        <time>2024-10-15T12:10:02.164+00:00</time>
      </trkpt>
      <trkpt lat="49.3367" lon="1.13889">
        <ele>81</ele>
        <time>2024-10-15T12:10:06.567+00:00</time>
      </trkpt>
      <trkpt lat="49.33666" lon="1.13882">
        <ele>81</ele>
        <time>2024-10-15T12:10:11.008+00:00</time>
      </trkpt>
      <trkpt lat="49.33664" lon="1.13873">
        <ele>81</ele>
        <time>2024-10-15T12:10:15.428+00:00</time>
      </trkpt>
      <trkpt lat="49.33661" lon="1.13865">
        <ele>81</ele>
        <time>2024-10-15T12:10:19.994+00:00</time>
      </trkpt>
      <trkpt lat="49.33658" lon="1.13858">
        <ele>81</ele>
        <time>2024-10-15T12:10:24.438+00:00</time>
      </trkpt>
      <trkpt lat="49.33654" lon="1.13851">
        <ele>81</ele>
        <time>2024-10-15T12:10:28.970+00:00</time>
      </trkpt>
      <trkpt lat="49.33651" lon="1.13844">
        <ele>81</ele>
        <time>2024-10-15T12:10:32.992+00:00</time>
      </trkpt>
      <trkpt lat="49.33648" lon="1.13838">
        <ele>81</ele>
        <time>2024-10-15T12:10:37.345+00:00</time>
      </trkpt>
      <trkpt lat="49.33646" lon="1.13831">
        <ele>81</ele>
        <time>2024-10-15T12:10:41.866+00:00</time>
      </trkpt>
      <trkpt lat="49.33643" lon="1.13823">
        <ele>81</ele>
        <time>2024-10-15T12:10:46.327+00:00</time>
      </trkpt>
      <trkpt lat="49.3364" lon="1.13816">
        <ele>81</ele>
        <time>2024-10-15T12:10:50.950+00:00</time>
      </trkpt>
      <trkpt lat="49.33637" lon="1.13808">
        <ele>81</ele>
        <time>2024-10-15T12:10:55.268+00:00</time>
      </trkpt>
      <trkpt lat="49.33634" lon="1.13801">
        <ele>81</ele>
        <time>2024-10-15T12:10:59.669+00:00</time>
      </trkpt>
      <trkpt lat="49.33632" lon="1.13793">
        <ele>81</ele>
        <time>2024-10-15T12:11:04.082+00:00</time>
      </trkpt>
      <trkpt lat="49.33629" lon="1.13786">
        <ele>81</ele>
        <time>2024-10-15T12:11:08.148+00:00</time>
      </trkpt>
      <trkpt lat="49.33625" lon="1.13779">
        <ele>81</ele>
        <time>2024-10-15T12:11:12.446+00:00</time>
      </trkpt>
      <trkpt lat="49.33622" lon="1.13773">
        <ele>80</ele>
        <time>2024-10-15T12:11:17.027+00:00</time>
      </trkpt>
      <trkpt lat="49.3362" lon="1.13765">
        <ele>80</ele>
        <time>2024-10-15T12:11:21.468+00:00</time>
      </trkpt>
      <trkpt lat="49.33617" lon="1.13757">
        <ele>80</ele>
        <time>2024-10-15T12:11:26.145+00:00</time>
      </trkpt>
      <trkpt lat="49.33614" lon="1.1375">
        <ele>80</ele>
        <time>2024-10-15T12:11:30.689+00:00</time>
      </trkpt>
      <trkpt lat="49.33611" lon="1.13742">
        <ele>80</ele>
        <time>2024-10-15T12:11:35.192+00:00</time>
      </trkpt>
      <trkpt lat="49.33608" lon="1.13735">
        <ele>81</ele>
        <time>2024-10-15T12:11:39.214+00:00</time>
      </trkpt>
      <trkpt lat="49.33606" lon="1.13728">
        <ele>81</ele>
        <time>2024-10-15T12:11:43.665+00:00</time>
      </trkpt>
      <trkpt lat="49.33603" lon="1.1372">
        <ele>81</ele>
        <time>2024-10-15T12:11:48.209+00:00</time>
      </trkpt>
      <trkpt lat="49.33601" lon="1.13713">
        <ele>81</ele>
        <time>2024-10-15T12:11:52.673+00:00</time>
      </trkpt>
      <trkpt lat="49.33598" lon="1.13705">
        <ele>82</ele>
        <time>2024-10-15T12:11:57.229+00:00</time>
      </trkpt>
      <trkpt lat="49.33596" lon="1.13698">
        <ele>82</ele>
        <time>2024-10-15T12:12:01.712+00:00</time>
      </trkpt>
      <trkpt lat="49.33593" lon="1.1369">
        <ele>82</ele>
        <time>2024-10-15T12:12:06.191+00:00</time>
      </trkpt>
      <trkpt lat="49.33591" lon="1.13682">
        <ele>82</ele>
        <time>2024-10-15T12:12:10.614+00:00</time>
      </trkpt>
      <trkpt lat="49.33588" lon="1.13675">
        <ele>82</ele>
        <time>2024-10-15T12:12:15.124+00:00</time>
      </trkpt>
      <trkpt lat="49.33585" lon="1.13667">
        <ele>82</ele>
        <time>2024-10-15T12:12:19.626+00:00</time>
      </trkpt>
      <trkpt lat="49.33582" lon="1.13659">
        <ele>82</ele>
        <time>2024-10-15T12:12:24.099+00:00</time>
      </trkpt>
      <trkpt lat="49.3358" lon="1.13651">
        <ele>81</ele>
        <time>2024-10-15T12:12:28.588+00:00</time>
      </trkpt>
      <trkpt lat="49.33576" lon="1.13644">
        <ele>81</ele>
        <time>2024-10-15T12:12:33.051+00:00</time>
      </trkpt>
      <trkpt lat="49.33574" lon="1.13637">
        <ele>81</ele>
        <time>2024-10-15T12:12:37.591+00:00</time>
      </trkpt>
      <trkpt lat="49.33571" lon="1.13629">
        <ele>81</ele>
        <time>2024-10-15T12:12:42.144+00:00</time>
      </trkpt>
      <trkpt lat="49.33567" lon="1.13621">
        <ele>80</ele>
        <time>2024-10-15T12:12:46.628+00:00</time>
      </trkpt>
      <trkpt lat="49.33564" lon="1.13614">
        <ele>80</ele>
        <time>2024-10-15T12:12:51.150+00:00</time>
      </trkpt>
      <trkpt lat="49.33562" lon="1.13606">
        <ele>80</ele>
        <time>2024-10-15T12:12:55.631+00:00</time>
      </trkpt>
      <trkpt lat="49.33559" lon="1.13598">
        <ele>80</ele>
        <time>2024-10-15T12:12:59.994+00:00</time>
      </trkpt>
      <trkpt lat="49.33556" lon="1.13592">
        <ele>80</ele>
        <time>2024-10-15T12:13:04.467+00:00</time>
      </trkpt>
      <trkpt lat="49.33554" lon="1.13583">
        <ele>80</ele>
        <time>2024-10-15T12:13:08.910+00:00</time>
      </trkpt>
      <trkpt lat="49.33546" lon="1.13562">
        <ele>81</ele>
        <time>2024-10-15T12:13:27.467+00:00</time>
      </trkpt>
      <trkpt lat="49.33546" lon="1.13562">
        <ele>81</ele>
        <time>2024-10-15T12:13:33.393+00:00</time>
      </trkpt>
      <trkpt lat="49.33546" lon="1.13562">
        <ele>81</ele>
        <time>2024-10-15T12:13:39.474+00:00</time>
      </trkpt>
      <trkpt lat="49.33545" lon="1.13562">
        <ele>81</ele>
        <time>2024-10-15T12:13:47.436+00:00</time>
      </trkpt>
      <trkpt lat="49.33545" lon="1.13561">
        <ele>81</ele>
        <time>2024-10-15T12:13:51.973+00:00</time>
      </trkpt>
      <trkpt lat="49.33545" lon="1.13561">
        <ele>81</ele>
        <time>2024-10-15T12:13:56.439+00:00</time>
      </trkpt>
      <trkpt lat="49.33541" lon="1.13563">
        <ele>81</ele>
        <time>2024-10-15T12:14:00.726+00:00</time>
      </trkpt>
      <trkpt lat="49.33536" lon="1.13565">
        <ele>81</ele>
        <time>2024-10-15T12:14:05.151+00:00</time>
      </trkpt>
      <trkpt lat="49.3353" lon="1.13566">
        <ele>81</ele>
        <time>2024-10-15T12:14:09.604+00:00</time>
      </trkpt>
      <trkpt lat="49.33524" lon="1.13567">
        <ele>81</ele>
        <time>2024-10-15T12:14:13.988+00:00</time>
      </trkpt>
      <trkpt lat="49.33519" lon="1.13569">
        <ele>81</ele>
        <time>2024-10-15T12:14:18.452+00:00</time>
      </trkpt>
      <trkpt lat="49.33513" lon="1.1357">
        <ele>81</ele>
        <time>2024-10-15T12:14:22.851+00:00</time>
      </trkpt>
      <trkpt lat="49.33508" lon="1.13573">
        <ele>81</ele>
        <time>2024-10-15T12:14:27.306+00:00</time>
      </trkpt>
      <trkpt lat="49.33502" lon="1.13576">
        <ele>81</ele>
        <time>2024-10-15T12:14:31.809+00:00</time>
      </trkpt>
      <trkpt lat="49.33497" lon="1.13578">
        <ele>81</ele>
        <time>2024-10-15T12:14:36.230+00:00</time>
      </trkpt>
      <trkpt lat="49.33491" lon="1.1358">
        <ele>81</ele>
        <time>2024-10-15T12:14:40.651+00:00</time>
      </trkpt>
      <trkpt lat="49.33486" lon="1.13582">
        <ele>80</ele>
        <time>2024-10-15T12:14:45.057+00:00</time>
      </trkpt>
      <trkpt lat="49.3348" lon="1.13584">
        <ele>80</ele>
        <time>2024-10-15T12:14:49.453+00:00</time>
      </trkpt>
      <trkpt lat="49.33475" lon="1.13586">
        <ele>80</ele>
        <time>2024-10-15T12:14:53.987+00:00</time>
      </trkpt>
      <trkpt lat="49.3347" lon="1.13588">
        <ele>80</ele>
        <time>2024-10-15T12:14:58.431+00:00</time>
      </trkpt>
      <trkpt lat="49.33465" lon="1.13591">
        <ele>80</ele>
        <time>2024-10-15T12:15:02.773+00:00</time>
      </trkpt>
      <trkpt lat="49.33459" lon="1.13593">
        <ele>80</ele>
        <time>2024-10-15T12:15:07.226+00:00</time>
      </trkpt>
      <trkpt lat="49.33454" lon="1.13594">
        <ele>79</ele>
        <time>2024-10-15T12:15:11.748+00:00</time>
      </trkpt>
      <trkpt lat="49.33448" lon="1.13595">
        <ele>79</ele>
        <time>2024-10-15T12:15:16.224+00:00</time>
      </trkpt>
      <trkpt lat="49.33443" lon="1.13597">
        <ele>79</ele>
        <time>2024-10-15T12:15:20.629+00:00</time>
      </trkpt>
      <trkpt lat="49.33437" lon="1.13599">
        <ele>79</ele>
        <time>2024-10-15T12:15:25.113+00:00</time>
      </trkpt>
      <trkpt lat="49.33432" lon="1.13602">
        <ele>79</ele>
        <time>2024-10-15T12:15:29.544+00:00</time>
      </trkpt>
      <trkpt lat="49.33426" lon="1.13605">
        <ele>79</ele>
        <time>2024-10-15T12:15:33.989+00:00</time>
      </trkpt>
      <trkpt lat="49.33421" lon="1.13607">
        <ele>79</ele>
        <time>2024-10-15T12:15:38.476+00:00</time>
      </trkpt>
      <trkpt lat="49.33415" lon="1.1361">
        <ele>79</ele>
        <time>2024-10-15T12:15:42.914+00:00</time>
      </trkpt>
      <trkpt lat="49.3341" lon="1.13612">
        <ele>79</ele>
        <time>2024-10-15T12:15:47.423+00:00</time>
      </trkpt>
      <trkpt lat="49.33404" lon="1.13615">
        <ele>79</ele>
        <time>2024-10-15T12:15:51.888+00:00</time>
      </trkpt>
      <trkpt lat="49.33401" lon="1.13619">
        <ele>80</ele>
        <time>2024-10-15T12:15:56.290+00:00</time>
      </trkpt>
      <trkpt lat="49.33397" lon="1.13622">
        <ele>80</ele>
        <time>2024-10-15T12:16:00.471+00:00</time>
      </trkpt>
      <trkpt lat="49.33393" lon="1.13625">
        <ele>80</ele>
        <time>2024-10-15T12:16:04.748+00:00</time>
      </trkpt>
      <trkpt lat="49.33389" lon="1.13622">
        <ele>80</ele>
        <time>2024-10-15T12:16:09.315+00:00</time>
      </trkpt>
      <trkpt lat="49.33384" lon="1.13619">
        <ele>80</ele>
        <time>2024-10-15T12:16:13.874+00:00</time>
      </trkpt>
      <trkpt lat="49.33379" lon="1.13617">
        <ele>80</ele>
        <time>2024-10-15T12:16:18.454+00:00</time>
      </trkpt>
      <trkpt lat="49.33374" lon="1.13615">
        <ele>81</ele>
        <time>2024-10-15T12:16:22.469+00:00</time>
      </trkpt>
      <trkpt lat="49.33369" lon="1.13614">
        <ele>81</ele>
        <time>2024-10-15T12:16:27.049+00:00</time>
      </trkpt>
      <trkpt lat="49.33364" lon="1.13614">
        <ele>81</ele>
        <time>2024-10-15T12:16:31.470+00:00</time>
      </trkpt>
      <trkpt lat="49.33358" lon="1.13613">
        <ele>81</ele>
        <time>2024-10-15T12:16:35.605+00:00</time>
      </trkpt>
      <trkpt lat="49.33353" lon="1.13612">
        <ele>81</ele>
        <time>2024-10-15T12:16:39.647+00:00</time>
      </trkpt>
      <trkpt lat="49.33349" lon="1.13612">
        <ele>81</ele>
        <time>2024-10-15T12:16:43.710+00:00</time>
      </trkpt>
      <trkpt lat="49.33344" lon="1.13612">
        <ele>80</ele>
        <time>2024-10-15T12:16:48.214+00:00</time>
      </trkpt>
      <trkpt lat="49.33339" lon="1.13612">
        <ele>80</ele>
        <time>2024-10-15T12:16:52.809+00:00</time>
      </trkpt>
      <trkpt lat="49.33334" lon="1.13612">
        <ele>80</ele>
        <time>2024-10-15T12:16:56.846+00:00</time>
      </trkpt>
      <trkpt lat="49.33329" lon="1.13613">
        <ele>80</ele>
        <time>2024-10-15T12:17:00.949+00:00</time>
      </trkpt>
      <trkpt lat="49.33324" lon="1.13615">
        <ele>80</ele>
        <time>2024-10-15T12:17:05.445+00:00</time>
      </trkpt>
      <trkpt lat="49.33319" lon="1.13616">
        <ele>79</ele>
        <time>2024-10-15T12:17:09.469+00:00</time>
      </trkpt>
      <trkpt lat="49.33314" lon="1.13618">
        <ele>79</ele>
        <time>2024-10-15T12:17:14.114+00:00</time>
      </trkpt>
      <trkpt lat="49.33309" lon="1.1362">
        <ele>79</ele>
        <time>2024-10-15T12:17:18.208+00:00</time>
      </trkpt>
      <trkpt lat="49.33304" lon="1.13622">
        <ele>79</ele>
        <time>2024-10-15T12:17:22.323+00:00</time>
      </trkpt>
      <trkpt lat="49.33299" lon="1.13623">
        <ele>79</ele>
        <time>2024-10-15T12:17:26.367+00:00</time>
      </trkpt>
      <trkpt lat="49.33295" lon="1.13625">
        <ele>79</ele>
        <time>2024-10-15T12:17:30.451+00:00</time>
      </trkpt>
      <trkpt lat="49.3329" lon="1.13626">
        <ele>80</ele>
        <time>2024-10-15T12:17:34.471+00:00</time>
      </trkpt>
      <trkpt lat="49.33285" lon="1.13628">
        <ele>80</ele>
        <time>2024-10-15T12:17:38.607+00:00</time>
      </trkpt>
      <trkpt lat="49.33281" lon="1.13631">
        <ele>80</ele>
        <time>2024-10-15T12:17:42.711+00:00</time>
      </trkpt>
      <trkpt lat="49.33277" lon="1.13634">
        <ele>80</ele>
        <time>2024-10-15T12:17:46.769+00:00</time>
      </trkpt>
      <trkpt lat="49.33273" lon="1.13637">
        <ele>80</ele>
        <time>2024-10-15T12:17:50.849+00:00</time>
      </trkpt>
      <trkpt lat="49.33268" lon="1.1364">
        <ele>80</ele>
        <time>2024-10-15T12:17:54.971+00:00</time>
      </trkpt>
      <trkpt lat="49.33263" lon="1.13641">
        <ele>80</ele>
        <time>2024-10-15T12:17:59.152+00:00</time>
      </trkpt>
      <trkpt lat="49.33258" lon="1.13641">
        <ele>80</ele>
        <time>2024-10-15T12:18:03.325+00:00</time>
      </trkpt>
      <trkpt lat="49.33253" lon="1.13643">
        <ele>80</ele>
        <time>2024-10-15T12:18:07.460+00:00</time>
      </trkpt>
      <trkpt lat="49.33248" lon="1.13644">
        <ele>80</ele>
        <time>2024-10-15T12:18:11.774+00:00</time>
      </trkpt>
      <trkpt lat="49.33243" lon="1.13645">
        <ele>80</ele>
        <time>2024-10-15T12:18:16.032+00:00</time>
      </trkpt>
      <trkpt lat="49.33239" lon="1.13646">
        <ele>80</ele>
        <time>2024-10-15T12:18:19.941+00:00</time>
      </trkpt>
      <trkpt lat="49.33234" lon="1.13648">
        <ele>80</ele>
        <time>2024-10-15T12:18:24.366+00:00</time>
      </trkpt>
      <trkpt lat="49.33229" lon="1.1365">
        <ele>80</ele>
        <time>2024-10-15T12:18:28.451+00:00</time>
      </trkpt>
      <trkpt lat="49.33225" lon="1.13653">
        <ele>80</ele>
        <time>2024-10-15T12:18:32.689+00:00</time>
      </trkpt>
      <trkpt lat="49.3322" lon="1.13655">
        <ele>80</ele>
        <time>2024-10-15T12:18:36.754+00:00</time>
      </trkpt>
      <trkpt lat="49.33216" lon="1.13656">
        <ele>80</ele>
        <time>2024-10-15T12:18:40.872+00:00</time>
      </trkpt>
      <trkpt lat="49.3321" lon="1.13657">
        <ele>80</ele>
        <time>2024-10-15T12:18:45.462+00:00</time>
      </trkpt>
      <trkpt lat="49.33205" lon="1.13659">
        <ele>80</ele>
        <time>2024-10-15T12:18:49.669+00:00</time>
      </trkpt>
      <trkpt lat="49.332" lon="1.13662">
        <ele>80</ele>
        <time>2024-10-15T12:18:53.791+00:00</time>
      </trkpt>
      <trkpt lat="49.33196" lon="1.13665">
        <ele>80</ele>
        <time>2024-10-15T12:18:57.972+00:00</time>
      </trkpt>
      <trkpt lat="49.33191" lon="1.13668">
        <ele>80</ele>
        <time>2024-10-15T12:19:02.109+00:00</time>
      </trkpt>
      <trkpt lat="49.33187" lon="1.1367">
        <ele>80</ele>
        <time>2024-10-15T12:19:06.209+00:00</time>
      </trkpt>
      <trkpt lat="49.33182" lon="1.13672">
        <ele>80</ele>
        <time>2024-10-15T12:19:10.313+00:00</time>
      </trkpt>
      <trkpt lat="49.33177" lon="1.13672">
        <ele>80</ele>
        <time>2024-10-15T12:19:14.391+00:00</time>
      </trkpt>
      <trkpt lat="49.33173" lon="1.13675">
        <ele>80</ele>
        <time>2024-10-15T12:19:18.482+00:00</time>
      </trkpt>
      <trkpt lat="49.33168" lon="1.13677">
        <ele>80</ele>
        <time>2024-10-15T12:19:22.474+00:00</time>
      </trkpt>
      <trkpt lat="49.33163" lon="1.13679">
        <ele>80</ele>
        <time>2024-10-15T12:19:26.665+00:00</time>
      </trkpt>
      <trkpt lat="49.33158" lon="1.13681">
        <ele>80</ele>
        <time>2024-10-15T12:19:30.728+00:00</time>
      </trkpt>
      <trkpt lat="49.33153" lon="1.13682">
        <ele>80</ele>
        <time>2024-10-15T12:19:34.810+00:00</time>
      </trkpt>
      <trkpt lat="49.33149" lon="1.13684">
        <ele>81</ele>
        <time>2024-10-15T12:19:38.876+00:00</time>
      </trkpt>
      <trkpt lat="49.33144" lon="1.13686">
        <ele>81</ele>
        <time>2024-10-15T12:19:42.993+00:00</time>
      </trkpt>
      <trkpt lat="49.3314" lon="1.13688">
        <ele>81</ele>
        <time>2024-10-15T12:19:47.150+00:00</time>
      </trkpt>
      <trkpt lat="49.33134" lon="1.1369">
        <ele>81</ele>
        <time>2024-10-15T12:19:51.770+00:00</time>
      </trkpt>
      <trkpt lat="49.33129" lon="1.13692">
        <ele>81</ele>
        <time>2024-10-15T12:19:55.891+00:00</time>
      </trkpt>
      <trkpt lat="49.33125" lon="1.13693">
        <ele>81</ele>
        <time>2024-10-15T12:19:59.983+00:00</time>
      </trkpt>
      <trkpt lat="49.3312" lon="1.13694">
        <ele>81</ele>
        <time>2024-10-15T12:20:04.168+00:00</time>
      </trkpt>
      <trkpt lat="49.33116" lon="1.13696">
        <ele>81</ele>
        <time>2024-10-15T12:20:08.332+00:00</time>
      </trkpt>
      <trkpt lat="49.33111" lon="1.13698">
        <ele>81</ele>
        <time>2024-10-15T12:20:12.450+00:00</time>
      </trkpt>
      <trkpt lat="49.33106" lon="1.137">
        <ele>81</ele>
        <time>2024-10-15T12:20:17.111+00:00</time>
      </trkpt>
      <trkpt lat="49.33102" lon="1.13702">
        <ele>81</ele>
        <time>2024-10-15T12:20:21.052+00:00</time>
      </trkpt>
      <trkpt lat="49.33096" lon="1.13704">
        <ele>81</ele>
        <time>2024-10-15T12:20:25.206+00:00</time>
      </trkpt>
      <trkpt lat="49.33092" lon="1.13706">
        <ele>81</ele>
        <time>2024-10-15T12:20:29.349+00:00</time>
      </trkpt>
      <trkpt lat="49.33087" lon="1.13708">
        <ele>81</ele>
        <time>2024-10-15T12:20:33.442+00:00</time>
      </trkpt>
      <trkpt lat="49.33083" lon="1.1371">
        <ele>81</ele>
        <time>2024-10-15T12:20:37.438+00:00</time>
      </trkpt>
      <trkpt lat="49.33079" lon="1.13711">
        <ele>81</ele>
        <time>2024-10-15T12:20:41.610+00:00</time>
      </trkpt>
      <trkpt lat="49.33074" lon="1.13713">
        <ele>81</ele>
        <time>2024-10-15T12:20:45.746+00:00</time>
      </trkpt>
      <trkpt lat="49.33069" lon="1.13715">
        <ele>81</ele>
        <time>2024-10-15T12:20:49.847+00:00</time>
      </trkpt>
      <trkpt lat="49.33064" lon="1.13718">
        <ele>81</ele>
        <time>2024-10-15T12:20:53.929+00:00</time>
      </trkpt>
      <trkpt lat="49.3306" lon="1.13721">
        <ele>81</ele>
        <time>2024-10-15T12:20:58.079+00:00</time>
      </trkpt>
      <trkpt lat="49.33056" lon="1.13723">
        <ele>81</ele>
        <time>2024-10-15T12:21:02.046+00:00</time>
      </trkpt>
      <trkpt lat="49.33051" lon="1.13725">
        <ele>81</ele>
        <time>2024-10-15T12:21:06.146+00:00</time>
      </trkpt>
      <trkpt lat="49.33045" lon="1.13726">
        <ele>81</ele>
        <time>2024-10-15T12:21:10.170+00:00</time>
      </trkpt>
      <trkpt lat="49.33041" lon="1.13728">
        <ele>83</ele>
        <time>2024-10-15T12:21:14.253+00:00</time>
      </trkpt>
      <trkpt lat="49.33037" lon="1.13728">
        <ele>83</ele>
        <time>2024-10-15T12:21:18.326+00:00</time>
      </trkpt>
      <trkpt lat="49.33032" lon="1.13729">
        <ele>83</ele>
        <time>2024-10-15T12:21:22.986+00:00</time>
      </trkpt>
      <trkpt lat="49.33027" lon="1.13731">
        <ele>83</ele>
        <time>2024-10-15T12:21:27.472+00:00</time>
      </trkpt>
      <trkpt lat="49.33023" lon="1.13734">
        <ele>83</ele>
        <time>2024-10-15T12:21:31.618+00:00</time>
      </trkpt>
      <trkpt lat="49.3302" lon="1.13737">
        <ele>83</ele>
        <time>2024-10-15T12:21:35.846+00:00</time>
      </trkpt>
      <trkpt lat="49.33015" lon="1.13735">
        <ele>83</ele>
        <time>2024-10-15T12:21:39.854+00:00</time>
      </trkpt>
      <trkpt lat="49.33009" lon="1.13734">
        <ele>85</ele>
        <time>2024-10-15T12:21:44.472+00:00</time>
      </trkpt>
      <trkpt lat="49.33003" lon="1.13736">
        <ele>85</ele>
        <time>2024-10-15T12:21:49.463+00:00</time>
      </trkpt>
      <trkpt lat="49.32997" lon="1.13736">
        <ele>85</ele>
        <time>2024-10-15T12:21:54.189+00:00</time>
      </trkpt>
      <trkpt lat="49.32991" lon="1.13737">
        <ele>85</ele>
        <time>2024-10-15T12:21:58.691+00:00</time>
      </trkpt>
      <trkpt lat="49.32985" lon="1.13737">
        <ele>84</ele>
        <time>2024-10-15T12:22:03.355+00:00</time>
      </trkpt>
      <trkpt lat="49.3298" lon="1.13737">
        <ele>84</ele>
        <time>2024-10-15T12:22:07.428+00:00</time>
      </trkpt>
      <trkpt lat="49.32975" lon="1.13739">
        <ele>84</ele>
        <time>2024-10-15T12:22:11.464+00:00</time>
      </trkpt>
      <trkpt lat="49.3297" lon="1.13739">
        <ele>84</ele>
        <time>2024-10-15T12:22:15.645+00:00</time>
      </trkpt>
      <trkpt lat="49.32965" lon="1.1374">
        <ele>84</ele>
        <time>2024-10-15T12:22:19.774+00:00</time>
      </trkpt>
      <trkpt lat="49.32959" lon="1.1374">
        <ele>84</ele>
        <time>2024-10-15T12:22:24.289+00:00</time>
      </trkpt>
      <trkpt lat="49.32954" lon="1.1374">
        <ele>83</ele>
        <time>2024-10-15T12:22:28.790+00:00</time>
      </trkpt>
      <trkpt lat="49.32949" lon="1.13739">
        <ele>83</ele>
        <time>2024-10-15T12:22:32.813+00:00</time>
      </trkpt>
      <trkpt lat="49.32943" lon="1.13739">
        <ele>83</ele>
        <time>2024-10-15T12:22:37.402+00:00</time>
      </trkpt>
      <trkpt lat="49.32938" lon="1.1374">
        <ele>83</ele>
        <time>2024-10-15T12:22:41.885+00:00</time>
      </trkpt>
      <trkpt lat="49.32933" lon="1.1374">
        <ele>83</ele>
        <time>2024-10-15T12:22:45.983+00:00</time>
      </trkpt>
      <trkpt lat="49.32928" lon="1.13737">
        <ele>84</ele>
        <time>2024-10-15T12:22:50.588+00:00</time>
      </trkpt>
      <trkpt lat="49.32923" lon="1.13735">
        <ele>84</ele>
        <time>2024-10-15T12:22:54.690+00:00</time>
      </trkpt>
      <trkpt lat="49.32918" lon="1.13734">
        <ele>84</ele>
        <time>2024-10-15T12:22:59.232+00:00</time>
      </trkpt>
      <trkpt lat="49.32913" lon="1.13734">
        <ele>84</ele>
        <time>2024-10-15T12:23:03.295+00:00</time>
      </trkpt>
      <trkpt lat="49.32909" lon="1.13734">
        <ele>84</ele>
        <time>2024-10-15T12:23:07.440+00:00</time>
      </trkpt>
      <trkpt lat="49.32904" lon="1.13735">
        <ele>84</ele>
        <time>2024-10-15T12:23:12.088+00:00</time>
      </trkpt>
      <trkpt lat="49.32899" lon="1.13735">
        <ele>83</ele>
        <time>2024-10-15T12:23:16.208+00:00</time>
      </trkpt>
      <trkpt lat="49.32894" lon="1.13735">
        <ele>83</ele>
        <time>2024-10-15T12:23:20.393+00:00</time>
      </trkpt>
      <trkpt lat="49.3289" lon="1.13735">
        <ele>83</ele>
        <time>2024-10-15T12:23:24.454+00:00</time>
      </trkpt>
      <trkpt lat="49.32885" lon="1.13733">
        <ele>83</ele>
        <time>2024-10-15T12:23:28.606+00:00</time>
      </trkpt>
      <trkpt lat="49.32879" lon="1.13732">
        <ele>83</ele>
        <time>2024-10-15T12:23:33.289+00:00</time>
      </trkpt>
      <trkpt lat="49.32875" lon="1.13731">
        <ele>83</ele>
        <time>2024-10-15T12:23:37.433+00:00</time>
      </trkpt>
      <trkpt lat="49.3287" lon="1.13729">
        <ele>83</ele>
        <time>2024-10-15T12:23:41.605+00:00</time>
      </trkpt>
      <trkpt lat="49.32865" lon="1.13729">
        <ele>83</ele>
        <time>2024-10-15T12:23:45.708+00:00</time>
      </trkpt>
      <trkpt lat="49.32859" lon="1.13728">
        <ele>83</ele>
        <time>2024-10-15T12:23:49.848+00:00</time>
      </trkpt>
      <trkpt lat="49.32855" lon="1.13728">
        <ele>83</ele>
        <time>2024-10-15T12:23:54.008+00:00</time>
      </trkpt>
      <trkpt lat="49.3285" lon="1.13728">
        <ele>83</ele>
        <time>2024-10-15T12:23:58.232+00:00</time>
      </trkpt>
      <trkpt lat="49.32846" lon="1.13727">
        <ele>84</ele>
        <time>2024-10-15T12:24:02.350+00:00</time>
      </trkpt>
      <trkpt lat="49.32841" lon="1.13727">
        <ele>84</ele>
        <time>2024-10-15T12:24:06.470+00:00</time>
      </trkpt>
      <trkpt lat="49.32837" lon="1.13726">
        <ele>84</ele>
        <time>2024-10-15T12:24:11.149+00:00</time>
      </trkpt>
      <trkpt lat="49.32831" lon="1.13725">
        <ele>84</ele>
        <time>2024-10-15T12:24:15.466+00:00</time>
      </trkpt>
      <trkpt lat="49.32826" lon="1.13723">
        <ele>84</ele>
        <time>2024-10-15T12:24:19.466+00:00</time>
      </trkpt>
      <trkpt lat="49.32821" lon="1.13722">
        <ele>84</ele>
        <time>2024-10-15T12:24:23.674+00:00</time>
      </trkpt>
      <trkpt lat="49.32816" lon="1.13723">
        <ele>85</ele>
        <time>2024-10-15T12:24:27.725+00:00</time>
      </trkpt>
      <trkpt lat="49.32811" lon="1.13723">
        <ele>85</ele>
        <time>2024-10-15T12:24:32.270+00:00</time>
      </trkpt>
      <trkpt lat="49.32806" lon="1.1372">
        <ele>85</ele>
        <time>2024-10-15T12:24:36.865+00:00</time>
      </trkpt>
      <trkpt lat="49.32801" lon="1.1372">
        <ele>85</ele>
        <time>2024-10-15T12:24:40.848+00:00</time>
      </trkpt>
      <trkpt lat="49.32796" lon="1.13721">
        <ele>85</ele>
        <time>2024-10-15T12:24:45.104+00:00</time>
      </trkpt>
      <trkpt lat="49.32791" lon="1.13721">
        <ele>84</ele>
        <time>2024-10-15T12:24:49.190+00:00</time>
      </trkpt>
      <trkpt lat="49.32786" lon="1.1372">
        <ele>84</ele>
        <time>2024-10-15T12:24:53.392+00:00</time>
      </trkpt>
      <trkpt lat="49.32782" lon="1.13719">
        <ele>84</ele>
        <time>2024-10-15T12:24:57.459+00:00</time>
      </trkpt>
      <trkpt lat="49.32777" lon="1.13719">
        <ele>84</ele>
        <time>2024-10-15T12:25:01.606+00:00</time>
      </trkpt>
      <trkpt lat="49.32772" lon="1.13717">
        <ele>84</ele>
        <time>2024-10-15T12:25:05.669+00:00</time>
      </trkpt>
      <trkpt lat="49.32767" lon="1.13717">
        <ele>84</ele>
        <time>2024-10-15T12:25:10.371+00:00</time>
      </trkpt>
      <trkpt lat="49.32763" lon="1.13716">
        <ele>84</ele>
        <time>2024-10-15T12:25:14.475+00:00</time>
      </trkpt>
      <trkpt lat="49.32758" lon="1.13713">
        <ele>84</ele>
        <time>2024-10-15T12:25:18.663+00:00</time>
      </trkpt>
      <trkpt lat="49.32754" lon="1.13712">
        <ele>84</ele>
        <time>2024-10-15T12:25:22.764+00:00</time>
      </trkpt>
      <trkpt lat="49.32748" lon="1.13712">
        <ele>84</ele>
        <time>2024-10-15T12:25:26.908+00:00</time>
      </trkpt>
      <trkpt lat="49.32744" lon="1.13711">
        <ele>84</ele>
        <time>2024-10-15T12:25:31.030+00:00</time>
      </trkpt>
      <trkpt lat="49.32739" lon="1.1371">
        <ele>84</ele>
        <time>2024-10-15T12:25:35.243+00:00</time>
      </trkpt>
      <trkpt lat="49.32735" lon="1.13711">
        <ele>84</ele>
        <time>2024-10-15T12:25:39.367+00:00</time>
      </trkpt>
      <trkpt lat="49.3273" lon="1.13711">
        <ele>84</ele>
        <time>2024-10-15T12:25:43.400+00:00</time>
      </trkpt>
      <trkpt lat="49.32725" lon="1.1371">
        <ele>84</ele>
        <time>2024-10-15T12:25:47.484+00:00</time>
      </trkpt>
      <trkpt lat="49.3272" lon="1.13708">
        <ele>84</ele>
        <time>2024-10-15T12:25:51.749+00:00</time>
      </trkpt>
      <trkpt lat="49.32715" lon="1.13709">
        <ele>84</ele>
        <time>2024-10-15T12:25:55.954+00:00</time>
      </trkpt>
      <trkpt lat="49.3271" lon="1.13709">
        <ele>84</ele>
        <time>2024-10-15T12:26:00.006+00:00</time>
      </trkpt>
      <trkpt lat="49.32705" lon="1.13709">
        <ele>84</ele>
        <time>2024-10-15T12:26:04.167+00:00</time>
      </trkpt>
      <trkpt lat="49.327" lon="1.13709">
        <ele>84</ele>
        <time>2024-10-15T12:26:08.332+00:00</time>
      </trkpt>
      <trkpt lat="49.32695" lon="1.13709">
        <ele>84</ele>
        <time>2024-10-15T12:26:12.385+00:00</time>
      </trkpt>
      <trkpt lat="49.3269" lon="1.13708">
        <ele>84</ele>
        <time>2024-10-15T12:26:16.457+00:00</time>
      </trkpt>
      <trkpt lat="49.32686" lon="1.13707">
        <ele>84</ele>
        <time>2024-10-15T12:26:20.733+00:00</time>
      </trkpt>
      <trkpt lat="49.32681" lon="1.13707">
        <ele>84</ele>
        <time>2024-10-15T12:26:24.833+00:00</time>
      </trkpt>
      <trkpt lat="49.32676" lon="1.13708">
        <ele>83</ele>
        <time>2024-10-15T12:26:28.986+00:00</time>
      </trkpt>
      <trkpt lat="49.32671" lon="1.13708">
        <ele>83</ele>
        <time>2024-10-15T12:26:33.091+00:00</time>
      </trkpt>
      <trkpt lat="49.32666" lon="1.13709">
        <ele>84</ele>
        <time>2024-10-15T12:26:37.172+00:00</time>
      </trkpt>
      <trkpt lat="49.32661" lon="1.13709">
        <ele>84</ele>
        <time>2024-10-15T12:26:41.273+00:00</time>
      </trkpt>
      <trkpt lat="49.32657" lon="1.13709">
        <ele>84</ele>
        <time>2024-10-15T12:26:45.350+00:00</time>
      </trkpt>
      <trkpt lat="49.32652" lon="1.1371">
        <ele>85</ele>
        <time>2024-10-15T12:26:49.931+00:00</time>
      </trkpt>
      <trkpt lat="49.32647" lon="1.13711">
        <ele>85</ele>
        <time>2024-10-15T12:26:54.020+00:00</time>
      </trkpt>
      <trkpt lat="49.32642" lon="1.1371">
        <ele>85</ele>
        <time>2024-10-15T12:26:58.183+00:00</time>
      </trkpt>
      <trkpt lat="49.32638" lon="1.13709">
        <ele>85</ele>
        <time>2024-10-15T12:27:02.349+00:00</time>
      </trkpt>
      <trkpt lat="49.32633" lon="1.13708">
        <ele>83</ele>
        <time>2024-10-15T12:27:06.464+00:00</time>
      </trkpt>
      <trkpt lat="49.32629" lon="1.13708">
        <ele>83</ele>
        <time>2024-10-15T12:27:10.775+00:00</time>
      </trkpt>
      <trkpt lat="49.32623" lon="1.13707">
        <ele>86</ele>
        <time>2024-10-15T12:27:15.365+00:00</time>
      </trkpt>
      <trkpt lat="49.32619" lon="1.13707">
        <ele>86</ele>
        <time>2024-10-15T12:27:19.458+00:00</time>
      </trkpt>
      <trkpt lat="49.32614" lon="1.13707">
        <ele>86</ele>
        <time>2024-10-15T12:27:24.128+00:00</time>
      </trkpt>
      <trkpt lat="49.32609" lon="1.13707">
        <ele>86</ele>
        <time>2024-10-15T12:27:28.475+00:00</time>
      </trkpt>
      <trkpt lat="49.32604" lon="1.13708">
        <ele>86</ele>
        <time>2024-10-15T12:27:33.185+00:00</time>
      </trkpt>
      <trkpt lat="49.326" lon="1.1371">
        <ele>87</ele>
        <time>2024-10-15T12:27:37.445+00:00</time>
      </trkpt>
      <trkpt lat="49.32596" lon="1.13707">
        <ele>88</ele>
        <time>2024-10-15T12:27:41.750+00:00</time>
      </trkpt>
      <trkpt lat="49.32593" lon="1.13705">
        <ele>88</ele>
        <time>2024-10-15T12:27:46.461+00:00</time>
      </trkpt>
      <trkpt lat="49.32591" lon="1.13706">
        <ele>88</ele>
        <time>2024-10-15T12:30:00.440+00:00</time>
      </trkpt>
      <trkpt lat="49.3259" lon="1.13705">
        <ele>88</ele>
        <time>2024-10-15T12:30:06.431+00:00</time>
      </trkpt>
      <trkpt lat="49.32589" lon="1.13705">
        <ele>88</ele>
        <time>2024-10-15T12:30:10.453+00:00</time>
      </trkpt>
      <trkpt lat="49.32589" lon="1.13702">
        <ele>88</ele>
        <time>2024-10-15T12:30:17.432+00:00</time>
      </trkpt>
      <trkpt lat="49.32585" lon="1.13702">
        <ele>88</ele>
        <time>2024-10-15T12:30:21.988+00:00</time>
      </trkpt>
      <trkpt lat="49.32577" lon="1.13702">
        <ele>88</ele>
        <time>2024-10-15T12:30:26.437+00:00</time>
      </trkpt>
      <trkpt lat="49.32572" lon="1.13697">
        <ele>88</ele>
        <time>2024-10-15T12:30:30.602+00:00</time>
      </trkpt>
      <trkpt lat="49.32568" lon="1.13694">
        <ele>89</ele>
        <time>2024-10-15T12:30:34.726+00:00</time>
      </trkpt>
      <trkpt lat="49.32567" lon="1.13693">
        <ele>89</ele>
        <time>2024-10-15T12:30:39.455+00:00</time>
      </trkpt>
      <trkpt lat="49.32566" lon="1.13692">
        <ele>89</ele>
        <time>2024-10-15T12:30:43.473+00:00</time>
      </trkpt>
      <trkpt lat="49.3256" lon="1.13688">
        <ele>89</ele>
        <time>2024-10-15T12:30:47.990+00:00</time>
      </trkpt>
      <trkpt lat="49.32556" lon="1.13684">
        <ele>89</ele>
        <time>2024-10-15T12:30:52.293+00:00</time>
      </trkpt>
      <trkpt lat="49.32553" lon="1.13677">
        <ele>87</ele>
        <time>2024-10-15T12:30:56.667+00:00</time>
      </trkpt>
      <trkpt lat="49.3255" lon="1.1367">
        <ele>87</ele>
        <time>2024-10-15T12:31:01.188+00:00</time>
      </trkpt>
      <trkpt lat="49.32547" lon="1.13663">
        <ele>87</ele>
        <time>2024-10-15T12:31:05.232+00:00</time>
      </trkpt>
      <trkpt lat="49.32545" lon="1.13656">
        <ele>87</ele>
        <time>2024-10-15T12:31:09.788+00:00</time>
      </trkpt>
      <trkpt lat="49.32544" lon="1.13649">
        <ele>87</ele>
        <time>2024-10-15T12:31:14.291+00:00</time>
      </trkpt>
      <trkpt lat="49.32541" lon="1.13641">
        <ele>87</ele>
        <time>2024-10-15T12:31:18.812+00:00</time>
      </trkpt>
      <trkpt lat="49.32539" lon="1.13635">
        <ele>87</ele>
        <time>2024-10-15T12:31:22.845+00:00</time>
      </trkpt>
      <trkpt lat="49.32536" lon="1.13628">
        <ele>87</ele>
        <time>2024-10-15T12:31:27.415+00:00</time>
      </trkpt>
      <trkpt lat="49.32534" lon="1.13622">
        <ele>87</ele>
        <time>2024-10-15T12:31:31.565+00:00</time>
      </trkpt>
      <trkpt lat="49.32531" lon="1.13615">
        <ele>87</ele>
        <time>2024-10-15T12:31:35.972+00:00</time>
      </trkpt>
      <trkpt lat="49.3253" lon="1.13607">
        <ele>87</ele>
        <time>2024-10-15T12:31:40.446+00:00</time>
      </trkpt>
      <trkpt lat="49.32527" lon="1.13601">
        <ele>87</ele>
        <time>2024-10-15T12:31:44.477+00:00</time>
      </trkpt>
      <trkpt lat="49.32524" lon="1.13596">
        <ele>86</ele>
        <time>2024-10-15T12:31:48.567+00:00</time>
      </trkpt>
      <trkpt lat="49.32521" lon="1.13589">
        <ele>86</ele>
        <time>2024-10-15T12:31:53.172+00:00</time>
      </trkpt>
      <trkpt lat="49.32519" lon="1.13582">
        <ele>86</ele>
        <time>2024-10-15T12:31:57.227+00:00</time>
      </trkpt>
      <trkpt lat="49.32518" lon="1.13575">
        <ele>86</ele>
        <time>2024-10-15T12:32:01.350+00:00</time>
      </trkpt>
      <trkpt lat="49.32516" lon="1.13568">
        <ele>86</ele>
        <time>2024-10-15T12:32:05.412+00:00</time>
      </trkpt>
      <trkpt lat="49.32514" lon="1.13561">
        <ele>86</ele>
        <time>2024-10-15T12:32:09.936+00:00</time>
      </trkpt>
      <trkpt lat="49.32511" lon="1.13554">
        <ele>86</ele>
        <time>2024-10-15T12:32:14.389+00:00</time>
      </trkpt>
      <trkpt lat="49.32508" lon="1.13546">
        <ele>86</ele>
        <time>2024-10-15T12:32:19.010+00:00</time>
      </trkpt>
      <trkpt lat="49.32506" lon="1.13538">
        <ele>86</ele>
        <time>2024-10-15T12:32:23.482+00:00</time>
      </trkpt>
      <trkpt lat="49.32503" lon="1.13531">
        <ele>86</ele>
        <time>2024-10-15T12:32:27.666+00:00</time>
      </trkpt>
      <trkpt lat="49.32502" lon="1.13524">
        <ele>86</ele>
        <time>2024-10-15T12:32:31.731+00:00</time>
      </trkpt>
      <trkpt lat="49.32501" lon="1.13516">
        <ele>86</ele>
        <time>2024-10-15T12:32:35.872+00:00</time>
      </trkpt>
      <trkpt lat="49.325" lon="1.13509">
        <ele>85</ele>
        <time>2024-10-15T12:32:39.984+00:00</time>
      </trkpt>
      <trkpt lat="49.32498" lon="1.13502">
        <ele>85</ele>
        <time>2024-10-15T12:32:44.009+00:00</time>
      </trkpt>
      <trkpt lat="49.32497" lon="1.13495">
        <ele>85</ele>
        <time>2024-10-15T12:32:48.115+00:00</time>
      </trkpt>
      <trkpt lat="49.32496" lon="1.13487">
        <ele>85</ele>
        <time>2024-10-15T12:32:52.166+00:00</time>
      </trkpt>
      <trkpt lat="49.32494" lon="1.13479">
        <ele>85</ele>
        <time>2024-10-15T12:32:56.289+00:00</time>
      </trkpt>
      <trkpt lat="49.32493" lon="1.13473">
        <ele>85</ele>
        <time>2024-10-15T12:33:00.423+00:00</time>
      </trkpt>
      <trkpt lat="49.32492" lon="1.13465">
        <ele>85</ele>
        <time>2024-10-15T12:33:04.449+00:00</time>
      </trkpt>
      <trkpt lat="49.32491" lon="1.13458">
        <ele>85</ele>
        <time>2024-10-15T12:33:08.465+00:00</time>
      </trkpt>
      <trkpt lat="49.32489" lon="1.13451">
        <ele>85</ele>
        <time>2024-10-15T12:33:12.664+00:00</time>
      </trkpt>
      <trkpt lat="49.32488" lon="1.13444">
        <ele>85</ele>
        <time>2024-10-15T12:33:16.688+00:00</time>
      </trkpt>
      <trkpt lat="49.32486" lon="1.13438">
        <ele>85</ele>
        <time>2024-10-15T12:33:20.793+00:00</time>
      </trkpt>
      <trkpt lat="49.32485" lon="1.13431">
        <ele>85</ele>
        <time>2024-10-15T12:33:24.824+00:00</time>
      </trkpt>
      <trkpt lat="49.32484" lon="1.13425">
        <ele>84</ele>
        <time>2024-10-15T12:33:28.890+00:00</time>
      </trkpt>
      <trkpt lat="49.32482" lon="1.13416">
        <ele>84</ele>
        <time>2024-10-15T12:33:33.490+00:00</time>
      </trkpt>
      <trkpt lat="49.32481" lon="1.13408">
        <ele>84</ele>
        <time>2024-10-15T12:33:37.445+00:00</time>
      </trkpt>
      <trkpt lat="49.32479" lon="1.134">
        <ele>84</ele>
        <time>2024-10-15T12:33:42.009+00:00</time>
      </trkpt>
      <trkpt lat="49.32478" lon="1.13392">
        <ele>84</ele>
        <time>2024-10-15T12:33:46.468+00:00</time>
      </trkpt>
      <trkpt lat="49.32477" lon="1.13383">
        <ele>84</ele>
        <time>2024-10-15T12:33:51.048+00:00</time>
      </trkpt>
      <trkpt lat="49.32475" lon="1.13375">
        <ele>84</ele>
        <time>2024-10-15T12:33:55.612+00:00</time>
      </trkpt>
      <trkpt lat="49.32474" lon="1.13366">
        <ele>84</ele>
        <time>2024-10-15T12:34:00.149+00:00</time>
      </trkpt>
      <trkpt lat="49.32472" lon="1.13359">
        <ele>84</ele>
        <time>2024-10-15T12:34:04.152+00:00</time>
      </trkpt>
      <trkpt lat="49.32471" lon="1.13352">
        <ele>84</ele>
        <time>2024-10-15T12:34:08.726+00:00</time>
      </trkpt>
      <trkpt lat="49.32469" lon="1.13344">
        <ele>85</ele>
        <time>2024-10-15T12:34:12.748+00:00</time>
      </trkpt>
      <trkpt lat="49.32467" lon="1.13338">
        <ele>85</ele>
        <time>2024-10-15T12:34:16.751+00:00</time>
      </trkpt>
      <trkpt lat="49.32465" lon="1.13331">
        <ele>85</ele>
        <time>2024-10-15T12:34:20.846+00:00</time>
      </trkpt>
      <trkpt lat="49.32463" lon="1.13323">
        <ele>85</ele>
        <time>2024-10-15T12:34:24.912+00:00</time>
      </trkpt>
      <trkpt lat="49.32462" lon="1.13315">
        <ele>86</ele>
        <time>2024-10-15T12:34:29.501+00:00</time>
      </trkpt>
      <trkpt lat="49.32459" lon="1.13308">
        <ele>86</ele>
        <time>2024-10-15T12:34:34.005+00:00</time>
      </trkpt>
      <trkpt lat="49.32457" lon="1.133">
        <ele>86</ele>
        <time>2024-10-15T12:34:38.489+00:00</time>
      </trkpt>
      <trkpt lat="49.32455" lon="1.13292">
        <ele>86</ele>
        <time>2024-10-15T12:34:43.109+00:00</time>
      </trkpt>
      <trkpt lat="49.32454" lon="1.13285">
        <ele>87</ele>
        <time>2024-10-15T12:34:47.172+00:00</time>
      </trkpt>
      <trkpt lat="49.32453" lon="1.13277">
        <ele>87</ele>
        <time>2024-10-15T12:34:51.212+00:00</time>
      </trkpt>
      <trkpt lat="49.32452" lon="1.13269">
        <ele>87</ele>
        <time>2024-10-15T12:34:55.725+00:00</time>
      </trkpt>
      <trkpt lat="49.3245" lon="1.13262">
        <ele>86</ele>
        <time>2024-10-15T12:34:59.749+00:00</time>
      </trkpt>
      <trkpt lat="49.32449" lon="1.13254">
        <ele>86</ele>
        <time>2024-10-15T12:35:03.744+00:00</time>
      </trkpt>
      <trkpt lat="49.32448" lon="1.13247">
        <ele>86</ele>
        <time>2024-10-15T12:35:07.754+00:00</time>
      </trkpt>
      <trkpt lat="49.32447" lon="1.1324">
        <ele>86</ele>
        <time>2024-10-15T12:35:11.930+00:00</time>
      </trkpt>
      <trkpt lat="49.32445" lon="1.13232">
        <ele>85</ele>
        <time>2024-10-15T12:35:15.956+00:00</time>
      </trkpt>
      <trkpt lat="49.32443" lon="1.13225">
        <ele>85</ele>
        <time>2024-10-15T12:35:20.027+00:00</time>
      </trkpt>
      <trkpt lat="49.32442" lon="1.13218">
        <ele>85</ele>
        <time>2024-10-15T12:35:24.110+00:00</time>
      </trkpt>
      <trkpt lat="49.3244" lon="1.1321">
        <ele>85</ele>
        <time>2024-10-15T12:35:28.211+00:00</time>
      </trkpt>
      <trkpt lat="49.32439" lon="1.13203">
        <ele>84</ele>
        <time>2024-10-15T12:35:32.307+00:00</time>
      </trkpt>
      <trkpt lat="49.32439" lon="1.13196">
        <ele>84</ele>
        <time>2024-10-15T12:35:36.414+00:00</time>
      </trkpt>
      <trkpt lat="49.32437" lon="1.13188">
        <ele>84</ele>
        <time>2024-10-15T12:35:40.491+00:00</time>
      </trkpt>
      <trkpt lat="49.32435" lon="1.13182">
        <ele>84</ele>
        <time>2024-10-15T12:35:44.460+00:00</time>
      </trkpt>
      <trkpt lat="49.32434" lon="1.13174">
        <ele>84</ele>
        <time>2024-10-15T12:35:48.727+00:00</time>
      </trkpt>
      <trkpt lat="49.32432" lon="1.13168">
        <ele>84</ele>
        <time>2024-10-15T12:35:52.831+00:00</time>
      </trkpt>
      <trkpt lat="49.3243" lon="1.13161">
        <ele>83</ele>
        <time>2024-10-15T12:35:56.965+00:00</time>
      </trkpt>
      <trkpt lat="49.32428" lon="1.13155">
        <ele>83</ele>
        <time>2024-10-15T12:36:01.444+00:00</time>
      </trkpt>
      <trkpt lat="49.32426" lon="1.13148">
        <ele>84</ele>
        <time>2024-10-15T12:36:06.206+00:00</time>
      </trkpt>
      <trkpt lat="49.32425" lon="1.13141">
        <ele>84</ele>
        <time>2024-10-15T12:36:10.470+00:00</time>
      </trkpt>
      <trkpt lat="49.32422" lon="1.13134">
        <ele>84</ele>
        <time>2024-10-15T12:36:14.866+00:00</time>
      </trkpt>
      <trkpt lat="49.3242" lon="1.13128">
        <ele>84</ele>
        <time>2024-10-15T12:36:18.994+00:00</time>
      </trkpt>
      <trkpt lat="49.32419" lon="1.13121">
        <ele>84</ele>
        <time>2024-10-15T12:36:23.110+00:00</time>
      </trkpt>
      <trkpt lat="49.32417" lon="1.13114">
        <ele>84</ele>
        <time>2024-10-15T12:36:27.709+00:00</time>
      </trkpt>
      <trkpt lat="49.32415" lon="1.13108">
        <ele>84</ele>
        <time>2024-10-15T12:36:31.785+00:00</time>
      </trkpt>
      <trkpt lat="49.32414" lon="1.13102">
        <ele>84</ele>
        <time>2024-10-15T12:36:35.932+00:00</time>
      </trkpt>
      <trkpt lat="49.32412" lon="1.13094">
        <ele>85</ele>
        <time>2024-10-15T12:36:40.454+00:00</time>
      </trkpt>
      <trkpt lat="49.32411" lon="1.13087">
        <ele>85</ele>
        <time>2024-10-15T12:36:45.106+00:00</time>
      </trkpt>
      <trkpt lat="49.32409" lon="1.1308">
        <ele>85</ele>
        <time>2024-10-15T12:36:49.785+00:00</time>
      </trkpt>
      <trkpt lat="49.32407" lon="1.13073">
        <ele>85</ele>
        <time>2024-10-15T12:36:54.231+00:00</time>
      </trkpt>
      <trkpt lat="49.32405" lon="1.13066">
        <ele>86</ele>
        <time>2024-10-15T12:36:59.129+00:00</time>
      </trkpt>
      <trkpt lat="49.32404" lon="1.13058">
        <ele>86</ele>
        <time>2024-10-15T12:37:03.190+00:00</time>
      </trkpt>
      <trkpt lat="49.32403" lon="1.1305">
        <ele>86</ele>
        <time>2024-10-15T12:37:07.685+00:00</time>
      </trkpt>
      <trkpt lat="49.32401" lon="1.13043">
        <ele>86</ele>
        <time>2024-10-15T12:37:11.708+00:00</time>
      </trkpt>
      <trkpt lat="49.32399" lon="1.13034">
        <ele>87</ele>
        <time>2024-10-15T12:37:16.290+00:00</time>
      </trkpt>
      <trkpt lat="49.32398" lon="1.13026">
        <ele>87</ele>
        <time>2024-10-15T12:37:20.837+00:00</time>
      </trkpt>
      <trkpt lat="49.32396" lon="1.13018">
        <ele>87</ele>
        <time>2024-10-15T12:37:24.888+00:00</time>
      </trkpt>
      <trkpt lat="49.32394" lon="1.1301">
        <ele>87</ele>
        <time>2024-10-15T12:37:29.449+00:00</time>
      </trkpt>
      <trkpt lat="49.32392" lon="1.13001">
        <ele>87</ele>
        <time>2024-10-15T12:37:34.108+00:00</time>
      </trkpt>
      <trkpt lat="49.3239" lon="1.12995">
        <ele>87</ele>
        <time>2024-10-15T12:37:38.119+00:00</time>
      </trkpt>
      <trkpt lat="49.32388" lon="1.12988">
        <ele>87</ele>
        <time>2024-10-15T12:37:42.148+00:00</time>
      </trkpt>
      <trkpt lat="49.32387" lon="1.1298">
        <ele>87</ele>
        <time>2024-10-15T12:37:46.712+00:00</time>
      </trkpt>
      <trkpt lat="49.32385" lon="1.12973">
        <ele>87</ele>
        <time>2024-10-15T12:37:50.745+00:00</time>
      </trkpt>
      <trkpt lat="49.32383" lon="1.12965">
        <ele>87</ele>
        <time>2024-10-15T12:37:55.271+00:00</time>
      </trkpt>
      <trkpt lat="49.32382" lon="1.12956">
        <ele>87</ele>
        <time>2024-10-15T12:37:59.810+00:00</time>
      </trkpt>
      <trkpt lat="49.3238" lon="1.12947">
        <ele>87</ele>
        <time>2024-10-15T12:38:04.350+00:00</time>
      </trkpt>
      <trkpt lat="49.32378" lon="1.12941">
        <ele>87</ele>
        <time>2024-10-15T12:38:08.442+00:00</time>
      </trkpt>
      <trkpt lat="49.32376" lon="1.12934">
        <ele>87</ele>
        <time>2024-10-15T12:38:12.891+00:00</time>
      </trkpt>
      <trkpt lat="49.32374" lon="1.12927">
        <ele>85</ele>
        <time>2024-10-15T12:38:16.934+00:00</time>
      </trkpt>
      <trkpt lat="49.32372" lon="1.1292">
        <ele>85</ele>
        <time>2024-10-15T12:38:20.990+00:00</time>
      </trkpt>
      <trkpt lat="49.32371" lon="1.12912">
        <ele>85</ele>
        <time>2024-10-15T12:38:25.462+00:00</time>
      </trkpt>
      <trkpt lat="49.32369" lon="1.12904">
        <ele>85</ele>
        <time>2024-10-15T12:38:29.691+00:00</time>
      </trkpt>
      <trkpt lat="49.32368" lon="1.12898">
        <ele>85</ele>
        <time>2024-10-15T12:38:33.732+00:00</time>
      </trkpt>
      <trkpt lat="49.32366" lon="1.12891">
        <ele>85</ele>
        <time>2024-10-15T12:38:37.790+00:00</time>
      </trkpt>
      <trkpt lat="49.32365" lon="1.12884">
        <ele>85</ele>
        <time>2024-10-15T12:38:41.851+00:00</time>
      </trkpt>
      <trkpt lat="49.32363" lon="1.12876">
        <ele>85</ele>
        <time>2024-10-15T12:38:46.468+00:00</time>
      </trkpt>
      <trkpt lat="49.32361" lon="1.12869">
        <ele>85</ele>
        <time>2024-10-15T12:38:50.465+00:00</time>
      </trkpt>
      <trkpt lat="49.32359" lon="1.12861">
        <ele>85</ele>
        <time>2024-10-15T12:38:55.125+00:00</time>
      </trkpt>
      <trkpt lat="49.32358" lon="1.12854">
        <ele>85</ele>
        <time>2024-10-15T12:38:59.148+00:00</time>
      </trkpt>
      <trkpt lat="49.32357" lon="1.12847">
        <ele>85</ele>
        <time>2024-10-15T12:39:03.689+00:00</time>
      </trkpt>
      <trkpt lat="49.32356" lon="1.12838">
        <ele>85</ele>
        <time>2024-10-15T12:39:08.274+00:00</time>
      </trkpt>
      <trkpt lat="49.32353" lon="1.12831">
        <ele>85</ele>
        <time>2024-10-15T12:39:12.267+00:00</time>
      </trkpt>
      <trkpt lat="49.32351" lon="1.12823">
        <ele>85</ele>
        <time>2024-10-15T12:39:16.827+00:00</time>
      </trkpt>
      <trkpt lat="49.32349" lon="1.12814">
        <ele>85</ele>
        <time>2024-10-15T12:39:21.343+00:00</time>
      </trkpt>
      <trkpt lat="49.32348" lon="1.12808">
        <ele>85</ele>
        <time>2024-10-15T12:39:25.367+00:00</time>
      </trkpt>
      <trkpt lat="49.32347" lon="1.12801">
        <ele>85</ele>
        <time>2024-10-15T12:39:29.456+00:00</time>
      </trkpt>
      <trkpt lat="49.32346" lon="1.12792">
        <ele>85</ele>
        <time>2024-10-15T12:39:33.810+00:00</time>
      </trkpt>
      <trkpt lat="49.32345" lon="1.12784">
        <ele>84</ele>
        <time>2024-10-15T12:39:37.874+00:00</time>
      </trkpt>
      <trkpt lat="49.32343" lon="1.12776">
        <ele>84</ele>
        <time>2024-10-15T12:39:42.473+00:00</time>
      </trkpt>
      <trkpt lat="49.32341" lon="1.12768">
        <ele>84</ele>
        <time>2024-10-15T12:39:47.028+00:00</time>
      </trkpt>
      <trkpt lat="49.3234" lon="1.1276">
        <ele>83</ele>
        <time>2024-10-15T12:39:51.461+00:00</time>
      </trkpt>
      <trkpt lat="49.32339" lon="1.12752">
        <ele>83</ele>
        <time>2024-10-15T12:39:55.488+00:00</time>
      </trkpt>
      <trkpt lat="49.32338" lon="1.12745">
        <ele>83</ele>
        <time>2024-10-15T12:40:00.088+00:00</time>
      </trkpt>
      <trkpt lat="49.32336" lon="1.12738">
        <ele>83</ele>
        <time>2024-10-15T12:40:04.464+00:00</time>
      </trkpt>
      <trkpt lat="49.32334" lon="1.1273">
        <ele>82</ele>
        <time>2024-10-15T12:40:09.194+00:00</time>
      </trkpt>
      <trkpt lat="49.32333" lon="1.12723">
        <ele>82</ele>
        <time>2024-10-15T12:40:13.472+00:00</time>
      </trkpt>
      <trkpt lat="49.32333" lon="1.12716">
        <ele>82</ele>
        <time>2024-10-15T12:40:18.480+00:00</time>
      </trkpt>
      <trkpt lat="49.32333" lon="1.12715">
        <ele>82</ele>
        <time>2024-10-15T12:40:23.480+00:00</time>
      </trkpt>
      <trkpt lat="49.3233" lon="1.12713">
        <ele>82</ele>
        <time>2024-10-15T12:41:44.461+00:00</time>
      </trkpt>
      <trkpt lat="49.3233" lon="1.12713">
        <ele>82</ele>
        <time>2024-10-15T12:41:54.469+00:00</time>
      </trkpt>
      <trkpt lat="49.3233" lon="1.12712">
        <ele>82</ele>
        <time>2024-10-15T12:41:59.466+00:00</time>
      </trkpt>
      <trkpt lat="49.32328" lon="1.12709">
        <ele>82</ele>
        <time>2024-10-15T12:42:03.809+00:00</time>
      </trkpt>
      <trkpt lat="49.32327" lon="1.12701">
        <ele>82</ele>
        <time>2024-10-15T12:42:08.127+00:00</time>
      </trkpt>
      <trkpt lat="49.32326" lon="1.12695">
        <ele>82</ele>
        <time>2024-10-15T12:42:12.467+00:00</time>
      </trkpt>
      <trkpt lat="49.32326" lon="1.12687">
        <ele>82</ele>
        <time>2024-10-15T12:42:16.968+00:00</time>
      </trkpt>
      <trkpt lat="49.32325" lon="1.1268">
        <ele>82</ele>
        <time>2024-10-15T12:42:21.458+00:00</time>
      </trkpt>
      <trkpt lat="49.32323" lon="1.12675">
        <ele>82</ele>
        <time>2024-10-15T12:42:25.466+00:00</time>
      </trkpt>
      <trkpt lat="49.3232" lon="1.1267">
        <ele>82</ele>
        <time>2024-10-15T12:42:30.007+00:00</time>
      </trkpt>
      <trkpt lat="49.32318" lon="1.12664">
        <ele>83</ele>
        <time>2024-10-15T12:42:34.126+00:00</time>
      </trkpt>
      <trkpt lat="49.32315" lon="1.12658">
        <ele>83</ele>
        <time>2024-10-15T12:42:38.468+00:00</time>
      </trkpt>
      <trkpt lat="49.32313" lon="1.12652">
        <ele>83</ele>
        <time>2024-10-15T12:42:42.847+00:00</time>
      </trkpt>
      <trkpt lat="49.3231" lon="1.12645">
        <ele>83</ele>
        <time>2024-10-15T12:42:47.307+00:00</time>
      </trkpt>
      <trkpt lat="49.32307" lon="1.12637">
        <ele>83</ele>
        <time>2024-10-15T12:42:51.684+00:00</time>
      </trkpt>
      <trkpt lat="49.32305" lon="1.1263">
        <ele>83</ele>
        <time>2024-10-15T12:42:56.084+00:00</time>
      </trkpt>
      <trkpt lat="49.32303" lon="1.12622">
        <ele>83</ele>
        <time>2024-10-15T12:43:00.475+00:00</time>
      </trkpt>
      <trkpt lat="49.32301" lon="1.12615">
        <ele>83</ele>
        <time>2024-10-15T12:43:04.914+00:00</time>
      </trkpt>
      <trkpt lat="49.32299" lon="1.12608">
        <ele>83</ele>
        <time>2024-10-15T12:43:09.293+00:00</time>
      </trkpt>
      <trkpt lat="49.32296" lon="1.126">
        <ele>83</ele>
        <time>2024-10-15T12:43:13.624+00:00</time>
      </trkpt>
      <trkpt lat="49.32294" lon="1.12593">
        <ele>82</ele>
        <time>2024-10-15T12:43:17.986+00:00</time>
      </trkpt>
      <trkpt lat="49.32291" lon="1.12586">
        <ele>81</ele>
        <time>2024-10-15T12:43:22.450+00:00</time>
      </trkpt>
      <trkpt lat="49.32289" lon="1.12577">
        <ele>81</ele>
        <time>2024-10-15T12:43:26.888+00:00</time>
      </trkpt>
      <trkpt lat="49.32286" lon="1.12571">
        <ele>81</ele>
        <time>2024-10-15T12:43:31.351+00:00</time>
      </trkpt>
      <trkpt lat="49.32283" lon="1.12563">
        <ele>80</ele>
        <time>2024-10-15T12:43:36.282+00:00</time>
      </trkpt>
      <trkpt lat="49.3228" lon="1.12555">
        <ele>80</ele>
        <time>2024-10-15T12:43:41.093+00:00</time>
      </trkpt>
      <trkpt lat="49.32279" lon="1.12548">
        <ele>80</ele>
        <time>2024-10-15T12:43:45.425+00:00</time>
      </trkpt>
      <trkpt lat="49.32275" lon="1.12543">
        <ele>80</ele>
        <time>2024-10-15T12:43:50.210+00:00</time>
      </trkpt>
      <trkpt lat="49.32271" lon="1.12535">
        <ele>79</ele>
        <time>2024-10-15T12:43:55.152+00:00</time>
      </trkpt>
      <trkpt lat="49.32268" lon="1.12528">
        <ele>79</ele>
        <time>2024-10-15T12:44:00.024+00:00</time>
      </trkpt>
      <trkpt lat="49.32266" lon="1.12523">
        <ele>79</ele>
        <time>2024-10-15T12:44:04.106+00:00</time>
      </trkpt>
      <trkpt lat="49.32263" lon="1.12517">
        <ele>77</ele>
        <time>2024-10-15T12:44:08.212+00:00</time>
      </trkpt>
      <trkpt lat="49.32259" lon="1.12512">
        <ele>76</ele>
        <time>2024-10-15T12:44:12.439+00:00</time>
      </trkpt>
      <trkpt lat="49.32256" lon="1.12506">
        <ele>76</ele>
        <time>2024-10-15T12:44:16.444+00:00</time>
      </trkpt>
      <trkpt lat="49.32253" lon="1.12499">
        <ele>76</ele>
        <time>2024-10-15T12:44:20.851+00:00</time>
      </trkpt>
      <trkpt lat="49.32252" lon="1.12493">
        <ele>76</ele>
        <time>2024-10-15T12:44:25.009+00:00</time>
      </trkpt>
      <trkpt lat="49.3225" lon="1.12488">
        <ele>76</ele>
        <time>2024-10-15T12:44:29.465+00:00</time>
      </trkpt>
      <trkpt lat="49.32248" lon="1.12481">
        <ele>76</ele>
        <time>2024-10-15T12:44:33.987+00:00</time>
      </trkpt>
      <trkpt lat="49.32246" lon="1.12475">
        <ele>76</ele>
        <time>2024-10-15T12:44:38.409+00:00</time>
      </trkpt>
      <trkpt lat="49.32244" lon="1.12468">
        <ele>76</ele>
        <time>2024-10-15T12:44:42.936+00:00</time>
      </trkpt>
      <trkpt lat="49.32242" lon="1.12462">
        <ele>76</ele>
        <time>2024-10-15T12:44:47.307+00:00</time>
      </trkpt>
      <trkpt lat="49.3224" lon="1.12455">
        <ele>75</ele>
        <time>2024-10-15T12:44:51.829+00:00</time>
      </trkpt>
      <trkpt lat="49.32239" lon="1.12447">
        <ele>75</ele>
        <time>2024-10-15T12:44:56.089+00:00</time>
      </trkpt>
      <trkpt lat="49.32239" lon="1.1244">
        <ele>75</ele>
        <time>2024-10-15T12:45:00.425+00:00</time>
      </trkpt>
      <trkpt lat="49.32239" lon="1.12433">
        <ele>75</ele>
        <time>2024-10-15T12:45:04.867+00:00</time>
      </trkpt>
      <trkpt lat="49.32233" lon="1.12429">
        <ele>74</ele>
        <time>2024-10-15T12:45:09.244+00:00</time>
      </trkpt>
      <trkpt lat="49.32227" lon="1.1243">
        <ele>74</ele>
        <time>2024-10-15T12:45:13.462+00:00</time>
      </trkpt>
      <trkpt lat="49.32224" lon="1.12433">
        <ele>75</ele>
        <time>2024-10-15T12:45:17.601+00:00</time>
      </trkpt>
      <trkpt lat="49.3222" lon="1.12436">
        <ele>75</ele>
        <time>2024-10-15T12:45:21.946+00:00</time>
      </trkpt>
      <trkpt lat="49.32215" lon="1.12436">
        <ele>75</ele>
        <time>2024-10-15T12:45:26.329+00:00</time>
      </trkpt>
      <trkpt lat="49.3221" lon="1.12437">
        <ele>75</ele>
        <time>2024-10-15T12:45:30.748+00:00</time>
      </trkpt>
      <trkpt lat="49.32206" lon="1.12441">
        <ele>73</ele>
        <time>2024-10-15T12:45:35.134+00:00</time>
      </trkpt>
      <trkpt lat="49.32201" lon="1.12443">
        <ele>73</ele>
        <time>2024-10-15T12:45:39.373+00:00</time>
      </trkpt>
      <trkpt lat="49.32197" lon="1.12445">
        <ele>73</ele>
        <time>2024-10-15T12:45:43.435+00:00</time>
      </trkpt>
      <trkpt lat="49.32193" lon="1.12448">
        <ele>73</ele>
        <time>2024-10-15T12:45:47.492+00:00</time>
      </trkpt>
      <trkpt lat="49.32189" lon="1.12451">
        <ele>73</ele>
        <time>2024-10-15T12:45:51.633+00:00</time>
      </trkpt>
      <trkpt lat="49.32185" lon="1.12456">
        <ele>73</ele>
        <time>2024-10-15T12:45:56.224+00:00</time>
      </trkpt>
      <trkpt lat="49.32183" lon="1.12462">
        <ele>72</ele>
        <time>2024-10-15T12:46:00.768+00:00</time>
      </trkpt>
      <trkpt lat="49.32179" lon="1.12466">
        <ele>66</ele>
        <time>2024-10-15T12:46:05.270+00:00</time>
      </trkpt>
      <trkpt lat="49.32175" lon="1.12468">
        <ele>66</ele>
        <time>2024-10-15T12:46:09.670+00:00</time>
      </trkpt>
      <trkpt lat="49.3217" lon="1.12464">
        <ele>66</ele>
        <time>2024-10-15T12:46:14.444+00:00</time>
      </trkpt>
      <trkpt lat="49.32166" lon="1.12461">
        <ele>66</ele>
        <time>2024-10-15T12:46:18.742+00:00</time>
      </trkpt>
      <trkpt lat="49.32162" lon="1.12454">
        <ele>68</ele>
        <time>2024-10-15T12:46:23.188+00:00</time>
      </trkpt>
      <trkpt lat="49.32161" lon="1.12446">
        <ele>68</ele>
        <time>2024-10-15T12:46:27.294+00:00</time>
      </trkpt>
      <trkpt lat="49.32157" lon="1.12441">
        <ele>68</ele>
        <time>2024-10-15T12:46:31.772+00:00</time>
      </trkpt>
      <trkpt lat="49.32153" lon="1.12437">
        <ele>68</ele>
        <time>2024-10-15T12:46:35.806+00:00</time>
      </trkpt>
      <trkpt lat="49.3215" lon="1.12431">
        <ele>61</ele>
        <time>2024-10-15T12:46:39.968+00:00</time>
      </trkpt>
      <trkpt lat="49.32147" lon="1.12425">
        <ele>62</ele>
        <time>2024-10-15T12:46:44.473+00:00</time>
      </trkpt>
      <trkpt lat="49.32145" lon="1.12418">
        <ele>62</ele>
        <time>2024-10-15T12:46:48.545+00:00</time>
      </trkpt>
      <trkpt lat="49.32143" lon="1.12411">
        <ele>62</ele>
        <time>2024-10-15T12:46:52.895+00:00</time>
      </trkpt>
      <trkpt lat="49.32141" lon="1.12403">
        <ele>62</ele>
        <time>2024-10-15T12:46:57.463+00:00</time>
      </trkpt>
      <trkpt lat="49.3214" lon="1.12394">
        <ele>62</ele>
        <time>2024-10-15T12:47:02.108+00:00</time>
      </trkpt>
      <trkpt lat="49.3214" lon="1.12388">
        <ele>62</ele>
        <time>2024-10-15T12:47:06.125+00:00</time>
      </trkpt>
      <trkpt lat="49.32138" lon="1.12376">
        <ele>62</ele>
        <time>2024-10-15T12:47:24.127+00:00</time>
      </trkpt>
      <trkpt lat="49.3214" lon="1.12367">
        <ele>60</ele>
        <time>2024-10-15T12:47:28.461+00:00</time>
      </trkpt>
      <trkpt lat="49.3214" lon="1.1236">
        <ele>60</ele>
        <time>2024-10-15T12:47:32.457+00:00</time>
      </trkpt>
      <trkpt lat="49.3214" lon="1.12352">
        <ele>60</ele>
        <time>2024-10-15T12:47:37.458+00:00</time>
      </trkpt>
      <trkpt lat="49.32141" lon="1.12345">
        <ele>57</ele>
        <time>2024-10-15T12:47:41.970+00:00</time>
      </trkpt>
      <trkpt lat="49.32143" lon="1.12337">
        <ele>57</ele>
        <time>2024-10-15T12:47:46.410+00:00</time>
      </trkpt>
      <trkpt lat="49.32143" lon="1.12331">
        <ele>57</ele>
        <time>2024-10-15T12:47:50.447+00:00</time>
      </trkpt>
      <trkpt lat="49.32144" lon="1.12324">
        <ele>57</ele>
        <time>2024-10-15T12:47:54.592+00:00</time>
      </trkpt>
      <trkpt lat="49.32143" lon="1.12319">
        <ele>53</ele>
        <time>2024-10-15T12:47:59.025+00:00</time>
      </trkpt>
      <trkpt lat="49.32139" lon="1.12306">
        <ele>53</ele>
        <time>2024-10-15T12:48:26.471+00:00</time>
      </trkpt>
      <trkpt lat="49.32137" lon="1.12307">
        <ele>53</ele>
        <time>2024-10-15T12:48:30.812+00:00</time>
      </trkpt>
      <trkpt lat="49.32131" lon="1.12313">
        <ele>53</ele>
        <time>2024-10-15T12:48:35.252+00:00</time>
      </trkpt>
      <trkpt lat="49.32128" lon="1.12316">
        <ele>53</ele>
        <time>2024-10-15T12:48:39.526+00:00</time>
      </trkpt>
      <trkpt lat="49.32125" lon="1.12322">
        <ele>49</ele>
        <time>2024-10-15T12:48:43.752+00:00</time>
      </trkpt>
      <trkpt lat="49.32121" lon="1.12327">
        <ele>49</ele>
        <time>2024-10-15T12:48:48.249+00:00</time>
      </trkpt>
      <trkpt lat="49.32119" lon="1.12332">
        <ele>49</ele>
        <time>2024-10-15T12:48:52.450+00:00</time>
      </trkpt>
      <trkpt lat="49.32117" lon="1.12336">
        <ele>49</ele>
        <time>2024-10-15T12:48:56.870+00:00</time>
      </trkpt>
      <trkpt lat="49.32116" lon="1.12342">
        <ele>49</ele>
        <time>2024-10-15T12:49:01.348+00:00</time>
      </trkpt>
      <trkpt lat="49.32116" lon="1.12339">
        <ele>49</ele>
        <time>2024-10-15T12:49:30.449+00:00</time>
      </trkpt>
      <trkpt lat="49.32117" lon="1.12338">
        <ele>49</ele>
        <time>2024-10-15T12:49:35.436+00:00</time>
      </trkpt>
      <trkpt lat="49.32118" lon="1.12335">
        <ele>49</ele>
        <time>2024-10-15T12:49:39.452+00:00</time>
      </trkpt>
      <trkpt lat="49.32119" lon="1.12333">
        <ele>49</ele>
        <time>2024-10-15T12:49:43.527+00:00</time>
      </trkpt>
      <trkpt lat="49.32122" lon="1.12326">
        <ele>49</ele>
        <time>2024-10-15T12:49:47.930+00:00</time>
      </trkpt>
      <trkpt lat="49.32124" lon="1.12321">
        <ele>49</ele>
        <time>2024-10-15T12:49:52.423+00:00</time>
      </trkpt>
      <trkpt lat="49.32128" lon="1.12317">
        <ele>53</ele>
        <time>2024-10-15T12:49:56.947+00:00</time>
      </trkpt>
      <trkpt lat="49.32131" lon="1.12314">
        <ele>53</ele>
        <time>2024-10-15T12:50:01.433+00:00</time>
      </trkpt>
      <trkpt lat="49.32134" lon="1.1231">
        <ele>53</ele>
        <time>2024-10-15T12:50:05.452+00:00</time>
      </trkpt>
      <trkpt lat="49.32137" lon="1.12306">
        <ele>53</ele>
        <time>2024-10-15T12:50:10.031+00:00</time>
      </trkpt>
      <trkpt lat="49.3214" lon="1.12303">
        <ele>53</ele>
        <time>2024-10-15T12:50:14.125+00:00</time>
      </trkpt>
      <trkpt lat="49.32144" lon="1.12306">
        <ele>53</ele>
        <time>2024-10-15T12:50:18.805+00:00</time>
      </trkpt>
      <trkpt lat="49.32146" lon="1.12311">
        <ele>53</ele>
        <time>2024-10-15T12:50:22.845+00:00</time>
      </trkpt>
      <trkpt lat="49.3215" lon="1.12313">
        <ele>53</ele>
        <time>2024-10-15T12:50:26.885+00:00</time>
      </trkpt>
      <trkpt lat="49.32155" lon="1.1231">
        <ele>58</ele>
        <time>2024-10-15T12:50:31.285+00:00</time>
      </trkpt>
      <trkpt lat="49.32158" lon="1.12307">
        <ele>58</ele>
        <time>2024-10-15T12:50:35.768+00:00</time>
      </trkpt>
      <trkpt lat="49.32163" lon="1.12304">
        <ele>58</ele>
        <time>2024-10-15T12:50:40.208+00:00</time>
      </trkpt>
      <trkpt lat="49.32167" lon="1.12301">
        <ele>58</ele>
        <time>2024-10-15T12:50:44.691+00:00</time>
      </trkpt>
      <trkpt lat="49.32172" lon="1.12299">
        <ele>58</ele>
        <time>2024-10-15T12:50:49.310+00:00</time>
      </trkpt>
      <trkpt lat="49.32178" lon="1.12299">
        <ele>58</ele>
        <time>2024-10-15T12:50:53.971+00:00</time>
      </trkpt>
      <trkpt lat="49.32182" lon="1.12298">
        <ele>62</ele>
        <time>2024-10-15T12:50:58.463+00:00</time>
      </trkpt>
      <trkpt lat="49.32186" lon="1.12298">
        <ele>62</ele>
        <time>2024-10-15T12:51:02.834+00:00</time>
      </trkpt>
      <trkpt lat="49.3219" lon="1.12297">
        <ele>62</ele>
        <time>2024-10-15T12:51:07.232+00:00</time>
      </trkpt>
      <trkpt lat="49.32193" lon="1.12294">
        <ele>62</ele>
        <time>2024-10-15T12:51:11.441+00:00</time>
      </trkpt>
      <trkpt lat="49.32196" lon="1.12291">
        <ele>57</ele>
        <time>2024-10-15T12:51:15.926+00:00</time>
      </trkpt>
      <trkpt lat="49.32201" lon="1.12292">
        <ele>62</ele>
        <time>2024-10-15T12:51:20.327+00:00</time>
      </trkpt>
      <trkpt lat="49.32205" lon="1.12292">
        <ele>62</ele>
        <time>2024-10-15T12:51:24.624+00:00</time>
      </trkpt>
      <trkpt lat="49.3221" lon="1.12289">
        <ele>59</ele>
        <time>2024-10-15T12:51:29.365+00:00</time>
      </trkpt>
      <trkpt lat="49.32213" lon="1.12287">
        <ele>59</ele>
        <time>2024-10-15T12:51:33.439+00:00</time>
      </trkpt>
      <trkpt lat="49.32222" lon="1.12282">
        <ele>59</ele>
        <time>2024-10-15T12:51:51.436+00:00</time>
      </trkpt>
      <trkpt lat="49.32224" lon="1.12282">
        <ele>59</ele>
        <time>2024-10-15T12:51:55.668+00:00</time>
      </trkpt>
      <trkpt lat="49.32229" lon="1.12277">
        <ele>59</ele>
        <time>2024-10-15T12:52:00.083+00:00</time>
      </trkpt>
      <trkpt lat="49.32235" lon="1.12276">
        <ele>59</ele>
        <time>2024-10-15T12:52:04.451+00:00</time>
      </trkpt>
      <trkpt lat="49.3224" lon="1.12272">
        <ele>60</ele>
        <time>2024-10-15T12:52:09.293+00:00</time>
      </trkpt>
      <trkpt lat="49.32246" lon="1.12271">
        <ele>60</ele>
        <time>2024-10-15T12:52:13.727+00:00</time>
      </trkpt>
      <trkpt lat="49.32251" lon="1.12269">
        <ele>60</ele>
        <time>2024-10-15T12:52:17.931+00:00</time>
      </trkpt>
      <trkpt lat="49.32256" lon="1.12274">
        <ele>60</ele>
        <time>2024-10-15T12:52:21.946+00:00</time>
      </trkpt>
      <trkpt lat="49.32262" lon="1.12278">
        <ele>60</ele>
        <time>2024-10-15T12:52:26.348+00:00</time>
      </trkpt>
      <trkpt lat="49.32266" lon="1.12284">
        <ele>64</ele>
        <time>2024-10-15T12:52:30.844+00:00</time>
      </trkpt>
      <trkpt lat="49.32271" lon="1.12287">
        <ele>64</ele>
        <time>2024-10-15T12:52:35.187+00:00</time>
      </trkpt>
      <trkpt lat="49.32276" lon="1.12292">
        <ele>64</ele>
        <time>2024-10-15T12:52:39.591+00:00</time>
      </trkpt>
      <trkpt lat="49.32281" lon="1.12294">
        <ele>66</ele>
        <time>2024-10-15T12:52:43.985+00:00</time>
      </trkpt>
      <trkpt lat="49.32286" lon="1.12297">
        <ele>66</ele>
        <time>2024-10-15T12:52:48.460+00:00</time>
      </trkpt>
      <trkpt lat="49.32291" lon="1.12295">
        <ele>66</ele>
        <time>2024-10-15T12:52:52.953+00:00</time>
      </trkpt>
      <trkpt lat="49.32293" lon="1.1229">
        <ele>69</ele>
        <time>2024-10-15T12:52:57.172+00:00</time>
      </trkpt>
      <trkpt lat="49.32293" lon="1.12284">
        <ele>69</ele>
        <time>2024-10-15T12:53:01.460+00:00</time>
      </trkpt>
      <trkpt lat="49.32291" lon="1.12276">
        <ele>64</ele>
        <time>2024-10-15T12:53:06.332+00:00</time>
      </trkpt>
      <trkpt lat="49.32289" lon="1.12268">
        <ele>64</ele>
        <time>2024-10-15T12:53:11.233+00:00</time>
      </trkpt>
      <trkpt lat="49.32287" lon="1.1226">
        <ele>63</ele>
        <time>2024-10-15T12:53:15.625+00:00</time>
      </trkpt>
      <trkpt lat="49.32284" lon="1.12254">
        <ele>63</ele>
        <time>2024-10-15T12:53:19.969+00:00</time>
      </trkpt>
      <trkpt lat="49.32281" lon="1.12248">
        <ele>63</ele>
        <time>2024-10-15T12:53:24.440+00:00</time>
      </trkpt>
      <trkpt lat="49.32278" lon="1.12242">
        <ele>63</ele>
        <time>2024-10-15T12:53:29.440+00:00</time>
      </trkpt>
      <trkpt lat="49.32274" lon="1.12238">
        <ele>63</ele>
        <time>2024-10-15T12:53:34.331+00:00</time>
      </trkpt>
      <trkpt lat="49.32271" lon="1.12235">
        <ele>63</ele>
        <time>2024-10-15T12:53:38.329+00:00</time>
      </trkpt>
      <trkpt lat="49.32267" lon="1.12229">
        <ele>63</ele>
        <time>2024-10-15T12:53:42.845+00:00</time>
      </trkpt>
      <trkpt lat="49.32264" lon="1.12226">
        <ele>56</ele>
        <time>2024-10-15T12:53:47.452+00:00</time>
      </trkpt>
      <trkpt lat="49.32259" lon="1.12221">
        <ele>56</ele>
        <time>2024-10-15T12:53:52.108+00:00</time>
      </trkpt>
      <trkpt lat="49.32254" lon="1.12216">
        <ele>56</ele>
        <time>2024-10-15T12:53:56.307+00:00</time>
      </trkpt>
      <trkpt lat="49.3225" lon="1.12212">
        <ele>56</ele>
        <time>2024-10-15T12:54:00.791+00:00</time>
      </trkpt>
      <trkpt lat="49.32246" lon="1.12208">
        <ele>57</ele>
        <time>2024-10-15T12:54:05.123+00:00</time>
      </trkpt>
      <trkpt lat="49.32242" lon="1.12204">
        <ele>57</ele>
        <time>2024-10-15T12:54:09.450+00:00</time>
      </trkpt>
      <trkpt lat="49.32237" lon="1.12199">
        <ele>57</ele>
        <time>2024-10-15T12:54:13.906+00:00</time>
      </trkpt>
      <trkpt lat="49.32233" lon="1.12195">
        <ele>53</ele>
        <time>2024-10-15T12:54:18.430+00:00</time>
      </trkpt>
      <trkpt lat="49.32229" lon="1.12192">
        <ele>53</ele>
        <time>2024-10-15T12:54:22.706+00:00</time>
      </trkpt>
      <trkpt lat="49.32224" lon="1.1219">
        <ele>53</ele>
        <time>2024-10-15T12:54:27.107+00:00</time>
      </trkpt>
      <trkpt lat="49.3222" lon="1.12187">
        <ele>53</ele>
        <time>2024-10-15T12:54:31.453+00:00</time>
      </trkpt>
      <trkpt lat="49.32215" lon="1.12184">
        <ele>53</ele>
        <time>2024-10-15T12:54:35.872+00:00</time>
      </trkpt>
      <trkpt lat="49.3221" lon="1.12182">
        <ele>53</ele>
        <time>2024-10-15T12:54:40.211+00:00</time>
      </trkpt>
      <trkpt lat="49.32205" lon="1.1218">
        <ele>51</ele>
        <time>2024-10-15T12:54:44.709+00:00</time>
      </trkpt>
      <trkpt lat="49.32201" lon="1.1218">
        <ele>51</ele>
        <time>2024-10-15T12:54:49.130+00:00</time>
      </trkpt>
      <trkpt lat="49.32196" lon="1.1218">
        <ele>51</ele>
        <time>2024-10-15T12:54:53.456+00:00</time>
      </trkpt>
      <trkpt lat="49.3219" lon="1.12181">
        <ele>50</ele>
        <time>2024-10-15T12:54:57.869+00:00</time>
      </trkpt>
      <trkpt lat="49.32184" lon="1.12181">
        <ele>50</ele>
        <time>2024-10-15T12:55:02.290+00:00</time>
      </trkpt>
      <trkpt lat="49.32179" lon="1.1218">
        <ele>46</ele>
        <time>2024-10-15T12:55:06.754+00:00</time>
      </trkpt>
      <trkpt lat="49.32174" lon="1.12181">
        <ele>45</ele>
        <time>2024-10-15T12:55:11.251+00:00</time>
      </trkpt>
      <trkpt lat="49.32169" lon="1.12182">
        <ele>45</ele>
        <time>2024-10-15T12:55:15.805+00:00</time>
      </trkpt>
      <trkpt lat="49.32163" lon="1.12183">
        <ele>45</ele>
        <time>2024-10-15T12:55:20.148+00:00</time>
      </trkpt>
      <trkpt lat="49.32158" lon="1.12184">
        <ele>45</ele>
        <time>2024-10-15T12:55:24.505+00:00</time>
      </trkpt>
      <trkpt lat="49.32152" lon="1.12185">
        <ele>40</ele>
        <time>2024-10-15T12:55:29.210+00:00</time>
      </trkpt>
      <trkpt lat="49.32148" lon="1.12184">
        <ele>40</ele>
        <time>2024-10-15T12:55:33.610+00:00</time>
      </trkpt>
      <trkpt lat="49.32143" lon="1.12183">
        <ele>40</ele>
        <time>2024-10-15T12:55:38.034+00:00</time>
      </trkpt>
      <trkpt lat="49.32138" lon="1.12184">
        <ele>40</ele>
        <time>2024-10-15T12:55:42.448+00:00</time>
      </trkpt>
      <trkpt lat="49.32132" lon="1.12184">
        <ele>40</ele>
        <time>2024-10-15T12:55:46.876+00:00</time>
      </trkpt>
      <trkpt lat="49.32127" lon="1.12183">
        <ele>40</ele>
        <time>2024-10-15T12:55:51.167+00:00</time>
      </trkpt>
      <trkpt lat="49.32123" lon="1.12183">
        <ele>37</ele>
        <time>2024-10-15T12:55:55.421+00:00</time>
      </trkpt>
      <trkpt lat="49.32118" lon="1.12185">
        <ele>37</ele>
        <time>2024-10-15T12:55:59.866+00:00</time>
      </trkpt>
      <trkpt lat="49.32117" lon="1.12186">
        <ele>37</ele>
        <time>2024-10-15T12:56:04.349+00:00</time>
      </trkpt>
      <trkpt lat="49.32113" lon="1.12191">
        <ele>37</ele>
        <time>2024-10-15T12:56:08.672+00:00</time>
      </trkpt>
      <trkpt lat="49.32107" lon="1.12191">
        <ele>37</ele>
        <time>2024-10-15T12:56:13.265+00:00</time>
      </trkpt>
      <trkpt lat="49.321" lon="1.12188">
        <ele>37</ele>
        <time>2024-10-15T12:56:17.608+00:00</time>
      </trkpt>
      <trkpt lat="49.32095" lon="1.12189">
        <ele>34</ele>
        <time>2024-10-15T12:56:22.076+00:00</time>
      </trkpt>
      <trkpt lat="49.3209" lon="1.12193">
        <ele>34</ele>
        <time>2024-10-15T12:56:26.441+00:00</time>
      </trkpt>
      <trkpt lat="49.32085" lon="1.12196">
        <ele>34</ele>
        <time>2024-10-15T12:56:30.871+00:00</time>
      </trkpt>
      <trkpt lat="49.32079" lon="1.122">
        <ele>34</ele>
        <time>2024-10-15T12:56:35.394+00:00</time>
      </trkpt>
      <trkpt lat="49.32075" lon="1.12202">
        <ele>34</ele>
        <time>2024-10-15T12:56:39.460+00:00</time>
      </trkpt>
      <trkpt lat="49.32071" lon="1.12204">
        <ele>34</ele>
        <time>2024-10-15T12:56:43.565+00:00</time>
      </trkpt>
      <trkpt lat="49.32067" lon="1.12209">
        <ele>30</ele>
        <time>2024-10-15T12:56:48.167+00:00</time>
      </trkpt>
      <trkpt lat="49.32062" lon="1.12212">
        <ele>30</ele>
        <time>2024-10-15T12:56:52.648+00:00</time>
      </trkpt>
      <trkpt lat="49.32057" lon="1.12217">
        <ele>30</ele>
        <time>2024-10-15T12:56:57.108+00:00</time>
      </trkpt>
      <trkpt lat="49.32052" lon="1.12221">
        <ele>30</ele>
        <time>2024-10-15T12:57:01.461+00:00</time>
      </trkpt>
      <trkpt lat="49.32048" lon="1.12224">
        <ele>30</ele>
        <time>2024-10-15T12:57:05.464+00:00</time>
      </trkpt>
      <trkpt lat="49.32044" lon="1.12229">
        <ele>30</ele>
        <time>2024-10-15T12:57:09.568+00:00</time>
      </trkpt>
      <trkpt lat="49.32039" lon="1.12234">
        <ele>27</ele>
        <time>2024-10-15T12:57:13.889+00:00</time>
      </trkpt>
      <trkpt lat="49.32035" lon="1.12239">
        <ele>27</ele>
        <time>2024-10-15T12:57:18.244+00:00</time>
      </trkpt>
      <trkpt lat="49.32033" lon="1.12243">
        <ele>27</ele>
        <time>2024-10-15T12:57:22.450+00:00</time>
      </trkpt>
      <trkpt lat="49.32029" lon="1.12247">
        <ele>27</ele>
        <time>2024-10-15T12:57:26.670+00:00</time>
      </trkpt>
      <trkpt lat="49.32026" lon="1.12252">
        <ele>27</ele>
        <time>2024-10-15T12:57:30.930+00:00</time>
      </trkpt>
      <trkpt lat="49.32022" lon="1.12256">
        <ele>27</ele>
        <time>2024-10-15T12:57:35.229+00:00</time>
      </trkpt>
      <trkpt lat="49.32021" lon="1.12265">
        <ele>27</ele>
        <time>2024-10-15T12:57:39.511+00:00</time>
      </trkpt>
      <trkpt lat="49.32022" lon="1.1227">
        <ele>27</ele>
        <time>2024-10-15T12:57:43.808+00:00</time>
      </trkpt>
      <trkpt lat="49.32021" lon="1.12279">
        <ele>27</ele>
        <time>2024-10-15T12:57:48.369+00:00</time>
      </trkpt>
      <trkpt lat="49.3202" lon="1.12286">
        <ele>27</ele>
        <time>2024-10-15T12:57:52.391+00:00</time>
      </trkpt>
      <trkpt lat="49.3202" lon="1.12294">
        <ele>27</ele>
        <time>2024-10-15T12:57:56.909+00:00</time>
      </trkpt>
      <trkpt lat="49.32019" lon="1.12303">
        <ele>27</ele>
        <time>2024-10-15T12:58:01.432+00:00</time>
      </trkpt>
      <trkpt lat="49.32017" lon="1.1231">
        <ele>27</ele>
        <time>2024-10-15T12:58:05.464+00:00</time>
      </trkpt>
      <trkpt lat="49.32016" lon="1.12317">
        <ele>27</ele>
        <time>2024-10-15T12:58:09.844+00:00</time>
      </trkpt>
      <trkpt lat="49.32016" lon="1.12325">
        <ele>27</ele>
        <time>2024-10-15T12:58:14.209+00:00</time>
      </trkpt>
      <trkpt lat="49.32015" lon="1.12332">
        <ele>27</ele>
        <time>2024-10-15T12:58:18.523+00:00</time>
      </trkpt>
      <trkpt lat="49.32014" lon="1.1234">
        <ele>27</ele>
        <time>2024-10-15T12:58:22.947+00:00</time>
      </trkpt>
      <trkpt lat="49.32015" lon="1.12348">
        <ele>27</ele>
        <time>2024-10-15T12:58:27.232+00:00</time>
      </trkpt>
      <trkpt lat="49.32014" lon="1.12354">
        <ele>22</ele>
        <time>2024-10-15T12:58:31.671+00:00</time>
      </trkpt>
      <trkpt lat="49.32012" lon="1.12362">
        <ele>22</ele>
        <time>2024-10-15T12:58:35.744+00:00</time>
      </trkpt>
      <trkpt lat="49.32011" lon="1.1237">
        <ele>22</ele>
        <time>2024-10-15T12:58:40.407+00:00</time>
      </trkpt>
      <trkpt lat="49.32011" lon="1.12378">
        <ele>21</ele>
        <time>2024-10-15T12:58:44.932+00:00</time>
      </trkpt>
      <trkpt lat="49.32011" lon="1.12387">
        <ele>21</ele>
        <time>2024-10-15T12:58:49.465+00:00</time>
      </trkpt>
      <trkpt lat="49.32011" lon="1.12395">
        <ele>21</ele>
        <time>2024-10-15T12:58:53.461+00:00</time>
      </trkpt>
      <trkpt lat="49.32011" lon="1.12403">
        <ele>21</ele>
        <time>2024-10-15T12:58:57.449+00:00</time>
      </trkpt>
      <trkpt lat="49.32011" lon="1.12412">
        <ele>21</ele>
        <time>2024-10-15T12:59:01.849+00:00</time>
      </trkpt>
      <trkpt lat="49.3201" lon="1.12419">
        <ele>21</ele>
        <time>2024-10-15T12:59:06.155+00:00</time>
      </trkpt>
      <trkpt lat="49.32009" lon="1.12426">
        <ele>21</ele>
        <time>2024-10-15T12:59:10.290+00:00</time>
      </trkpt>
      <trkpt lat="49.32008" lon="1.12434">
        <ele>20</ele>
        <time>2024-10-15T12:59:14.736+00:00</time>
      </trkpt>
      <trkpt lat="49.32007" lon="1.12442">
        <ele>20</ele>
        <time>2024-10-15T12:59:19.071+00:00</time>
      </trkpt>
      <trkpt lat="49.32006" lon="1.1245">
        <ele>20</ele>
        <time>2024-10-15T12:59:23.055+00:00</time>
      </trkpt>
      <trkpt lat="49.32006" lon="1.12457">
        <ele>20</ele>
        <time>2024-10-15T12:59:27.461+00:00</time>
      </trkpt>
      <trkpt lat="49.32005" lon="1.12463">
        <ele>20</ele>
        <time>2024-10-15T12:59:31.992+00:00</time>
      </trkpt>
      <trkpt lat="49.32004" lon="1.12468">
        <ele>20</ele>
        <time>2024-10-15T12:59:36.111+00:00</time>
      </trkpt>
      <trkpt lat="49.32002" lon="1.12476">
        <ele>20</ele>
        <time>2024-10-15T12:59:40.458+00:00</time>
      </trkpt>
      <trkpt lat="49.32002" lon="1.12484">
        <ele>20</ele>
        <time>2024-10-15T12:59:45.086+00:00</time>
      </trkpt>
      <trkpt lat="49.32001" lon="1.12491">
        <ele>20</ele>
        <time>2024-10-15T12:59:49.090+00:00</time>
      </trkpt>
      <trkpt lat="49.32002" lon="1.12498">
        <ele>20</ele>
        <time>2024-10-15T12:59:53.113+00:00</time>
      </trkpt>
      <trkpt lat="49.32002" lon="1.12506">
        <ele>20</ele>
        <time>2024-10-15T12:59:57.707+00:00</time>
      </trkpt>
      <trkpt lat="49.32002" lon="1.12512">
        <ele>20</ele>
        <time>2024-10-15T13:00:01.723+00:00</time>
      </trkpt>
      <trkpt lat="49.32003" lon="1.1252">
        <ele>19</ele>
        <time>2024-10-15T13:00:05.951+00:00</time>
      </trkpt>
      <trkpt lat="49.32003" lon="1.12526">
        <ele>19</ele>
        <time>2024-10-15T13:00:10.020+00:00</time>
      </trkpt>
      <trkpt lat="49.32004" lon="1.12532">
        <ele>19</ele>
        <time>2024-10-15T13:00:14.104+00:00</time>
      </trkpt>
      <trkpt lat="49.32005" lon="1.12538">
        <ele>19</ele>
        <time>2024-10-15T13:00:18.188+00:00</time>
      </trkpt>
      <trkpt lat="49.32003" lon="1.12544">
        <ele>18</ele>
        <time>2024-10-15T13:00:22.371+00:00</time>
      </trkpt>
      <trkpt lat="49.32001" lon="1.12553">
        <ele>18</ele>
        <time>2024-10-15T13:00:26.408+00:00</time>
      </trkpt>
      <trkpt lat="49.32001" lon="1.1256">
        <ele>18</ele>
        <time>2024-10-15T13:00:30.483+00:00</time>
      </trkpt>
      <trkpt lat="49.31996" lon="1.12566">
        <ele>18</ele>
        <time>2024-10-15T13:00:35.051+00:00</time>
      </trkpt>
      <trkpt lat="49.31991" lon="1.1257">
        <ele>19</ele>
        <time>2024-10-15T13:00:39.425+00:00</time>
      </trkpt>
      <trkpt lat="49.31987" lon="1.12576">
        <ele>19</ele>
        <time>2024-10-15T13:00:43.951+00:00</time>
      </trkpt>
      <trkpt lat="49.31985" lon="1.12578">
        <ele>15</ele>
        <time>2024-10-15T13:00:48.026+00:00</time>
      </trkpt>
      <trkpt lat="49.31982" lon="1.1258">
        <ele>15</ele>
        <time>2024-10-15T13:00:52.072+00:00</time>
      </trkpt>
      <trkpt lat="49.31979" lon="1.12587">
        <ele>15</ele>
        <time>2024-10-15T13:00:56.458+00:00</time>
      </trkpt>
      <trkpt lat="49.31975" lon="1.12591">
        <ele>15</ele>
        <time>2024-10-15T13:01:01.083+00:00</time>
      </trkpt>
      <trkpt lat="49.31971" lon="1.12595">
        <ele>15</ele>
        <time>2024-10-15T13:01:05.090+00:00</time>
      </trkpt>
      <trkpt lat="49.31967" lon="1.12599">
        <ele>15</ele>
        <time>2024-10-15T13:01:09.447+00:00</time>
      </trkpt>
      <trkpt lat="49.31963" lon="1.12605">
        <ele>15</ele>
        <time>2024-10-15T13:01:13.986+00:00</time>
      </trkpt>
      <trkpt lat="49.31961" lon="1.12612">
        <ele>15</ele>
        <time>2024-10-15T13:01:18.430+00:00</time>
      </trkpt>
      <trkpt lat="49.31958" lon="1.12619">
        <ele>14</ele>
        <time>2024-10-15T13:01:23.232+00:00</time>
      </trkpt>
      <trkpt lat="49.31955" lon="1.12626">
        <ele>14</ele>
        <time>2024-10-15T13:01:27.887+00:00</time>
      </trkpt>
      <trkpt lat="49.3195" lon="1.12632">
        <ele>14</ele>
        <time>2024-10-15T13:01:32.228+00:00</time>
      </trkpt>
      <trkpt lat="49.31947" lon="1.12638">
        <ele>14</ele>
        <time>2024-10-15T13:01:36.610+00:00</time>
      </trkpt>
      <trkpt lat="49.31944" lon="1.12646">
        <ele>14</ele>
        <time>2024-10-15T13:01:41.015+00:00</time>
      </trkpt>
      <trkpt lat="49.31942" lon="1.12654">
        <ele>13</ele>
        <time>2024-10-15T13:01:45.450+00:00</time>
      </trkpt>
      <trkpt lat="49.31941" lon="1.1266">
        <ele>13</ele>
        <time>2024-10-15T13:01:50.092+00:00</time>
      </trkpt>
      <trkpt lat="49.3194" lon="1.12668">
        <ele>13</ele>
        <time>2024-10-15T13:01:54.567+00:00</time>
      </trkpt>
      <trkpt lat="49.31938" lon="1.12676">
        <ele>13</ele>
        <time>2024-10-15T13:01:59.148+00:00</time>
      </trkpt>
      <trkpt lat="49.31937" lon="1.12684">
        <ele>13</ele>
        <time>2024-10-15T13:02:03.252+00:00</time>
      </trkpt>
      <trkpt lat="49.31937" lon="1.12692">
        <ele>13</ele>
        <time>2024-10-15T13:02:07.449+00:00</time>
      </trkpt>
      <trkpt lat="49.31936" lon="1.12699">
        <ele>13</ele>
        <time>2024-10-15T13:02:11.617+00:00</time>
      </trkpt>
      <trkpt lat="49.31936" lon="1.12706">
        <ele>13</ele>
        <time>2024-10-15T13:02:15.773+00:00</time>
      </trkpt>
      <trkpt lat="49.31935" lon="1.12713">
        <ele>13</ele>
        <time>2024-10-15T13:02:20.296+00:00</time>
      </trkpt>
      <trkpt lat="49.31928" lon="1.12733">
        <ele>10</ele>
        <time>2024-10-15T13:02:38.467+00:00</time>
      </trkpt>
      <trkpt lat="49.31927" lon="1.12734">
        <ele>10</ele>
        <time>2024-10-15T13:02:43.458+00:00</time>
      </trkpt>
      <trkpt lat="49.31928" lon="1.12735">
        <ele>10</ele>
        <time>2024-10-15T13:02:47.992+00:00</time>
      </trkpt>
      <trkpt lat="49.31927" lon="1.12742">
        <ele>10</ele>
        <time>2024-10-15T13:02:52.094+00:00</time>
      </trkpt>
      <trkpt lat="49.31927" lon="1.1275">
        <ele>10</ele>
        <time>2024-10-15T13:02:56.152+00:00</time>
      </trkpt>
      <trkpt lat="49.31926" lon="1.12758">
        <ele>10</ele>
        <time>2024-10-15T13:03:00.695+00:00</time>
      </trkpt>
      <trkpt lat="49.31925" lon="1.12765">
        <ele>10</ele>
        <time>2024-10-15T13:03:04.732+00:00</time>
      </trkpt>
      <trkpt lat="49.31924" lon="1.12772">
        <ele>10</ele>
        <time>2024-10-15T13:03:08.745+00:00</time>
      </trkpt>
      <trkpt lat="49.31923" lon="1.12779">
        <ele>10</ele>
        <time>2024-10-15T13:03:13.286+00:00</time>
      </trkpt>
      <trkpt lat="49.31921" lon="1.12786">
        <ele>10</ele>
        <time>2024-10-15T13:03:17.287+00:00</time>
      </trkpt>
      <trkpt lat="49.3192" lon="1.12794">
        <ele>10</ele>
        <time>2024-10-15T13:03:21.908+00:00</time>
      </trkpt>
      <trkpt lat="49.31918" lon="1.12802">
        <ele>10</ele>
        <time>2024-10-15T13:03:25.964+00:00</time>
      </trkpt>
      <trkpt lat="49.31917" lon="1.1281">
        <ele>10</ele>
        <time>2024-10-15T13:03:30.082+00:00</time>
      </trkpt>
      <trkpt lat="49.31917" lon="1.12818">
        <ele>10</ele>
        <time>2024-10-15T13:03:34.052+00:00</time>
      </trkpt>
      <trkpt lat="49.31916" lon="1.12825">
        <ele>11</ele>
        <time>2024-10-15T13:03:38.111+00:00</time>
      </trkpt>
      <trkpt lat="49.31914" lon="1.12833">
        <ele>11</ele>
        <time>2024-10-15T13:03:42.646+00:00</time>
      </trkpt>
      <trkpt lat="49.31912" lon="1.1284">
        <ele>11</ele>
        <time>2024-10-15T13:03:47.167+00:00</time>
      </trkpt>
      <trkpt lat="49.3191" lon="1.12848">
        <ele>11</ele>
        <time>2024-10-15T13:03:51.707+00:00</time>
      </trkpt>
      <trkpt lat="49.31909" lon="1.12856">
        <ele>11</ele>
        <time>2024-10-15T13:03:56.267+00:00</time>
      </trkpt>
      <trkpt lat="49.31908" lon="1.12863">
        <ele>11</ele>
        <time>2024-10-15T13:04:00.318+00:00</time>
      </trkpt>
      <trkpt lat="49.31906" lon="1.12871">
        <ele>11</ele>
        <time>2024-10-15T13:04:04.810+00:00</time>
      </trkpt>
      <trkpt lat="49.31905" lon="1.12878">
        <ele>11</ele>
        <time>2024-10-15T13:04:08.815+00:00</time>
      </trkpt>
      <trkpt lat="49.31904" lon="1.12887">
        <ele>11</ele>
        <time>2024-10-15T13:04:13.469+00:00</time>
      </trkpt>
      <trkpt lat="49.31902" lon="1.12895">
        <ele>9</ele>
        <time>2024-10-15T13:04:18.016+00:00</time>
      </trkpt>
      <trkpt lat="49.31901" lon="1.12903">
        <ele>9</ele>
        <time>2024-10-15T13:04:22.471+00:00</time>
      </trkpt>
      <trkpt lat="49.31899" lon="1.1291">
        <ele>9</ele>
        <time>2024-10-15T13:04:26.651+00:00</time>
      </trkpt>
      <trkpt lat="49.31897" lon="1.12917">
        <ele>9</ele>
        <time>2024-10-15T13:04:30.793+00:00</time>
      </trkpt>
      <trkpt lat="49.31896" lon="1.12925">
        <ele>9</ele>
        <time>2024-10-15T13:04:35.370+00:00</time>
      </trkpt>
      <trkpt lat="49.31894" lon="1.12933">
        <ele>8</ele>
        <time>2024-10-15T13:04:39.332+00:00</time>
      </trkpt>
      <trkpt lat="49.31892" lon="1.1294">
        <ele>8</ele>
        <time>2024-10-15T13:04:43.374+00:00</time>
      </trkpt>
      <trkpt lat="49.31891" lon="1.12948">
        <ele>8</ele>
        <time>2024-10-15T13:04:47.986+00:00</time>
      </trkpt>
      <trkpt lat="49.3189" lon="1.12955">
        <ele>8</ele>
        <time>2024-10-15T13:04:52.461+00:00</time>
      </trkpt>
      <trkpt lat="49.31889" lon="1.12962">
        <ele>8</ele>
        <time>2024-10-15T13:04:56.646+00:00</time>
      </trkpt>
      <trkpt lat="49.31888" lon="1.12969">
        <ele>8</ele>
        <time>2024-10-15T13:05:00.768+00:00</time>
      </trkpt>
      <trkpt lat="49.31887" lon="1.12976">
        <ele>8</ele>
        <time>2024-10-15T13:05:04.805+00:00</time>
      </trkpt>
      <trkpt lat="49.31886" lon="1.12983">
        <ele>8</ele>
        <time>2024-10-15T13:05:08.808+00:00</time>
      </trkpt>
      <trkpt lat="49.31885" lon="1.12991">
        <ele>8</ele>
        <time>2024-10-15T13:05:13.450+00:00</time>
      </trkpt>
      <trkpt lat="49.31883" lon="1.12998">
        <ele>8</ele>
        <time>2024-10-15T13:05:18.087+00:00</time>
      </trkpt>
      <trkpt lat="49.31882" lon="1.13006">
        <ele>8</ele>
        <time>2024-10-15T13:05:22.620+00:00</time>
      </trkpt>
      <trkpt lat="49.3188" lon="1.13014">
        <ele>8</ele>
        <time>2024-10-15T13:05:26.727+00:00</time>
      </trkpt>
      <trkpt lat="49.31879" lon="1.13021">
        <ele>9</ele>
        <time>2024-10-15T13:05:30.766+00:00</time>
      </trkpt>
      <trkpt lat="49.31877" lon="1.13028">
        <ele>9</ele>
        <time>2024-10-15T13:05:35.127+00:00</time>
      </trkpt>
      <trkpt lat="49.31876" lon="1.13034">
        <ele>9</ele>
        <time>2024-10-15T13:05:39.130+00:00</time>
      </trkpt>
      <trkpt lat="49.31874" lon="1.13041">
        <ele>6</ele>
        <time>2024-10-15T13:05:43.292+00:00</time>
      </trkpt>
      <trkpt lat="49.31873" lon="1.13049">
        <ele>7</ele>
        <time>2024-10-15T13:05:47.732+00:00</time>
      </trkpt>
      <trkpt lat="49.31872" lon="1.13057">
        <ele>7</ele>
        <time>2024-10-15T13:05:51.754+00:00</time>
      </trkpt>
      <trkpt lat="49.31871" lon="1.13065">
        <ele>7</ele>
        <time>2024-10-15T13:05:55.921+00:00</time>
      </trkpt>
      <trkpt lat="49.3187" lon="1.13073">
        <ele>6</ele>
        <time>2024-10-15T13:06:00.386+00:00</time>
      </trkpt>
      <trkpt lat="49.31868" lon="1.13079">
        <ele>6</ele>
        <time>2024-10-15T13:06:04.449+00:00</time>
      </trkpt>
      <trkpt lat="49.31866" lon="1.13085">
        <ele>6</ele>
        <time>2024-10-15T13:06:08.570+00:00</time>
      </trkpt>
      <trkpt lat="49.31864" lon="1.13091">
        <ele>6</ele>
        <time>2024-10-15T13:06:12.711+00:00</time>
      </trkpt>
      <trkpt lat="49.31862" lon="1.13098">
        <ele>6</ele>
        <time>2024-10-15T13:06:16.764+00:00</time>
      </trkpt>
      <trkpt lat="49.31861" lon="1.13105">
        <ele>6</ele>
        <time>2024-10-15T13:06:20.944+00:00</time>
      </trkpt>
      <trkpt lat="49.31859" lon="1.13111">
        <ele>6</ele>
        <time>2024-10-15T13:06:25.025+00:00</time>
      </trkpt>
      <trkpt lat="49.31858" lon="1.13119">
        <ele>6</ele>
        <time>2024-10-15T13:06:29.743+00:00</time>
      </trkpt>
      <trkpt lat="49.31856" lon="1.13126">
        <ele>6</ele>
        <time>2024-10-15T13:06:34.308+00:00</time>
      </trkpt>
      <trkpt lat="49.31854" lon="1.13133">
        <ele>6</ele>
        <time>2024-10-15T13:06:38.455+00:00</time>
      </trkpt>
      <trkpt lat="49.31852" lon="1.13139">
        <ele>6</ele>
        <time>2024-10-15T13:06:42.459+00:00</time>
      </trkpt>
      <trkpt lat="49.3185" lon="1.13146">
        <ele>6</ele>
        <time>2024-10-15T13:06:47.188+00:00</time>
      </trkpt>
      <trkpt lat="49.31849" lon="1.13152">
        <ele>6</ele>
        <time>2024-10-15T13:06:51.176+00:00</time>
      </trkpt>
      <trkpt lat="49.31847" lon="1.13159">
        <ele>7</ele>
        <time>2024-10-15T13:06:55.354+00:00</time>
      </trkpt>
      <trkpt lat="49.31846" lon="1.13167">
        <ele>6</ele>
        <time>2024-10-15T13:06:59.911+00:00</time>
      </trkpt>
      <trkpt lat="49.31844" lon="1.13174">
        <ele>6</ele>
        <time>2024-10-15T13:07:03.910+00:00</time>
      </trkpt>
      <trkpt lat="49.31843" lon="1.13181">
        <ele>6</ele>
        <time>2024-10-15T13:07:08.445+00:00</time>
      </trkpt>
      <trkpt lat="49.3184" lon="1.13188">
        <ele>6</ele>
        <time>2024-10-15T13:07:12.644+00:00</time>
      </trkpt>
      <trkpt lat="49.31838" lon="1.13195">
        <ele>6</ele>
        <time>2024-10-15T13:07:16.810+00:00</time>
      </trkpt>
      <trkpt lat="49.31836" lon="1.13203">
        <ele>6</ele>
        <time>2024-10-15T13:07:20.947+00:00</time>
      </trkpt>
      <trkpt lat="49.31835" lon="1.13211">
        <ele>6</ele>
        <time>2024-10-15T13:07:25.029+00:00</time>
      </trkpt>
      <trkpt lat="49.31834" lon="1.13218">
        <ele>6</ele>
        <time>2024-10-15T13:07:29.453+00:00</time>
      </trkpt>
      <trkpt lat="49.31834" lon="1.13226">
        <ele>6</ele>
        <time>2024-10-15T13:07:33.483+00:00</time>
      </trkpt>
      <trkpt lat="49.31834" lon="1.13234">
        <ele>6</ele>
        <time>2024-10-15T13:07:37.711+00:00</time>
      </trkpt>
      <trkpt lat="49.31833" lon="1.13242">
        <ele>6</ele>
        <time>2024-10-15T13:07:41.776+00:00</time>
      </trkpt>
      <trkpt lat="49.31833" lon="1.13249">
        <ele>6</ele>
        <time>2024-10-15T13:07:45.912+00:00</time>
      </trkpt>
      <trkpt lat="49.31832" lon="1.13257">
        <ele>6</ele>
        <time>2024-10-15T13:07:50.054+00:00</time>
      </trkpt>
      <trkpt lat="49.31832" lon="1.13265">
        <ele>6</ele>
        <time>2024-10-15T13:07:54.708+00:00</time>
      </trkpt>
      <trkpt lat="49.31831" lon="1.13273">
        <ele>6</ele>
        <time>2024-10-15T13:07:58.871+00:00</time>
      </trkpt>
      <trkpt lat="49.3183" lon="1.13279">
        <ele>6</ele>
        <time>2024-10-15T13:08:02.971+00:00</time>
      </trkpt>
      <trkpt lat="49.3183" lon="1.13285">
        <ele>6</ele>
        <time>2024-10-15T13:08:07.071+00:00</time>
      </trkpt>
      <trkpt lat="49.31829" lon="1.13291">
        <ele>6</ele>
        <time>2024-10-15T13:08:11.223+00:00</time>
      </trkpt>
      <trkpt lat="49.31828" lon="1.13299">
        <ele>6</ele>
        <time>2024-10-15T13:08:15.225+00:00</time>
      </trkpt>
      <trkpt lat="49.31826" lon="1.13307">
        <ele>6</ele>
        <time>2024-10-15T13:08:19.349+00:00</time>
      </trkpt>
      <trkpt lat="49.31826" lon="1.13314">
        <ele>6</ele>
        <time>2024-10-15T13:08:23.475+00:00</time>
      </trkpt>
      <trkpt lat="49.31826" lon="1.13322">
        <ele>6</ele>
        <time>2024-10-15T13:08:28.171+00:00</time>
      </trkpt>
      <trkpt lat="49.31825" lon="1.1333">
        <ele>6</ele>
        <time>2024-10-15T13:08:32.325+00:00</time>
      </trkpt>
      <trkpt lat="49.31824" lon="1.13337">
        <ele>6</ele>
        <time>2024-10-15T13:08:36.424+00:00</time>
      </trkpt>
      <trkpt lat="49.31824" lon="1.13343">
        <ele>6</ele>
        <time>2024-10-15T13:08:40.467+00:00</time>
      </trkpt>
      <trkpt lat="49.31823" lon="1.13349">
        <ele>6</ele>
        <time>2024-10-15T13:08:44.469+00:00</time>
      </trkpt>
      <trkpt lat="49.31824" lon="1.13358">
        <ele>6</ele>
        <time>2024-10-15T13:08:49.112+00:00</time>
      </trkpt>
      <trkpt lat="49.31823" lon="1.13366">
        <ele>6</ele>
        <time>2024-10-15T13:08:53.225+00:00</time>
      </trkpt>
      <trkpt lat="49.31822" lon="1.13373">
        <ele>6</ele>
        <time>2024-10-15T13:08:57.268+00:00</time>
      </trkpt>
      <trkpt lat="49.31821" lon="1.1338">
        <ele>6</ele>
        <time>2024-10-15T13:09:01.385+00:00</time>
      </trkpt>
      <trkpt lat="49.3182" lon="1.13388">
        <ele>6</ele>
        <time>2024-10-15T13:09:05.450+00:00</time>
      </trkpt>
      <trkpt lat="49.31819" lon="1.13396">
        <ele>5</ele>
        <time>2024-10-15T13:09:09.466+00:00</time>
      </trkpt>
      <trkpt lat="49.31818" lon="1.13403">
        <ele>5</ele>
        <time>2024-10-15T13:09:13.488+00:00</time>
      </trkpt>
      <trkpt lat="49.31816" lon="1.13411">
        <ele>5</ele>
        <time>2024-10-15T13:09:17.694+00:00</time>
      </trkpt>
      <trkpt lat="49.31816" lon="1.13418">
        <ele>5</ele>
        <time>2024-10-15T13:09:21.724+00:00</time>
      </trkpt>
      <trkpt lat="49.31815" lon="1.13426">
        <ele>5</ele>
        <time>2024-10-15T13:09:25.825+00:00</time>
      </trkpt>
      <trkpt lat="49.31814" lon="1.13432">
        <ele>5</ele>
        <time>2024-10-15T13:09:29.968+00:00</time>
      </trkpt>
      <trkpt lat="49.31814" lon="1.13439">
        <ele>5</ele>
        <time>2024-10-15T13:09:34.015+00:00</time>
      </trkpt>
      <trkpt lat="49.31812" lon="1.13446">
        <ele>5</ele>
        <time>2024-10-15T13:09:38.130+00:00</time>
      </trkpt>
      <trkpt lat="49.31811" lon="1.13453">
        <ele>5</ele>
        <time>2024-10-15T13:09:42.192+00:00</time>
      </trkpt>
      <trkpt lat="49.3181" lon="1.1346">
        <ele>6</ele>
        <time>2024-10-15T13:09:46.274+00:00</time>
      </trkpt>
      <trkpt lat="49.31809" lon="1.13467">
        <ele>6</ele>
        <time>2024-10-15T13:09:50.392+00:00</time>
      </trkpt>
      <trkpt lat="49.31809" lon="1.13475">
        <ele>6</ele>
        <time>2024-10-15T13:09:54.473+00:00</time>
      </trkpt>
      <trkpt lat="49.31808" lon="1.13483">
        <ele>6</ele>
        <time>2024-10-15T13:09:58.605+00:00</time>
      </trkpt>
      <trkpt lat="49.31808" lon="1.1349">
        <ele>6</ele>
        <time>2024-10-15T13:10:03.185+00:00</time>
      </trkpt>
      <trkpt lat="49.31807" lon="1.13498">
        <ele>6</ele>
        <time>2024-10-15T13:10:07.326+00:00</time>
      </trkpt>
      <trkpt lat="49.31807" lon="1.13504">
        <ele>6</ele>
        <time>2024-10-15T13:10:11.464+00:00</time>
      </trkpt>
      <trkpt lat="49.31806" lon="1.13512">
        <ele>6</ele>
        <time>2024-10-15T13:10:15.457+00:00</time>
      </trkpt>
      <trkpt lat="49.31805" lon="1.1352">
        <ele>6</ele>
        <time>2024-10-15T13:10:19.751+00:00</time>
      </trkpt>
      <trkpt lat="49.31805" lon="1.13528">
        <ele>6</ele>
        <time>2024-10-15T13:10:23.889+00:00</time>
      </trkpt>
      <trkpt lat="49.31803" lon="1.13534">
        <ele>6</ele>
        <time>2024-10-15T13:10:27.991+00:00</time>
      </trkpt>
      <trkpt lat="49.31802" lon="1.1354">
        <ele>6</ele>
        <time>2024-10-15T13:10:32.146+00:00</time>
      </trkpt>
      <trkpt lat="49.31802" lon="1.13548">
        <ele>5</ele>
        <time>2024-10-15T13:10:36.289+00:00</time>
      </trkpt>
      <trkpt lat="49.31802" lon="1.13556">
        <ele>5</ele>
        <time>2024-10-15T13:10:40.446+00:00</time>
      </trkpt>
      <trkpt lat="49.31802" lon="1.13564">
        <ele>5</ele>
        <time>2024-10-15T13:10:44.730+00:00</time>
      </trkpt>
      <trkpt lat="49.31802" lon="1.13572">
        <ele>5</ele>
        <time>2024-10-15T13:10:48.851+00:00</time>
      </trkpt>
      <trkpt lat="49.31801" lon="1.1358">
        <ele>5</ele>
        <time>2024-10-15T13:10:52.954+00:00</time>
      </trkpt>
      <trkpt lat="49.31801" lon="1.13588">
        <ele>5</ele>
        <time>2024-10-15T13:10:57.028+00:00</time>
      </trkpt>
      <trkpt lat="49.318" lon="1.13595">
        <ele>5</ele>
        <time>2024-10-15T13:11:01.168+00:00</time>
      </trkpt>
      <trkpt lat="49.318" lon="1.13603">
        <ele>5</ele>
        <time>2024-10-15T13:11:05.333+00:00</time>
      </trkpt>
      <trkpt lat="49.31801" lon="1.1361">
        <ele>5</ele>
        <time>2024-10-15T13:11:09.474+00:00</time>
      </trkpt>
      <trkpt lat="49.31802" lon="1.13619">
        <ele>5</ele>
        <time>2024-10-15T13:11:13.663+00:00</time>
      </trkpt>
      <trkpt lat="49.31804" lon="1.13626">
        <ele>5</ele>
        <time>2024-10-15T13:11:17.888+00:00</time>
      </trkpt>
      <trkpt lat="49.31804" lon="1.13634">
        <ele>5</ele>
        <time>2024-10-15T13:11:22.028+00:00</time>
      </trkpt>
      <trkpt lat="49.31803" lon="1.1364">
        <ele>5</ele>
        <time>2024-10-15T13:11:26.109+00:00</time>
      </trkpt>
      <trkpt lat="49.31801" lon="1.13645">
        <ele>5</ele>
        <time>2024-10-15T13:11:30.172+00:00</time>
      </trkpt>
      <trkpt lat="49.318" lon="1.13652">
        <ele>5</ele>
        <time>2024-10-15T13:11:34.367+00:00</time>
      </trkpt>
      <trkpt lat="49.318" lon="1.13659">
        <ele>6</ele>
        <time>2024-10-15T13:11:38.413+00:00</time>
      </trkpt>
      <trkpt lat="49.318" lon="1.13666">
        <ele>6</ele>
        <time>2024-10-15T13:11:42.473+00:00</time>
      </trkpt>
      <trkpt lat="49.31799" lon="1.13673">
        <ele>6</ele>
        <time>2024-10-15T13:11:46.754+00:00</time>
      </trkpt>
      <trkpt lat="49.31799" lon="1.13679">
        <ele>6</ele>
        <time>2024-10-15T13:11:50.872+00:00</time>
      </trkpt>
      <trkpt lat="49.31799" lon="1.13686">
        <ele>7</ele>
        <time>2024-10-15T13:11:54.912+00:00</time>
      </trkpt>
      <trkpt lat="49.31799" lon="1.13694">
        <ele>7</ele>
        <time>2024-10-15T13:11:59.127+00:00</time>
      </trkpt>
      <trkpt lat="49.318" lon="1.13702">
        <ele>7</ele>
        <time>2024-10-15T13:12:03.169+00:00</time>
      </trkpt>
      <trkpt lat="49.31801" lon="1.13709">
        <ele>7</ele>
        <time>2024-10-15T13:12:07.291+00:00</time>
      </trkpt>
      <trkpt lat="49.31801" lon="1.13717">
        <ele>7</ele>
        <time>2024-10-15T13:12:11.430+00:00</time>
      </trkpt>
      <trkpt lat="49.31801" lon="1.13724">
        <ele>7</ele>
        <time>2024-10-15T13:12:15.471+00:00</time>
      </trkpt>
      <trkpt lat="49.31801" lon="1.13731">
        <ele>7</ele>
        <time>2024-10-15T13:12:19.725+00:00</time>
      </trkpt>
      <trkpt lat="49.31801" lon="1.13738">
        <ele>6</ele>
        <time>2024-10-15T13:12:23.803+00:00</time>
      </trkpt>
      <trkpt lat="49.31801" lon="1.13745">
        <ele>6</ele>
        <time>2024-10-15T13:12:27.910+00:00</time>
      </trkpt>
      <trkpt lat="49.318" lon="1.13753">
        <ele>6</ele>
        <time>2024-10-15T13:12:32.009+00:00</time>
      </trkpt>
      <trkpt lat="49.318" lon="1.13761">
        <ele>6</ele>
        <time>2024-10-15T13:12:36.110+00:00</time>
      </trkpt>
      <trkpt lat="49.318" lon="1.13769">
        <ele>5</ele>
        <time>2024-10-15T13:12:40.252+00:00</time>
      </trkpt>
      <trkpt lat="49.318" lon="1.13776">
        <ele>5</ele>
        <time>2024-10-15T13:12:44.304+00:00</time>
      </trkpt>
      <trkpt lat="49.31801" lon="1.13784">
        <ele>5</ele>
        <time>2024-10-15T13:12:48.426+00:00</time>
      </trkpt>
      <trkpt lat="49.31801" lon="1.13791">
        <ele>5</ele>
        <time>2024-10-15T13:12:52.461+00:00</time>
      </trkpt>
      <trkpt lat="49.31802" lon="1.13797">
        <ele>5</ele>
        <time>2024-10-15T13:12:56.649+00:00</time>
      </trkpt>
      <trkpt lat="49.31802" lon="1.13804">
        <ele>5</ele>
        <time>2024-10-15T13:13:00.672+00:00</time>
      </trkpt>
      <trkpt lat="49.31803" lon="1.13812">
        <ele>5</ele>
        <time>2024-10-15T13:13:04.865+00:00</time>
      </trkpt>
      <trkpt lat="49.31803" lon="1.13819">
        <ele>5</ele>
        <time>2024-10-15T13:13:09.086+00:00</time>
      </trkpt>
      <trkpt lat="49.31803" lon="1.13826">
        <ele>4</ele>
        <time>2024-10-15T13:13:13.424+00:00</time>
      </trkpt>
      <trkpt lat="49.31804" lon="1.13834">
        <ele>4</ele>
        <time>2024-10-15T13:13:18.227+00:00</time>
      </trkpt>
      <trkpt lat="49.31804" lon="1.13842">
        <ele>4</ele>
        <time>2024-10-15T13:13:22.732+00:00</time>
      </trkpt>
      <trkpt lat="49.31805" lon="1.13847">
        <ele>4</ele>
        <time>2024-10-15T13:13:26.790+00:00</time>
      </trkpt>
      <trkpt lat="49.31805" lon="1.13854">
        <ele>4</ele>
        <time>2024-10-15T13:13:31.334+00:00</time>
      </trkpt>
      <trkpt lat="49.31805" lon="1.1386">
        <ele>4</ele>
        <time>2024-10-15T13:13:35.387+00:00</time>
      </trkpt>
      <trkpt lat="49.31805" lon="1.13868">
        <ele>4</ele>
        <time>2024-10-15T13:13:39.688+00:00</time>
      </trkpt>
      <trkpt lat="49.31805" lon="1.13876">
        <ele>4</ele>
        <time>2024-10-15T13:13:44.430+00:00</time>
      </trkpt>
      <trkpt lat="49.31807" lon="1.13881">
        <ele>4</ele>
        <time>2024-10-15T13:13:48.805+00:00</time>
      </trkpt>
      <trkpt lat="49.31807" lon="1.1389">
        <ele>4</ele>
        <time>2024-10-15T13:13:53.296+00:00</time>
      </trkpt>
      <trkpt lat="49.31807" lon="1.13897">
        <ele>4</ele>
        <time>2024-10-15T13:14:02.490+00:00</time>
      </trkpt>
      <trkpt lat="49.31808" lon="1.13898">
        <ele>4</ele>
        <time>2024-10-15T13:14:07.168+00:00</time>
      </trkpt>
      <trkpt lat="49.31808" lon="1.13898">
        <ele>4</ele>
        <time>2024-10-15T13:14:11.915+00:00</time>
      </trkpt>
      <trkpt lat="49.3181" lon="1.13907">
        <ele>4</ele>
        <time>2024-10-15T13:14:16.350+00:00</time>
      </trkpt>
      <trkpt lat="49.3181" lon="1.13915">
        <ele>4</ele>
        <time>2024-10-15T13:14:20.879+00:00</time>
      </trkpt>
      <trkpt lat="49.31811" lon="1.13923">
        <ele>4</ele>
        <time>2024-10-15T13:14:25.030+00:00</time>
      </trkpt>
      <trkpt lat="49.31811" lon="1.1393">
        <ele>4</ele>
        <time>2024-10-15T13:14:29.112+00:00</time>
      </trkpt>
      <trkpt lat="49.31811" lon="1.13936">
        <ele>4</ele>
        <time>2024-10-15T13:14:33.643+00:00</time>
      </trkpt>
      <trkpt lat="49.31812" lon="1.13942">
        <ele>4</ele>
        <time>2024-10-15T13:14:37.708+00:00</time>
      </trkpt>
      <trkpt lat="49.31811" lon="1.1395">
        <ele>4</ele>
        <time>2024-10-15T13:14:42.127+00:00</time>
      </trkpt>
      <trkpt lat="49.31812" lon="1.13957">
        <ele>4</ele>
        <time>2024-10-15T13:14:46.188+00:00</time>
      </trkpt>
      <trkpt lat="49.31813" lon="1.13965">
        <ele>5</ele>
        <time>2024-10-15T13:14:50.469+00:00</time>
      </trkpt>
      <trkpt lat="49.31813" lon="1.13972">
        <ele>5</ele>
        <time>2024-10-15T13:14:54.683+00:00</time>
      </trkpt>
      <trkpt lat="49.31814" lon="1.13979">
        <ele>5</ele>
        <time>2024-10-15T13:14:58.869+00:00</time>
      </trkpt>
      <trkpt lat="49.31814" lon="1.13986">
        <ele>5</ele>
        <time>2024-10-15T13:15:03.032+00:00</time>
      </trkpt>
      <trkpt lat="49.31815" lon="1.13993">
        <ele>5</ele>
        <time>2024-10-15T13:15:07.166+00:00</time>
      </trkpt>
      <trkpt lat="49.31815" lon="1.13998">
        <ele>5</ele>
        <time>2024-10-15T13:15:11.333+00:00</time>
      </trkpt>
      <trkpt lat="49.31815" lon="1.14005">
        <ele>5</ele>
        <time>2024-10-15T13:15:15.404+00:00</time>
      </trkpt>
      <trkpt lat="49.31816" lon="1.14011">
        <ele>5</ele>
        <time>2024-10-15T13:15:19.750+00:00</time>
      </trkpt>
      <trkpt lat="49.31817" lon="1.14018">
        <ele>5</ele>
        <time>2024-10-15T13:15:23.932+00:00</time>
      </trkpt>
      <trkpt lat="49.31817" lon="1.14025">
        <ele>5</ele>
        <time>2024-10-15T13:15:28.148+00:00</time>
      </trkpt>
      <trkpt lat="49.31817" lon="1.14032">
        <ele>5</ele>
        <time>2024-10-15T13:15:32.447+00:00</time>
      </trkpt>
      <trkpt lat="49.31818" lon="1.14039">
        <ele>5</ele>
        <time>2024-10-15T13:15:36.536+00:00</time>
      </trkpt>
      <trkpt lat="49.31819" lon="1.14047">
        <ele>5</ele>
        <time>2024-10-15T13:15:40.804+00:00</time>
      </trkpt>
      <trkpt lat="49.3182" lon="1.14054">
        <ele>6</ele>
        <time>2024-10-15T13:15:45.100+00:00</time>
      </trkpt>
      <trkpt lat="49.31821" lon="1.14061">
        <ele>6</ele>
        <time>2024-10-15T13:15:49.334+00:00</time>
      </trkpt>
      <trkpt lat="49.31822" lon="1.14067">
        <ele>6</ele>
        <time>2024-10-15T13:15:53.470+00:00</time>
      </trkpt>
      <trkpt lat="49.31823" lon="1.14074">
        <ele>6</ele>
        <time>2024-10-15T13:15:57.711+00:00</time>
      </trkpt>
      <trkpt lat="49.31824" lon="1.14083">
        <ele>6</ele>
        <time>2024-10-15T13:16:02.265+00:00</time>
      </trkpt>
      <trkpt lat="49.31824" lon="1.14091">
        <ele>6</ele>
        <time>2024-10-15T13:16:06.430+00:00</time>
      </trkpt>
      <trkpt lat="49.31824" lon="1.14097">
        <ele>6</ele>
        <time>2024-10-15T13:16:10.631+00:00</time>
      </trkpt>
      <trkpt lat="49.31825" lon="1.14103">
        <ele>6</ele>
        <time>2024-10-15T13:16:14.764+00:00</time>
      </trkpt>
      <trkpt lat="49.31826" lon="1.1411">
        <ele>6</ele>
        <time>2024-10-15T13:16:19.429+00:00</time>
      </trkpt>
      <trkpt lat="49.31826" lon="1.14118">
        <ele>6</ele>
        <time>2024-10-15T13:16:23.734+00:00</time>
      </trkpt>
      <trkpt lat="49.31827" lon="1.14125">
        <ele>6</ele>
        <time>2024-10-15T13:16:27.968+00:00</time>
      </trkpt>
      <trkpt lat="49.31828" lon="1.14132">
        <ele>6</ele>
        <time>2024-10-15T13:16:32.323+00:00</time>
      </trkpt>
      <trkpt lat="49.31829" lon="1.14139">
        <ele>6</ele>
        <time>2024-10-15T13:16:36.448+00:00</time>
      </trkpt>
      <trkpt lat="49.31829" lon="1.14146">
        <ele>6</ele>
        <time>2024-10-15T13:16:40.671+00:00</time>
      </trkpt>
      <trkpt lat="49.3183" lon="1.14154">
        <ele>6</ele>
        <time>2024-10-15T13:16:44.726+00:00</time>
      </trkpt>
      <trkpt lat="49.31831" lon="1.14161">
        <ele>6</ele>
        <time>2024-10-15T13:16:48.893+00:00</time>
      </trkpt>
      <trkpt lat="49.31833" lon="1.14169">
        <ele>6</ele>
        <time>2024-10-15T13:16:52.988+00:00</time>
      </trkpt>
      <trkpt lat="49.31834" lon="1.14177">
        <ele>6</ele>
        <time>2024-10-15T13:16:57.184+00:00</time>
      </trkpt>
      <trkpt lat="49.31835" lon="1.14184">
        <ele>6</ele>
        <time>2024-10-15T13:17:01.331+00:00</time>
      </trkpt>
      <trkpt lat="49.31837" lon="1.14191">
        <ele>6</ele>
        <time>2024-10-15T13:17:05.496+00:00</time>
      </trkpt>
      <trkpt lat="49.31839" lon="1.14196">
        <ele>6</ele>
        <time>2024-10-15T13:17:09.654+00:00</time>
      </trkpt>
      <trkpt lat="49.31839" lon="1.14203">
        <ele>6</ele>
        <time>2024-10-15T13:17:13.844+00:00</time>
      </trkpt>
      <trkpt lat="49.31839" lon="1.14209">
        <ele>6</ele>
        <time>2024-10-15T13:17:18.050+00:00</time>
      </trkpt>
      <trkpt lat="49.3184" lon="1.14215">
        <ele>6</ele>
        <time>2024-10-15T13:17:22.265+00:00</time>
      </trkpt>
      <trkpt lat="49.31841" lon="1.14223">
        <ele>6</ele>
        <time>2024-10-15T13:17:26.454+00:00</time>
      </trkpt>
      <trkpt lat="49.31843" lon="1.14231">
        <ele>6</ele>
        <time>2024-10-15T13:17:31.023+00:00</time>
      </trkpt>
      <trkpt lat="49.31844" lon="1.14238">
        <ele>6</ele>
        <time>2024-10-15T13:17:35.189+00:00</time>
      </trkpt>
      <trkpt lat="49.31844" lon="1.14244">
        <ele>6</ele>
        <time>2024-10-15T13:17:39.425+00:00</time>
      </trkpt>
      <trkpt lat="49.31844" lon="1.14251">
        <ele>6</ele>
        <time>2024-10-15T13:17:44.232+00:00</time>
      </trkpt>
      <trkpt lat="49.31846" lon="1.14257">
        <ele>6</ele>
        <time>2024-10-15T13:17:48.316+00:00</time>
      </trkpt>
      <trkpt lat="49.31847" lon="1.14262">
        <ele>6</ele>
        <time>2024-10-15T13:17:52.443+00:00</time>
      </trkpt>
      <trkpt lat="49.31847" lon="1.14267">
        <ele>6</ele>
        <time>2024-10-15T13:17:56.772+00:00</time>
      </trkpt>
      <trkpt lat="49.31848" lon="1.14273">
        <ele>6</ele>
        <time>2024-10-15T13:18:00.992+00:00</time>
      </trkpt>
      <trkpt lat="49.3185" lon="1.14281">
        <ele>6</ele>
        <time>2024-10-15T13:18:05.452+00:00</time>
      </trkpt>
      <trkpt lat="49.31851" lon="1.14289">
        <ele>6</ele>
        <time>2024-10-15T13:18:10.107+00:00</time>
      </trkpt>
      <trkpt lat="49.31853" lon="1.14296">
        <ele>6</ele>
        <time>2024-10-15T13:18:14.222+00:00</time>
      </trkpt>
      <trkpt lat="49.31854" lon="1.143">
        <ele>6</ele>
        <time>2024-10-15T13:18:18.455+00:00</time>
      </trkpt>
      <trkpt lat="49.31853" lon="1.14303">
        <ele>6</ele>
        <time>2024-10-15T13:20:29.448+00:00</time>
      </trkpt>
      <trkpt lat="49.31853" lon="1.14308">
        <ele>6</ele>
        <time>2024-10-15T13:20:33.943+00:00</time>
      </trkpt>
      <trkpt lat="49.31854" lon="1.14312">
        <ele>6</ele>
        <time>2024-10-15T13:20:38.150+00:00</time>
      </trkpt>
      <trkpt lat="49.31855" lon="1.14324">
        <ele>7</ele>
        <time>2024-10-15T13:20:42.664+00:00</time>
      </trkpt>
      <trkpt lat="49.31856" lon="1.14332">
        <ele>7</ele>
        <time>2024-10-15T13:20:46.673+00:00</time>
      </trkpt>
      <trkpt lat="49.31858" lon="1.14338">
        <ele>7</ele>
        <time>2024-10-15T13:20:50.707+00:00</time>
      </trkpt>
      <trkpt lat="49.31859" lon="1.14345">
        <ele>7</ele>
        <time>2024-10-15T13:20:54.713+00:00</time>
      </trkpt>
      <trkpt lat="49.3186" lon="1.14352">
        <ele>7</ele>
        <time>2024-10-15T13:20:59.137+00:00</time>
      </trkpt>
      <trkpt lat="49.31861" lon="1.1436">
        <ele>7</ele>
        <time>2024-10-15T13:21:03.265+00:00</time>
      </trkpt>
      <trkpt lat="49.31862" lon="1.14368">
        <ele>7</ele>
        <time>2024-10-15T13:21:07.290+00:00</time>
      </trkpt>
      <trkpt lat="49.31862" lon="1.14377">
        <ele>8</ele>
        <time>2024-10-15T13:21:11.349+00:00</time>
      </trkpt>
      <trkpt lat="49.31864" lon="1.14386">
        <ele>8</ele>
        <time>2024-10-15T13:21:15.951+00:00</time>
      </trkpt>
      <trkpt lat="49.31865" lon="1.14393">
        <ele>8</ele>
        <time>2024-10-15T13:21:19.963+00:00</time>
      </trkpt>
      <trkpt lat="49.31866" lon="1.14401">
        <ele>8</ele>
        <time>2024-10-15T13:21:24.463+00:00</time>
      </trkpt>
      <trkpt lat="49.31867" lon="1.14409">
        <ele>8</ele>
        <time>2024-10-15T13:21:28.589+00:00</time>
      </trkpt>
      <trkpt lat="49.31868" lon="1.14417">
        <ele>8</ele>
        <time>2024-10-15T13:21:33.132+00:00</time>
      </trkpt>
      <trkpt lat="49.31869" lon="1.14424">
        <ele>8</ele>
        <time>2024-10-15T13:21:37.128+00:00</time>
      </trkpt>
      <trkpt lat="49.3187" lon="1.14432">
        <ele>9</ele>
        <time>2024-10-15T13:21:41.711+00:00</time>
      </trkpt>
      <trkpt lat="49.3187" lon="1.14441">
        <ele>9</ele>
        <time>2024-10-15T13:21:46.208+00:00</time>
      </trkpt>
      <trkpt lat="49.31873" lon="1.1445">
        <ele>9</ele>
        <time>2024-10-15T13:21:50.706+00:00</time>
      </trkpt>
      <trkpt lat="49.31876" lon="1.14458">
        <ele>10</ele>
        <time>2024-10-15T13:21:55.267+00:00</time>
      </trkpt>
      <trkpt lat="49.31877" lon="1.14465">
        <ele>10</ele>
        <time>2024-10-15T13:21:59.324+00:00</time>
      </trkpt>
      <trkpt lat="49.31877" lon="1.14472">
        <ele>10</ele>
        <time>2024-10-15T13:22:03.903+00:00</time>
      </trkpt>
      <trkpt lat="49.3188" lon="1.14479">
        <ele>10</ele>
        <time>2024-10-15T13:22:08.292+00:00</time>
      </trkpt>
      <trkpt lat="49.31883" lon="1.14485">
        <ele>10</ele>
        <time>2024-10-15T13:22:12.809+00:00</time>
      </trkpt>
      <trkpt lat="49.31887" lon="1.14491">
        <ele>10</ele>
        <time>2024-10-15T13:22:17.347+00:00</time>
      </trkpt>
      <trkpt lat="49.31891" lon="1.14495">
        <ele>10</ele>
        <time>2024-10-15T13:22:21.965+00:00</time>
      </trkpt>
      <trkpt lat="49.31896" lon="1.14501">
        <ele>10</ele>
        <time>2024-10-15T13:22:26.466+00:00</time>
      </trkpt>
      <trkpt lat="49.319" lon="1.14507">
        <ele>10</ele>
        <time>2024-10-15T13:22:30.986+00:00</time>
      </trkpt>
      <trkpt lat="49.31903" lon="1.14513">
        <ele>10</ele>
        <time>2024-10-15T13:22:35.460+00:00</time>
      </trkpt>
      <trkpt lat="49.31906" lon="1.14521">
        <ele>10</ele>
        <time>2024-10-15T13:22:40.093+00:00</time>
      </trkpt>
      <trkpt lat="49.31908" lon="1.14528">
        <ele>10</ele>
        <time>2024-10-15T13:22:44.427+00:00</time>
      </trkpt>
      <trkpt lat="49.31908" lon="1.14537">
        <ele>10</ele>
        <time>2024-10-15T13:22:48.850+00:00</time>
      </trkpt>
      <trkpt lat="49.31907" lon="1.14544">
        <ele>10</ele>
        <time>2024-10-15T13:22:53.481+00:00</time>
      </trkpt>
      <trkpt lat="49.31906" lon="1.1455">
        <ele>10</ele>
        <time>2024-10-15T13:22:58.126+00:00</time>
      </trkpt>
      <trkpt lat="49.31908" lon="1.14558">
        <ele>10</ele>
        <time>2024-10-15T13:23:02.610+00:00</time>
      </trkpt>
      <trkpt lat="49.31908" lon="1.14567">
        <ele>10</ele>
        <time>2024-10-15T13:23:07.144+00:00</time>
      </trkpt>
      <trkpt lat="49.31907" lon="1.14575">
        <ele>10</ele>
        <time>2024-10-15T13:23:11.726+00:00</time>
      </trkpt>
      <trkpt lat="49.31907" lon="1.14583">
        <ele>10</ele>
        <time>2024-10-15T13:23:16.269+00:00</time>
      </trkpt>
      <trkpt lat="49.31907" lon="1.1459">
        <ele>10</ele>
        <time>2024-10-15T13:23:20.341+00:00</time>
      </trkpt>
      <trkpt lat="49.31907" lon="1.14597">
        <ele>10</ele>
        <time>2024-10-15T13:23:24.444+00:00</time>
      </trkpt>
      <trkpt lat="49.31907" lon="1.14603">
        <ele>10</ele>
        <time>2024-10-15T13:23:28.458+00:00</time>
      </trkpt>
      <trkpt lat="49.31908" lon="1.14611">
        <ele>10</ele>
        <time>2024-10-15T13:23:33.091+00:00</time>
      </trkpt>
      <trkpt lat="49.31908" lon="1.14618">
        <ele>10</ele>
        <time>2024-10-15T13:23:37.123+00:00</time>
      </trkpt>
      <trkpt lat="49.31908" lon="1.14625">
        <ele>11</ele>
        <time>2024-10-15T13:23:41.144+00:00</time>
      </trkpt>
      <trkpt lat="49.31909" lon="1.14633">
        <ele>11</ele>
        <time>2024-10-15T13:23:45.207+00:00</time>
      </trkpt>
      <trkpt lat="49.31912" lon="1.14641">
        <ele>11</ele>
        <time>2024-10-15T13:23:49.791+00:00</time>
      </trkpt>
      <trkpt lat="49.31915" lon="1.14646">
        <ele>11</ele>
        <time>2024-10-15T13:23:54.286+00:00</time>
      </trkpt>
      <trkpt lat="49.31915" lon="1.14656">
        <ele>12</ele>
        <time>2024-10-15T13:23:58.890+00:00</time>
      </trkpt>
      <trkpt lat="49.31917" lon="1.14663">
        <ele>12</ele>
        <time>2024-10-15T13:24:02.950+00:00</time>
      </trkpt>
      <trkpt lat="49.31918" lon="1.14671">
        <ele>12</ele>
        <time>2024-10-15T13:24:07.013+00:00</time>
      </trkpt>
      <trkpt lat="49.3192" lon="1.14678">
        <ele>12</ele>
        <time>2024-10-15T13:24:11.461+00:00</time>
      </trkpt>
      <trkpt lat="49.31922" lon="1.14685">
        <ele>12</ele>
        <time>2024-10-15T13:24:15.567+00:00</time>
      </trkpt>
      <trkpt lat="49.31924" lon="1.14692">
        <ele>12</ele>
        <time>2024-10-15T13:24:19.610+00:00</time>
      </trkpt>
      <trkpt lat="49.31925" lon="1.147">
        <ele>12</ele>
        <time>2024-10-15T13:24:24.146+00:00</time>
      </trkpt>
      <trkpt lat="49.31924" lon="1.14709">
        <ele>12</ele>
        <time>2024-10-15T13:24:28.649+00:00</time>
      </trkpt>
      <trkpt lat="49.31924" lon="1.14717">
        <ele>12</ele>
        <time>2024-10-15T13:24:33.170+00:00</time>
      </trkpt>
      <trkpt lat="49.31924" lon="1.14724">
        <ele>12</ele>
        <time>2024-10-15T13:24:37.188+00:00</time>
      </trkpt>
      <trkpt lat="49.31924" lon="1.14732">
        <ele>12</ele>
        <time>2024-10-15T13:24:41.548+00:00</time>
      </trkpt>
      <trkpt lat="49.31922" lon="1.14739">
        <ele>12</ele>
        <time>2024-10-15T13:24:46.111+00:00</time>
      </trkpt>
      <trkpt lat="49.31921" lon="1.14746">
        <ele>12</ele>
        <time>2024-10-15T13:24:50.103+00:00</time>
      </trkpt>
      <trkpt lat="49.31921" lon="1.14753">
        <ele>12</ele>
        <time>2024-10-15T13:24:54.272+00:00</time>
      </trkpt>
      <trkpt lat="49.3192" lon="1.14761">
        <ele>12</ele>
        <time>2024-10-15T13:24:58.788+00:00</time>
      </trkpt>
      <trkpt lat="49.3192" lon="1.14768">
        <ele>11</ele>
        <time>2024-10-15T13:25:02.792+00:00</time>
      </trkpt>
      <trkpt lat="49.31921" lon="1.14775">
        <ele>11</ele>
        <time>2024-10-15T13:25:06.967+00:00</time>
      </trkpt>
      <trkpt lat="49.3192" lon="1.14783">
        <ele>11</ele>
        <time>2024-10-15T13:25:11.465+00:00</time>
      </trkpt>
      <trkpt lat="49.31918" lon="1.1479">
        <ele>11</ele>
        <time>2024-10-15T13:25:16.337+00:00</time>
      </trkpt>
      <trkpt lat="49.31917" lon="1.14797">
        <ele>11</ele>
        <time>2024-10-15T13:25:21.030+00:00</time>
      </trkpt>
      <trkpt lat="49.31916" lon="1.14803">
        <ele>11</ele>
        <time>2024-10-15T13:25:25.147+00:00</time>
      </trkpt>
      <trkpt lat="49.31914" lon="1.14809">
        <ele>11</ele>
        <time>2024-10-15T13:25:29.651+00:00</time>
      </trkpt>
      <trkpt lat="49.31913" lon="1.14816">
        <ele>11</ele>
        <time>2024-10-15T13:25:34.047+00:00</time>
      </trkpt>
      <trkpt lat="49.31912" lon="1.14825">
        <ele>10</ele>
        <time>2024-10-15T13:25:38.586+00:00</time>
      </trkpt>
      <trkpt lat="49.31912" lon="1.14836">
        <ele>10</ele>
        <time>2024-10-15T13:25:43.448+00:00</time>
      </trkpt>
      <trkpt lat="49.31913" lon="1.14846">
        <ele>10</ele>
        <time>2024-10-15T13:25:47.911+00:00</time>
      </trkpt>
      <trkpt lat="49.31914" lon="1.14855">
        <ele>10</ele>
        <time>2024-10-15T13:25:52.443+00:00</time>
      </trkpt>
      <trkpt lat="49.31913" lon="1.14864">
        <ele>10</ele>
        <time>2024-10-15T13:25:56.395+00:00</time>
      </trkpt>
      <trkpt lat="49.31912" lon="1.14874">
        <ele>10</ele>
        <time>2024-10-15T13:26:00.848+00:00</time>
      </trkpt>
      <trkpt lat="49.31912" lon="1.14882">
        <ele>10</ele>
        <time>2024-10-15T13:26:04.974+00:00</time>
      </trkpt>
      <trkpt lat="49.31911" lon="1.1489">
        <ele>10</ele>
        <time>2024-10-15T13:26:09.266+00:00</time>
      </trkpt>
      <trkpt lat="49.3191" lon="1.14898">
        <ele>10</ele>
        <time>2024-10-15T13:26:13.749+00:00</time>
      </trkpt>
      <trkpt lat="49.31912" lon="1.14906">
        <ele>10</ele>
        <time>2024-10-15T13:26:18.294+00:00</time>
      </trkpt>
      <trkpt lat="49.31912" lon="1.14913">
        <ele>10</ele>
        <time>2024-10-15T13:26:22.334+00:00</time>
      </trkpt>
      <trkpt lat="49.31912" lon="1.1492">
        <ele>10</ele>
        <time>2024-10-15T13:26:26.384+00:00</time>
      </trkpt>
      <trkpt lat="49.31912" lon="1.14927">
        <ele>10</ele>
        <time>2024-10-15T13:26:30.487+00:00</time>
      </trkpt>
      <trkpt lat="49.31912" lon="1.14935">
        <ele>10</ele>
        <time>2024-10-15T13:26:35.191+00:00</time>
      </trkpt>
      <trkpt lat="49.31913" lon="1.14941">
        <ele>10</ele>
        <time>2024-10-15T13:26:39.456+00:00</time>
      </trkpt>
      <trkpt lat="49.31913" lon="1.14947">
        <ele>10</ele>
        <time>2024-10-15T13:26:44.023+00:00</time>
      </trkpt>
      <trkpt lat="49.31912" lon="1.14954">
        <ele>10</ele>
        <time>2024-10-15T13:26:48.048+00:00</time>
      </trkpt>
      <trkpt lat="49.31912" lon="1.14961">
        <ele>10</ele>
        <time>2024-10-15T13:26:52.246+00:00</time>
      </trkpt>
      <trkpt lat="49.31912" lon="1.14966">
        <ele>10</ele>
        <time>2024-10-15T13:26:56.231+00:00</time>
      </trkpt>
      <trkpt lat="49.31913" lon="1.14972">
        <ele>10</ele>
        <time>2024-10-15T13:27:00.307+00:00</time>
      </trkpt>
      <trkpt lat="49.31914" lon="1.14978">
        <ele>10</ele>
        <time>2024-10-15T13:27:04.429+00:00</time>
      </trkpt>
      <trkpt lat="49.31914" lon="1.14987">
        <ele>10</ele>
        <time>2024-10-15T13:27:08.944+00:00</time>
      </trkpt>
      <trkpt lat="49.31916" lon="1.14994">
        <ele>10</ele>
        <time>2024-10-15T13:27:13.288+00:00</time>
      </trkpt>
      <trkpt lat="49.31917" lon="1.15002">
        <ele>10</ele>
        <time>2024-10-15T13:27:17.410+00:00</time>
      </trkpt>
      <trkpt lat="49.31916" lon="1.1501">
        <ele>10</ele>
        <time>2024-10-15T13:27:21.442+00:00</time>
      </trkpt>
      <trkpt lat="49.31915" lon="1.15018">
        <ele>10</ele>
        <time>2024-10-15T13:27:25.648+00:00</time>
      </trkpt>
      <trkpt lat="49.31913" lon="1.15019">
        <ele>10</ele>
        <time>2024-10-15T13:27:30.452+00:00</time>
      </trkpt>
      <trkpt lat="49.31914" lon="1.15024">
        <ele>10</ele>
        <time>2024-10-15T13:27:34.865+00:00</time>
      </trkpt>
      <trkpt lat="49.31913" lon="1.15033">
        <ele>10</ele>
        <time>2024-10-15T13:27:39.306+00:00</time>
      </trkpt>
      <trkpt lat="49.31913" lon="1.15042">
        <ele>10</ele>
        <time>2024-10-15T13:27:43.688+00:00</time>
      </trkpt>
      <trkpt lat="49.31915" lon="1.15046">
        <ele>10</ele>
        <time>2024-10-15T13:27:48.460+00:00</time>
      </trkpt>
      <trkpt lat="49.31914" lon="1.15052">
        <ele>10</ele>
        <time>2024-10-15T13:27:52.651+00:00</time>
      </trkpt>
      <trkpt lat="49.31913" lon="1.15057">
        <ele>10</ele>
        <time>2024-10-15T13:27:56.939+00:00</time>
      </trkpt>
      <trkpt lat="49.31913" lon="1.15062">
        <ele>10</ele>
        <time>2024-10-15T13:28:01.034+00:00</time>
      </trkpt>
      <trkpt lat="49.31913" lon="1.15062">
        <ele>10</ele>
        <time>2024-10-15T13:28:19.139+00:00</time>
      </trkpt>
      <trkpt lat="49.31913" lon="1.15063">
        <ele>10</ele>
        <time>2024-10-15T13:28:23.443+00:00</time>
      </trkpt>
      <trkpt lat="49.31912" lon="1.15073">
        <ele>10</ele>
        <time>2024-10-15T13:28:28.130+00:00</time>
      </trkpt>
      <trkpt lat="49.31911" lon="1.1508">
        <ele>10</ele>
        <time>2024-10-15T13:28:32.334+00:00</time>
      </trkpt>
      <trkpt lat="49.31909" lon="1.15087">
        <ele>10</ele>
        <time>2024-10-15T13:28:36.427+00:00</time>
      </trkpt>
      <trkpt lat="49.31909" lon="1.15094">
        <ele>10</ele>
        <time>2024-10-15T13:28:40.464+00:00</time>
      </trkpt>
      <trkpt lat="49.3191" lon="1.15101">
        <ele>9</ele>
        <time>2024-10-15T13:28:44.472+00:00</time>
      </trkpt>
      <trkpt lat="49.31909" lon="1.15107">
        <ele>9</ele>
        <time>2024-10-15T13:28:48.826+00:00</time>
      </trkpt>
      <trkpt lat="49.31909" lon="1.15115">
        <ele>9</ele>
        <time>2024-10-15T13:28:52.865+00:00</time>
      </trkpt>
      <trkpt lat="49.31908" lon="1.15124">
        <ele>9</ele>
        <time>2024-10-15T13:28:57.367+00:00</time>
      </trkpt>
      <trkpt lat="49.31908" lon="1.15132">
        <ele>9</ele>
        <time>2024-10-15T13:29:01.411+00:00</time>
      </trkpt>
      <trkpt lat="49.31908" lon="1.15138">
        <ele>9</ele>
        <time>2024-10-15T13:29:05.453+00:00</time>
      </trkpt>
      <trkpt lat="49.31909" lon="1.15141">
        <ele>9</ele>
        <time>2024-10-15T13:29:09.613+00:00</time>
      </trkpt>
      <trkpt lat="49.31909" lon="1.15149">
        <ele>9</ele>
        <time>2024-10-15T13:29:13.625+00:00</time>
      </trkpt>
      <trkpt lat="49.31908" lon="1.15157">
        <ele>8</ele>
        <time>2024-10-15T13:29:18.076+00:00</time>
      </trkpt>
      <trkpt lat="49.31907" lon="1.15164">
        <ele>8</ele>
        <time>2024-10-15T13:29:22.456+00:00</time>
      </trkpt>
      <trkpt lat="49.31906" lon="1.15171">
        <ele>8</ele>
        <time>2024-10-15T13:29:26.572+00:00</time>
      </trkpt>
      <trkpt lat="49.31904" lon="1.1518">
        <ele>8</ele>
        <time>2024-10-15T13:29:31.171+00:00</time>
      </trkpt>
      <trkpt lat="49.31901" lon="1.15187">
        <ele>8</ele>
        <time>2024-10-15T13:29:35.528+00:00</time>
      </trkpt>
      <trkpt lat="49.319" lon="1.15193">
        <ele>8</ele>
        <time>2024-10-15T13:29:39.552+00:00</time>
      </trkpt>
      <trkpt lat="49.31899" lon="1.15201">
        <ele>8</ele>
        <time>2024-10-15T13:29:44.007+00:00</time>
      </trkpt>
      <trkpt lat="49.31897" lon="1.15208">
        <ele>8</ele>
        <time>2024-10-15T13:29:48.456+00:00</time>
      </trkpt>
      <trkpt lat="49.31896" lon="1.15214">
        <ele>8</ele>
        <time>2024-10-15T13:29:52.447+00:00</time>
      </trkpt>
      <trkpt lat="49.31894" lon="1.15221">
        <ele>8</ele>
        <time>2024-10-15T13:29:56.790+00:00</time>
      </trkpt>
      <trkpt lat="49.31896" lon="1.15228">
        <ele>8</ele>
        <time>2024-10-15T13:30:01.325+00:00</time>
      </trkpt>
      <trkpt lat="49.31891" lon="1.15239">
        <ele>7</ele>
        <time>2024-10-15T13:30:05.829+00:00</time>
      </trkpt>
      <trkpt lat="49.3189" lon="1.15247">
        <ele>7</ele>
        <time>2024-10-15T13:30:10.293+00:00</time>
      </trkpt>
      <trkpt lat="49.31889" lon="1.15256">
        <ele>7</ele>
        <time>2024-10-15T13:30:14.825+00:00</time>
      </trkpt>
      <trkpt lat="49.31887" lon="1.15264">
        <ele>7</ele>
        <time>2024-10-15T13:30:19.406+00:00</time>
      </trkpt>
      <trkpt lat="49.31885" lon="1.15271">
        <ele>7</ele>
        <time>2024-10-15T13:30:23.751+00:00</time>
      </trkpt>
      <trkpt lat="49.31885" lon="1.15279">
        <ele>7</ele>
        <time>2024-10-15T13:30:28.195+00:00</time>
      </trkpt>
      <trkpt lat="49.31884" lon="1.15288">
        <ele>7</ele>
        <time>2024-10-15T13:30:32.748+00:00</time>
      </trkpt>
      <trkpt lat="49.31883" lon="1.15298">
        <ele>7</ele>
        <time>2024-10-15T13:30:37.312+00:00</time>
      </trkpt>
      <trkpt lat="49.31883" lon="1.15306">
        <ele>7</ele>
        <time>2024-10-15T13:30:41.864+00:00</time>
      </trkpt>
      <trkpt lat="49.31882" lon="1.15315">
        <ele>7</ele>
        <time>2024-10-15T13:30:46.350+00:00</time>
      </trkpt>
      <trkpt lat="49.31882" lon="1.15324">
        <ele>7</ele>
        <time>2024-10-15T13:30:50.887+00:00</time>
      </trkpt>
      <trkpt lat="49.31881" lon="1.15332">
        <ele>7</ele>
        <time>2024-10-15T13:30:55.452+00:00</time>
      </trkpt>
      <trkpt lat="49.31881" lon="1.1534">
        <ele>7</ele>
        <time>2024-10-15T13:31:00.100+00:00</time>
      </trkpt>
      <trkpt lat="49.3188" lon="1.15347">
        <ele>7</ele>
        <time>2024-10-15T13:31:04.685+00:00</time>
      </trkpt>
      <trkpt lat="49.3188" lon="1.15355">
        <ele>7</ele>
        <time>2024-10-15T13:31:08.711+00:00</time>
      </trkpt>
      <trkpt lat="49.31881" lon="1.15363">
        <ele>7</ele>
        <time>2024-10-15T13:31:13.146+00:00</time>
      </trkpt>
      <trkpt lat="49.31882" lon="1.15371">
        <ele>7</ele>
        <time>2024-10-15T13:31:17.733+00:00</time>
      </trkpt>
      <trkpt lat="49.31882" lon="1.15379">
        <ele>7</ele>
        <time>2024-10-15T13:31:22.265+00:00</time>
      </trkpt>
      <trkpt lat="49.31883" lon="1.15386">
        <ele>7</ele>
        <time>2024-10-15T13:31:26.286+00:00</time>
      </trkpt>
      <trkpt lat="49.31882" lon="1.15393">
        <ele>7</ele>
        <time>2024-10-15T13:31:30.810+00:00</time>
      </trkpt>
      <trkpt lat="49.31882" lon="1.15401">
        <ele>7</ele>
        <time>2024-10-15T13:31:35.353+00:00</time>
      </trkpt>
      <trkpt lat="49.31882" lon="1.15408">
        <ele>8</ele>
        <time>2024-10-15T13:31:39.366+00:00</time>
      </trkpt>
      <trkpt lat="49.31882" lon="1.15417">
        <ele>8</ele>
        <time>2024-10-15T13:31:43.887+00:00</time>
      </trkpt>
      <trkpt lat="49.31882" lon="1.15424">
        <ele>8</ele>
        <time>2024-10-15T13:31:48.447+00:00</time>
      </trkpt>
      <trkpt lat="49.31883" lon="1.15432">
        <ele>9</ele>
        <time>2024-10-15T13:31:52.614+00:00</time>
      </trkpt>
      <trkpt lat="49.31884" lon="1.1544">
        <ele>9</ele>
        <time>2024-10-15T13:31:56.624+00:00</time>
      </trkpt>
      <trkpt lat="49.31885" lon="1.15449">
        <ele>9</ele>
        <time>2024-10-15T13:32:01.148+00:00</time>
      </trkpt>
      <trkpt lat="49.31886" lon="1.15457">
        <ele>9</ele>
        <time>2024-10-15T13:32:05.209+00:00</time>
      </trkpt>
      <trkpt lat="49.31886" lon="1.15464">
        <ele>10</ele>
        <time>2024-10-15T13:32:09.214+00:00</time>
      </trkpt>
      <trkpt lat="49.31886" lon="1.15472">
        <ele>10</ele>
        <time>2024-10-15T13:32:13.869+00:00</time>
      </trkpt>
      <trkpt lat="49.31886" lon="1.1548">
        <ele>10</ele>
        <time>2024-10-15T13:32:17.970+00:00</time>
      </trkpt>
      <trkpt lat="49.31887" lon="1.15486">
        <ele>10</ele>
        <time>2024-10-15T13:32:22.015+00:00</time>
      </trkpt>
      <trkpt lat="49.31889" lon="1.15494">
        <ele>10</ele>
        <time>2024-10-15T13:32:26.111+00:00</time>
      </trkpt>
      <trkpt lat="49.3189" lon="1.15501">
        <ele>10</ele>
        <time>2024-10-15T13:32:30.131+00:00</time>
      </trkpt>
      <trkpt lat="49.3189" lon="1.1551">
        <ele>10</ele>
        <time>2024-10-15T13:32:34.764+00:00</time>
      </trkpt>
      <trkpt lat="49.3189" lon="1.1552">
        <ele>9</ele>
        <time>2024-10-15T13:32:39.304+00:00</time>
      </trkpt>
      <trkpt lat="49.3189" lon="1.15527">
        <ele>9</ele>
        <time>2024-10-15T13:32:43.361+00:00</time>
      </trkpt>
      <trkpt lat="49.3189" lon="1.15534">
        <ele>9</ele>
        <time>2024-10-15T13:32:47.412+00:00</time>
      </trkpt>
      <trkpt lat="49.3189" lon="1.15543">
        <ele>9</ele>
        <time>2024-10-15T13:32:51.468+00:00</time>
      </trkpt>
      <trkpt lat="49.3189" lon="1.15551">
        <ele>9</ele>
        <time>2024-10-15T13:32:56.008+00:00</time>
      </trkpt>
      <trkpt lat="49.31891" lon="1.15559">
        <ele>9</ele>
        <time>2024-10-15T13:33:00.030+00:00</time>
      </trkpt>
      <trkpt lat="49.31893" lon="1.15567">
        <ele>9</ele>
        <time>2024-10-15T13:33:04.113+00:00</time>
      </trkpt>
      <trkpt lat="49.31893" lon="1.15575">
        <ele>8</ele>
        <time>2024-10-15T13:33:08.645+00:00</time>
      </trkpt>
      <trkpt lat="49.31894" lon="1.15583">
        <ele>8</ele>
        <time>2024-10-15T13:33:12.667+00:00</time>
      </trkpt>
      <trkpt lat="49.31896" lon="1.15591">
        <ele>8</ele>
        <time>2024-10-15T13:33:16.734+00:00</time>
      </trkpt>
      <trkpt lat="49.31896" lon="1.15598">
        <ele>9</ele>
        <time>2024-10-15T13:33:20.853+00:00</time>
      </trkpt>
      <trkpt lat="49.31896" lon="1.15606">
        <ele>9</ele>
        <time>2024-10-15T13:33:25.363+00:00</time>
      </trkpt>
      <trkpt lat="49.31897" lon="1.15613">
        <ele>9</ele>
        <time>2024-10-15T13:33:29.426+00:00</time>
      </trkpt>
      <trkpt lat="49.31898" lon="1.15623">
        <ele>9</ele>
        <time>2024-10-15T13:33:47.052+00:00</time>
      </trkpt>
      <trkpt lat="49.31901" lon="1.15625">
        <ele>9</ele>
        <time>2024-10-15T13:33:51.446+00:00</time>
      </trkpt>
      <trkpt lat="49.319" lon="1.15632">
        <ele>9</ele>
        <time>2024-10-15T13:33:55.457+00:00</time>
      </trkpt>
      <trkpt lat="49.31898" lon="1.1564">
        <ele>9</ele>
        <time>2024-10-15T13:34:00.492+00:00</time>
      </trkpt>
      <trkpt lat="49.31899" lon="1.15641">
        <ele>9</ele>
        <time>2024-10-15T13:34:04.643+00:00</time>
      </trkpt>
      <trkpt lat="49.319" lon="1.15648">
        <ele>9</ele>
        <time>2024-10-15T13:34:08.688+00:00</time>
      </trkpt>
      <trkpt lat="49.31901" lon="1.15655">
        <ele>10</ele>
        <time>2024-10-15T13:34:12.750+00:00</time>
      </trkpt>
      <trkpt lat="49.31902" lon="1.15662">
        <ele>10</ele>
        <time>2024-10-15T13:34:16.787+00:00</time>
      </trkpt>
      <trkpt lat="49.31903" lon="1.1567">
        <ele>10</ele>
        <time>2024-10-15T13:34:21.292+00:00</time>
      </trkpt>
      <trkpt lat="49.31904" lon="1.15678">
        <ele>11</ele>
        <time>2024-10-15T13:34:25.353+00:00</time>
      </trkpt>
      <trkpt lat="49.31904" lon="1.15686">
        <ele>10</ele>
        <time>2024-10-15T13:34:29.386+00:00</time>
      </trkpt>
      <trkpt lat="49.31904" lon="1.15693">
        <ele>10</ele>
        <time>2024-10-15T13:34:33.431+00:00</time>
      </trkpt>
      <trkpt lat="49.31905" lon="1.157">
        <ele>10</ele>
        <time>2024-10-15T13:34:37.458+00:00</time>
      </trkpt>
      <trkpt lat="49.31908" lon="1.15707">
        <ele>10</ele>
        <time>2024-10-15T13:34:41.454+00:00</time>
      </trkpt>
      <trkpt lat="49.31913" lon="1.15708">
        <ele>10</ele>
        <time>2024-10-15T13:34:46.032+00:00</time>
      </trkpt>
      <trkpt lat="49.31918" lon="1.15706">
        <ele>10</ele>
        <time>2024-10-15T13:34:50.054+00:00</time>
      </trkpt>
      <trkpt lat="49.31922" lon="1.15706">
        <ele>10</ele>
        <time>2024-10-15T13:34:54.235+00:00</time>
      </trkpt>
      <trkpt lat="49.31926" lon="1.15705">
        <ele>10</ele>
        <time>2024-10-15T13:34:58.323+00:00</time>
      </trkpt>
      <trkpt lat="49.31931" lon="1.15705">
        <ele>11</ele>
        <time>2024-10-15T13:35:02.446+00:00</time>
      </trkpt>
      <trkpt lat="49.31935" lon="1.1571">
        <ele>11</ele>
        <time>2024-10-15T13:35:07.111+00:00</time>
      </trkpt>
      <trkpt lat="49.31936" lon="1.15716">
        <ele>11</ele>
        <time>2024-10-15T13:35:11.128+00:00</time>
      </trkpt>
      <trkpt lat="49.31939" lon="1.15724">
        <ele>11</ele>
        <time>2024-10-15T13:35:15.589+00:00</time>
      </trkpt>
      <trkpt lat="49.31938" lon="1.15732">
        <ele>11</ele>
        <time>2024-10-15T13:35:19.652+00:00</time>
      </trkpt>
      <trkpt lat="49.31938" lon="1.15741">
        <ele>12</ele>
        <time>2024-10-15T13:35:24.187+00:00</time>
      </trkpt>
      <trkpt lat="49.31939" lon="1.15748">
        <ele>12</ele>
        <time>2024-10-15T13:35:28.206+00:00</time>
      </trkpt>
      <trkpt lat="49.31941" lon="1.15755">
        <ele>12</ele>
        <time>2024-10-15T13:35:32.291+00:00</time>
      </trkpt>
      <trkpt lat="49.31941" lon="1.15761">
        <ele>12</ele>
        <time>2024-10-15T13:35:36.306+00:00</time>
      </trkpt>
      <trkpt lat="49.31938" lon="1.15769">
        <ele>12</ele>
        <time>2024-10-15T13:35:41.165+00:00</time>
      </trkpt>
      <trkpt lat="49.31935" lon="1.15775">
        <ele>12</ele>
        <time>2024-10-15T13:35:45.650+00:00</time>
      </trkpt>
      <trkpt lat="49.31931" lon="1.15781">
        <ele>12</ele>
        <time>2024-10-15T13:35:49.682+00:00</time>
      </trkpt>
      <trkpt lat="49.31928" lon="1.15786">
        <ele>10</ele>
        <time>2024-10-15T13:35:53.686+00:00</time>
      </trkpt>
      <trkpt lat="49.31924" lon="1.15793">
        <ele>10</ele>
        <time>2024-10-15T13:35:58.211+00:00</time>
      </trkpt>
      <trkpt lat="49.3192" lon="1.158">
        <ele>10</ele>
        <time>2024-10-15T13:36:02.772+00:00</time>
      </trkpt>
      <trkpt lat="49.31916" lon="1.15807">
        <ele>10</ele>
        <time>2024-10-15T13:36:07.327+00:00</time>
      </trkpt>
      <trkpt lat="49.31912" lon="1.15812">
        <ele>10</ele>
        <time>2024-10-15T13:36:11.330+00:00</time>
      </trkpt>
      <trkpt lat="49.31909" lon="1.15818">
        <ele>10</ele>
        <time>2024-10-15T13:36:15.871+00:00</time>
      </trkpt>
      <trkpt lat="49.31905" lon="1.15824">
        <ele>10</ele>
        <time>2024-10-15T13:36:20.448+00:00</time>
      </trkpt>
      <trkpt lat="49.31901" lon="1.15829">
        <ele>10</ele>
        <time>2024-10-15T13:36:24.462+00:00</time>
      </trkpt>
      <trkpt lat="49.31901" lon="1.15837">
        <ele>10</ele>
        <time>2024-10-15T13:36:28.572+00:00</time>
      </trkpt>
      <trkpt lat="49.31902" lon="1.15845">
        <ele>10</ele>
        <time>2024-10-15T13:36:32.986+00:00</time>
      </trkpt>
      <trkpt lat="49.31903" lon="1.15853">
        <ele>11</ele>
        <time>2024-10-15T13:36:37.450+00:00</time>
      </trkpt>
      <trkpt lat="49.31905" lon="1.15861">
        <ele>11</ele>
        <time>2024-10-15T13:36:41.785+00:00</time>
      </trkpt>
      <trkpt lat="49.31908" lon="1.15867">
        <ele>11</ele>
        <time>2024-10-15T13:36:46.111+00:00</time>
      </trkpt>
      <trkpt lat="49.31908" lon="1.15874">
        <ele>11</ele>
        <time>2024-10-15T13:36:50.565+00:00</time>
      </trkpt>
      <trkpt lat="49.31906" lon="1.15884">
        <ele>11</ele>
        <time>2024-10-15T13:36:54.628+00:00</time>
      </trkpt>
      <trkpt lat="49.31905" lon="1.15895">
        <ele>11</ele>
        <time>2024-10-15T13:36:59.124+00:00</time>
      </trkpt>
      <trkpt lat="49.31906" lon="1.15903">
        <ele>11</ele>
        <time>2024-10-15T13:37:03.647+00:00</time>
      </trkpt>
      <trkpt lat="49.31906" lon="1.1591">
        <ele>11</ele>
        <time>2024-10-15T13:37:08.212+00:00</time>
      </trkpt>
      <trkpt lat="49.31907" lon="1.15917">
        <ele>11</ele>
        <time>2024-10-15T13:37:12.306+00:00</time>
      </trkpt>
      <trkpt lat="49.31909" lon="1.15916">
        <ele>11</ele>
        <time>2024-10-15T13:38:00.458+00:00</time>
      </trkpt>
      <trkpt lat="49.3191" lon="1.15914">
        <ele>11</ele>
        <time>2024-10-15T13:38:04.465+00:00</time>
      </trkpt>
      <trkpt lat="49.31912" lon="1.15914">
        <ele>11</ele>
        <time>2024-10-15T13:38:09.467+00:00</time>
      </trkpt>
      <trkpt lat="49.31915" lon="1.15913">
        <ele>11</ele>
        <time>2024-10-15T13:38:13.995+00:00</time>
      </trkpt>
      <trkpt lat="49.31921" lon="1.15914">
        <ele>11</ele>
        <time>2024-10-15T13:38:18.472+00:00</time>
      </trkpt>
      <trkpt lat="49.31925" lon="1.15916">
        <ele>11</ele>
        <time>2024-10-15T13:38:22.965+00:00</time>
      </trkpt>
      <trkpt lat="49.31929" lon="1.15916">
        <ele>11</ele>
        <time>2024-10-15T13:38:27.268+00:00</time>
      </trkpt>
      <trkpt lat="49.31931" lon="1.15919">
        <ele>11</ele>
        <time>2024-10-15T13:38:31.459+00:00</time>
      </trkpt>
      <trkpt lat="49.31935" lon="1.15919">
        <ele>12</ele>
        <time>2024-10-15T13:38:35.854+00:00</time>
      </trkpt>
      <trkpt lat="49.31939" lon="1.15921">
        <ele>12</ele>
        <time>2024-10-15T13:38:40.185+00:00</time>
      </trkpt>
      <trkpt lat="49.31944" lon="1.15922">
        <ele>12</ele>
        <time>2024-10-15T13:38:44.439+00:00</time>
      </trkpt>
      <trkpt lat="49.31948" lon="1.15923">
        <ele>12</ele>
        <time>2024-10-15T13:38:48.931+00:00</time>
      </trkpt>
      <trkpt lat="49.31952" lon="1.15923">
        <ele>12</ele>
        <time>2024-10-15T13:38:53.213+00:00</time>
      </trkpt>
      <trkpt lat="49.31956" lon="1.15926">
        <ele>12</ele>
        <time>2024-10-15T13:38:57.805+00:00</time>
      </trkpt>
      <trkpt lat="49.31961" lon="1.15927">
        <ele>14</ele>
        <time>2024-10-15T13:39:02.284+00:00</time>
      </trkpt>
      <trkpt lat="49.31965" lon="1.15928">
        <ele>14</ele>
        <time>2024-10-15T13:39:06.327+00:00</time>
      </trkpt>
      <trkpt lat="49.3197" lon="1.15929">
        <ele>14</ele>
        <time>2024-10-15T13:39:10.688+00:00</time>
      </trkpt>
      <trkpt lat="49.31979" lon="1.15931">
        <ele>14</ele>
        <time>2024-10-15T13:39:38.431+00:00</time>
      </trkpt>
      <trkpt lat="49.31979" lon="1.15931">
        <ele>14</ele>
        <time>2024-10-15T13:39:43.429+00:00</time>
      </trkpt>
      <trkpt lat="49.31981" lon="1.1593">
        <ele>14</ele>
        <time>2024-10-15T13:39:47.436+00:00</time>
      </trkpt>
      <trkpt lat="49.31984" lon="1.15929">
        <ele>14</ele>
        <time>2024-10-15T13:39:51.855+00:00</time>
      </trkpt>
      <trkpt lat="49.31989" lon="1.1593">
        <ele>16</ele>
        <time>2024-10-15T13:39:56.444+00:00</time>
      </trkpt>
      <trkpt lat="49.31993" lon="1.15931">
        <ele>17</ele>
        <time>2024-10-15T13:40:00.664+00:00</time>
      </trkpt>
      <trkpt lat="49.31998" lon="1.15932">
        <ele>17</ele>
        <time>2024-10-15T13:40:04.827+00:00</time>
      </trkpt>
      <trkpt lat="49.32003" lon="1.15936">
        <ele>17</ele>
        <time>2024-10-15T13:40:08.952+00:00</time>
      </trkpt>
      <trkpt lat="49.32007" lon="1.15936">
        <ele>17</ele>
        <time>2024-10-15T13:40:13.167+00:00</time>
      </trkpt>
      <trkpt lat="49.32011" lon="1.15937">
        <ele>17</ele>
        <time>2024-10-15T13:40:17.456+00:00</time>
      </trkpt>
      <trkpt lat="49.32014" lon="1.15937">
        <ele>21</ele>
        <time>2024-10-15T13:40:22.389+00:00</time>
      </trkpt>
      <trkpt lat="49.32017" lon="1.15937">
        <ele>21</ele>
        <time>2024-10-15T13:40:26.729+00:00</time>
      </trkpt>
      <trkpt lat="49.32019" lon="1.15936">
        <ele>21</ele>
        <time>2024-10-15T13:40:31.190+00:00</time>
      </trkpt>
      <trkpt lat="49.32023" lon="1.15935">
        <ele>21</ele>
        <time>2024-10-15T13:40:35.468+00:00</time>
      </trkpt>
      <trkpt lat="49.32028" lon="1.15936">
        <ele>21</ele>
        <time>2024-10-15T13:40:39.885+00:00</time>
      </trkpt>
      <trkpt lat="49.32032" lon="1.15935">
        <ele>21</ele>
        <time>2024-10-15T13:40:44.227+00:00</time>
      </trkpt>
      <trkpt lat="49.32036" lon="1.15936">
        <ele>21</ele>
        <time>2024-10-15T13:40:48.430+00:00</time>
      </trkpt>
      <trkpt lat="49.32039" lon="1.15937">
        <ele>21</ele>
        <time>2024-10-15T13:40:52.749+00:00</time>
      </trkpt>
      <trkpt lat="49.32042" lon="1.15937">
        <ele>29</ele>
        <time>2024-10-15T13:40:57.132+00:00</time>
      </trkpt>
      <trkpt lat="49.32044" lon="1.15937">
        <ele>29</ele>
        <time>2024-10-15T13:41:01.468+00:00</time>
      </trkpt>
      <trkpt lat="49.32048" lon="1.15938">
        <ele>29</ele>
        <time>2024-10-15T13:41:06.206+00:00</time>
      </trkpt>
      <trkpt lat="49.32051" lon="1.15939">
        <ele>29</ele>
        <time>2024-10-15T13:41:10.707+00:00</time>
      </trkpt>
      <trkpt lat="49.32055" lon="1.15938">
        <ele>29</ele>
        <time>2024-10-15T13:41:15.321+00:00</time>
      </trkpt>
      <trkpt lat="49.32059" lon="1.15936">
        <ele>29</ele>
        <time>2024-10-15T13:41:19.893+00:00</time>
      </trkpt>
      <trkpt lat="49.32063" lon="1.15937">
        <ele>29</ele>
        <time>2024-10-15T13:41:24.024+00:00</time>
      </trkpt>
      <trkpt lat="49.32064" lon="1.15941">
        <ele>29</ele>
        <time>2024-10-15T13:41:28.437+00:00</time>
      </trkpt>
      <trkpt lat="49.32069" lon="1.1594">
        <ele>29</ele>
        <time>2024-10-15T13:41:46.473+00:00</time>
      </trkpt>
      <trkpt lat="49.3207" lon="1.15941">
        <ele>40</ele>
        <time>2024-10-15T13:41:51.431+00:00</time>
      </trkpt>
      <trkpt lat="49.32071" lon="1.15942">
        <ele>40</ele>
        <time>2024-10-15T13:41:55.788+00:00</time>
      </trkpt>
      <trkpt lat="49.32074" lon="1.15942">
        <ele>40</ele>
        <time>2024-10-15T13:42:00.441+00:00</time>
      </trkpt>
      <trkpt lat="49.32076" lon="1.15942">
        <ele>40</ele>
        <time>2024-10-15T13:42:05.365+00:00</time>
      </trkpt>
      <trkpt lat="49.3208" lon="1.15942">
        <ele>40</ele>
        <time>2024-10-15T13:42:15.461+00:00</time>
      </trkpt>
      <trkpt lat="49.32083" lon="1.15941">
        <ele>40</ele>
        <time>2024-10-15T13:42:20.462+00:00</time>
      </trkpt>
      <trkpt lat="49.32084" lon="1.15941">
        <ele>40</ele>
        <time>2024-10-15T13:42:25.459+00:00</time>
      </trkpt>
      <trkpt lat="49.32086" lon="1.15941">
        <ele>40</ele>
        <time>2024-10-15T13:42:30.162+00:00</time>
      </trkpt>
      <trkpt lat="49.32088" lon="1.1594">
        <ele>40</ele>
        <time>2024-10-15T13:42:35.470+00:00</time>
      </trkpt>
      <trkpt lat="49.32095" lon="1.1594">
        <ele>40</ele>
        <time>2024-10-15T13:42:49.748+00:00</time>
      </trkpt>
      <trkpt lat="49.32096" lon="1.1594">
        <ele>40</ele>
        <time>2024-10-15T13:42:54.205+00:00</time>
      </trkpt>
      <trkpt lat="49.32098" lon="1.1594">
        <ele>49</ele>
        <time>2024-10-15T13:42:58.475+00:00</time>
      </trkpt>
      <trkpt lat="49.321" lon="1.15939">
        <ele>49</ele>
        <time>2024-10-15T13:43:03.030+00:00</time>
      </trkpt>
      <trkpt lat="49.32102" lon="1.15938">
        <ele>49</ele>
        <time>2024-10-15T13:43:07.092+00:00</time>
      </trkpt>
      <trkpt lat="49.32107" lon="1.15938">
        <ele>49</ele>
        <time>2024-10-15T13:43:24.433+00:00</time>
      </trkpt>
      <trkpt lat="49.32109" lon="1.15939">
        <ele>49</ele>
        <time>2024-10-15T13:43:28.463+00:00</time>
      </trkpt>
      <trkpt lat="49.3211" lon="1.15938">
        <ele>49</ele>
        <time>2024-10-15T13:43:32.459+00:00</time>
      </trkpt>
      <trkpt lat="49.32112" lon="1.15938">
        <ele>49</ele>
        <time>2024-10-15T13:43:36.457+00:00</time>
      </trkpt>
      <trkpt lat="49.32114" lon="1.15939">
        <ele>49</ele>
        <time>2024-10-15T13:43:41.455+00:00</time>
      </trkpt>
      <trkpt lat="49.32124" lon="1.15938">
        <ele>49</ele>
        <time>2024-10-15T13:44:20.431+00:00</time>
      </trkpt>
      <trkpt lat="49.32124" lon="1.15938">
        <ele>49</ele>
        <time>2024-10-15T13:44:24.457+00:00</time>
      </trkpt>
      <trkpt lat="49.32128" lon="1.15937">
        <ele>58</ele>
        <time>2024-10-15T13:44:29.423+00:00</time>
      </trkpt>
      <trkpt lat="49.3213" lon="1.15937">
        <ele>58</ele>
        <time>2024-10-15T13:44:33.404+00:00</time>
      </trkpt>
      <trkpt lat="49.3213" lon="1.15937">
        <ele>58</ele>
        <time>2024-10-15T13:44:37.442+00:00</time>
      </trkpt>
      <trkpt lat="49.32134" lon="1.1594">
        <ele>58</ele>
        <time>2024-10-15T13:44:59.383+00:00</time>
      </trkpt>
      <trkpt lat="49.32136" lon="1.1594">
        <ele>58</ele>
        <time>2024-10-15T13:45:03.466+00:00</time>
      </trkpt>
      <trkpt lat="49.32138" lon="1.1594">
        <ele>58</ele>
        <time>2024-10-15T13:45:08.267+00:00</time>
      </trkpt>
      <trkpt lat="49.32139" lon="1.1594">
        <ele>58</ele>
        <time>2024-10-15T13:45:12.368+00:00</time>
      </trkpt>
      <trkpt lat="49.32142" lon="1.15939">
        <ele>58</ele>
        <time>2024-10-15T13:45:16.444+00:00</time>
      </trkpt>
      <trkpt lat="49.3215" lon="1.15944">
        <ele>58</ele>
        <time>2024-10-15T13:46:01.212+00:00</time>
      </trkpt>
      <trkpt lat="49.32151" lon="1.15945">
        <ele>58</ele>
        <time>2024-10-15T13:46:05.472+00:00</time>
      </trkpt>
      <trkpt lat="49.32154" lon="1.15948">
        <ele>67</ele>
        <time>2024-10-15T13:46:09.470+00:00</time>
      </trkpt>
      <trkpt lat="49.32154" lon="1.15948">
        <ele>67</ele>
        <time>2024-10-15T13:46:14.026+00:00</time>
      </trkpt>
      <trkpt lat="49.32154" lon="1.15949">
        <ele>67</ele>
        <time>2024-10-15T13:46:18.459+00:00</time>
      </trkpt>
      <trkpt lat="49.32159" lon="1.15949">
        <ele>67</ele>
        <time>2024-10-15T13:46:36.406+00:00</time>
      </trkpt>
      <trkpt lat="49.32159" lon="1.15949">
        <ele>67</ele>
        <time>2024-10-15T13:46:40.462+00:00</time>
      </trkpt>
      <trkpt lat="49.32161" lon="1.1595">
        <ele>67</ele>
        <time>2024-10-15T13:46:44.477+00:00</time>
      </trkpt>
      <trkpt lat="49.32163" lon="1.15951">
        <ele>67</ele>
        <time>2024-10-15T13:46:49.497+00:00</time>
      </trkpt>
      <trkpt lat="49.32165" lon="1.15951">
        <ele>67</ele>
        <time>2024-10-15T13:46:54.457+00:00</time>
      </trkpt>
      <trkpt lat="49.32169" lon="1.15953">
        <ele>67</ele>
        <time>2024-10-15T13:47:09.433+00:00</time>
      </trkpt>
      <trkpt lat="49.32171" lon="1.15955">
        <ele>67</ele>
        <time>2024-10-15T13:47:14.435+00:00</time>
      </trkpt>
      <trkpt lat="49.32172" lon="1.15955">
        <ele>67</ele>
        <time>2024-10-15T13:47:18.441+00:00</time>
      </trkpt>
      <trkpt lat="49.32175" lon="1.15956">
        <ele>67</ele>
        <time>2024-10-15T13:47:23.456+00:00</time>
      </trkpt>
      <trkpt lat="49.32176" lon="1.15956">
        <ele>67</ele>
        <time>2024-10-15T13:47:29.458+00:00</time>
      </trkpt>
      <trkpt lat="49.32189" lon="1.15962">
        <ele>73</ele>
        <time>2024-10-15T13:48:11.473+00:00</time>
      </trkpt>
      <trkpt lat="49.32189" lon="1.15963">
        <ele>73</ele>
        <time>2024-10-15T13:48:18.478+00:00</time>
      </trkpt>
      <trkpt lat="49.32191" lon="1.15963">
        <ele>73</ele>
        <time>2024-10-15T13:48:23.432+00:00</time>
      </trkpt>
      <trkpt lat="49.32195" lon="1.15965">
        <ele>73</ele>
        <time>2024-10-15T13:48:28.102+00:00</time>
      </trkpt>
      <trkpt lat="49.32199" lon="1.15965">
        <ele>73</ele>
        <time>2024-10-15T13:48:32.431+00:00</time>
      </trkpt>
      <trkpt lat="49.322" lon="1.15963">
        <ele>73</ele>
        <time>2024-10-15T13:50:11.423+00:00</time>
      </trkpt>
      <trkpt lat="49.32202" lon="1.15961">
        <ele>73</ele>
        <time>2024-10-15T13:50:15.453+00:00</time>
      </trkpt>
      <trkpt lat="49.32205" lon="1.15959">
        <ele>73</ele>
        <time>2024-10-15T13:50:20.188+00:00</time>
      </trkpt>
      <trkpt lat="49.3221" lon="1.15965">
        <ele>76</ele>
        <time>2024-10-15T13:50:24.866+00:00</time>
      </trkpt>
      <trkpt lat="49.32214" lon="1.15968">
        <ele>76</ele>
        <time>2024-10-15T13:50:29.479+00:00</time>
      </trkpt>
      <trkpt lat="49.32217" lon="1.1597">
        <ele>76</ele>
        <time>2024-10-15T13:50:34.444+00:00</time>
      </trkpt>
      <trkpt lat="49.3222" lon="1.15971">
        <ele>76</ele>
        <time>2024-10-15T13:50:39.187+00:00</time>
      </trkpt>
      <trkpt lat="49.32222" lon="1.15972">
        <ele>76</ele>
        <time>2024-10-15T13:50:43.434+00:00</time>
      </trkpt>
      <trkpt lat="49.32225" lon="1.15973">
        <ele>76</ele>
        <time>2024-10-15T13:50:47.436+00:00</time>
      </trkpt>
      <trkpt lat="49.32228" lon="1.15973">
        <ele>76</ele>
        <time>2024-10-15T13:50:51.451+00:00</time>
      </trkpt>
      <trkpt lat="49.32231" lon="1.15972">
        <ele>76</ele>
        <time>2024-10-15T13:50:55.462+00:00</time>
      </trkpt>
      <trkpt lat="49.32234" lon="1.15973">
        <ele>76</ele>
        <time>2024-10-15T13:50:59.467+00:00</time>
      </trkpt>
      <trkpt lat="49.32238" lon="1.15973">
        <ele>78</ele>
        <time>2024-10-15T13:51:04.270+00:00</time>
      </trkpt>
      <trkpt lat="49.32238" lon="1.15974">
        <ele>78</ele>
        <time>2024-10-15T13:51:09.472+00:00</time>
      </trkpt>
      <trkpt lat="49.32242" lon="1.15975">
        <ele>78</ele>
        <time>2024-10-15T13:51:14.108+00:00</time>
      </trkpt>
      <trkpt lat="49.32248" lon="1.15975">
        <ele>78</ele>
        <time>2024-10-15T13:51:18.428+00:00</time>
      </trkpt>
      <trkpt lat="49.32252" lon="1.15974">
        <ele>78</ele>
        <time>2024-10-15T13:51:22.686+00:00</time>
      </trkpt>
      <trkpt lat="49.32256" lon="1.15972">
        <ele>78</ele>
        <time>2024-10-15T13:51:27.151+00:00</time>
      </trkpt>
      <trkpt lat="49.32259" lon="1.15971">
        <ele>78</ele>
        <time>2024-10-15T13:51:31.187+00:00</time>
      </trkpt>
      <trkpt lat="49.32263" lon="1.15971">
        <ele>78</ele>
        <time>2024-10-15T13:51:35.266+00:00</time>
      </trkpt>
      <trkpt lat="49.32267" lon="1.15972">
        <ele>78</ele>
        <time>2024-10-15T13:51:40.010+00:00</time>
      </trkpt>
      <trkpt lat="49.32271" lon="1.15972">
        <ele>78</ele>
        <time>2024-10-15T13:51:44.368+00:00</time>
      </trkpt>
      <trkpt lat="49.32274" lon="1.15974">
        <ele>78</ele>
        <time>2024-10-15T13:51:48.664+00:00</time>
      </trkpt>
      <trkpt lat="49.32278" lon="1.15975">
        <ele>78</ele>
        <time>2024-10-15T13:51:53.245+00:00</time>
      </trkpt>
      <trkpt lat="49.32282" lon="1.15973">
        <ele>78</ele>
        <time>2024-10-15T13:51:57.868+00:00</time>
      </trkpt>
      <trkpt lat="49.32286" lon="1.15972">
        <ele>78</ele>
        <time>2024-10-15T13:52:02.087+00:00</time>
      </trkpt>
      <trkpt lat="49.3229" lon="1.15971">
        <ele>78</ele>
        <time>2024-10-15T13:52:06.708+00:00</time>
      </trkpt>
      <trkpt lat="49.32295" lon="1.15973">
        <ele>78</ele>
        <time>2024-10-15T13:52:10.744+00:00</time>
      </trkpt>
      <trkpt lat="49.32301" lon="1.15975">
        <ele>78</ele>
        <time>2024-10-15T13:52:15.313+00:00</time>
      </trkpt>
      <trkpt lat="49.32306" lon="1.15976">
        <ele>78</ele>
        <time>2024-10-15T13:52:19.850+00:00</time>
      </trkpt>
      <trkpt lat="49.32312" lon="1.15978">
        <ele>78</ele>
        <time>2024-10-15T13:52:24.374+00:00</time>
      </trkpt>
      <trkpt lat="49.32317" lon="1.15981">
        <ele>78</ele>
        <time>2024-10-15T13:52:29.047+00:00</time>
      </trkpt>
      <trkpt lat="49.32322" lon="1.15983">
        <ele>78</ele>
        <time>2024-10-15T13:52:33.228+00:00</time>
      </trkpt>
      <trkpt lat="49.32327" lon="1.15985">
        <ele>78</ele>
        <time>2024-10-15T13:52:37.466+00:00</time>
      </trkpt>
      <trkpt lat="49.32331" lon="1.15987">
        <ele>79</ele>
        <time>2024-10-15T13:52:42.110+00:00</time>
      </trkpt>
      <trkpt lat="49.32336" lon="1.15988">
        <ele>79</ele>
        <time>2024-10-15T13:52:46.445+00:00</time>
      </trkpt>
      <trkpt lat="49.3234" lon="1.1599">
        <ele>79</ele>
        <time>2024-10-15T13:52:50.991+00:00</time>
      </trkpt>
      <trkpt lat="49.32344" lon="1.15995">
        <ele>79</ele>
        <time>2024-10-15T13:52:55.069+00:00</time>
      </trkpt>
      <trkpt lat="49.32348" lon="1.15999">
        <ele>80</ele>
        <time>2024-10-15T13:52:59.204+00:00</time>
      </trkpt>
      <trkpt lat="49.32352" lon="1.16003">
        <ele>80</ele>
        <time>2024-10-15T13:53:03.470+00:00</time>
      </trkpt>
      <trkpt lat="49.32357" lon="1.16005">
        <ele>80</ele>
        <time>2024-10-15T13:53:07.689+00:00</time>
      </trkpt>
      <trkpt lat="49.32362" lon="1.16007">
        <ele>80</ele>
        <time>2024-10-15T13:53:11.704+00:00</time>
      </trkpt>
      <trkpt lat="49.32367" lon="1.1601">
        <ele>80</ele>
        <time>2024-10-15T13:53:15.907+00:00</time>
      </trkpt>
      <trkpt lat="49.3237" lon="1.16013">
        <ele>80</ele>
        <time>2024-10-15T13:53:20.082+00:00</time>
      </trkpt>
      <trkpt lat="49.32376" lon="1.16016">
        <ele>80</ele>
        <time>2024-10-15T13:53:24.308+00:00</time>
      </trkpt>
      <trkpt lat="49.3238" lon="1.16018">
        <ele>80</ele>
        <time>2024-10-15T13:53:28.633+00:00</time>
      </trkpt>
      <trkpt lat="49.32384" lon="1.16021">
        <ele>80</ele>
        <time>2024-10-15T13:53:32.789+00:00</time>
      </trkpt>
      <trkpt lat="49.32388" lon="1.16025">
        <ele>80</ele>
        <time>2024-10-15T13:53:36.892+00:00</time>
      </trkpt>
      <trkpt lat="49.32392" lon="1.16027">
        <ele>80</ele>
        <time>2024-10-15T13:53:41.146+00:00</time>
      </trkpt>
      <trkpt lat="49.32396" lon="1.1603">
        <ele>80</ele>
        <time>2024-10-15T13:53:45.246+00:00</time>
      </trkpt>
      <trkpt lat="49.32401" lon="1.16032">
        <ele>80</ele>
        <time>2024-10-15T13:53:49.854+00:00</time>
      </trkpt>
      <trkpt lat="49.32406" lon="1.16035">
        <ele>79</ele>
        <time>2024-10-15T13:53:54.430+00:00</time>
      </trkpt>
      <trkpt lat="49.3241" lon="1.16037">
        <ele>79</ele>
        <time>2024-10-15T13:53:58.466+00:00</time>
      </trkpt>
      <trkpt lat="49.32415" lon="1.1604">
        <ele>79</ele>
        <time>2024-10-15T13:54:02.764+00:00</time>
      </trkpt>
      <trkpt lat="49.32419" lon="1.16042">
        <ele>79</ele>
        <time>2024-10-15T13:54:06.910+00:00</time>
      </trkpt>
      <trkpt lat="49.32424" lon="1.16044">
        <ele>79</ele>
        <time>2024-10-15T13:54:11.037+00:00</time>
      </trkpt>
      <trkpt lat="49.32428" lon="1.16046">
        <ele>79</ele>
        <time>2024-10-15T13:54:15.049+00:00</time>
      </trkpt>
      <trkpt lat="49.32432" lon="1.16048">
        <ele>77</ele>
        <time>2024-10-15T13:54:19.053+00:00</time>
      </trkpt>
      <trkpt lat="49.32437" lon="1.1605">
        <ele>77</ele>
        <time>2024-10-15T13:54:23.247+00:00</time>
      </trkpt>
      <trkpt lat="49.32441" lon="1.16052">
        <ele>77</ele>
        <time>2024-10-15T13:54:27.791+00:00</time>
      </trkpt>
      <trkpt lat="49.32446" lon="1.16053">
        <ele>77</ele>
        <time>2024-10-15T13:54:31.829+00:00</time>
      </trkpt>
      <trkpt lat="49.32451" lon="1.16055">
        <ele>77</ele>
        <time>2024-10-15T13:54:36.048+00:00</time>
      </trkpt>
      <trkpt lat="49.32455" lon="1.16057">
        <ele>77</ele>
        <time>2024-10-15T13:54:40.754+00:00</time>
      </trkpt>
      <trkpt lat="49.32461" lon="1.16059">
        <ele>75</ele>
        <time>2024-10-15T13:54:45.268+00:00</time>
      </trkpt>
      <trkpt lat="49.32465" lon="1.16059">
        <ele>75</ele>
        <time>2024-10-15T13:54:49.352+00:00</time>
      </trkpt>
      <trkpt lat="49.3247" lon="1.16059">
        <ele>75</ele>
        <time>2024-10-15T13:54:53.485+00:00</time>
      </trkpt>
      <trkpt lat="49.32474" lon="1.16061">
        <ele>75</ele>
        <time>2024-10-15T13:54:57.476+00:00</time>
      </trkpt>
      <trkpt lat="49.32479" lon="1.16063">
        <ele>75</ele>
        <time>2024-10-15T13:55:01.629+00:00</time>
      </trkpt>
      <trkpt lat="49.32483" lon="1.16064">
        <ele>75</ele>
        <time>2024-10-15T13:55:05.723+00:00</time>
      </trkpt>
      <trkpt lat="49.32488" lon="1.16067">
        <ele>74</ele>
        <time>2024-10-15T13:55:10.435+00:00</time>
      </trkpt>
      <trkpt lat="49.32493" lon="1.16069">
        <ele>74</ele>
        <time>2024-10-15T13:55:14.572+00:00</time>
      </trkpt>
      <trkpt lat="49.32498" lon="1.1607">
        <ele>75</ele>
        <time>2024-10-15T13:55:19.146+00:00</time>
      </trkpt>
      <trkpt lat="49.32503" lon="1.16072">
        <ele>75</ele>
        <time>2024-10-15T13:55:23.294+00:00</time>
      </trkpt>
      <trkpt lat="49.32507" lon="1.16074">
        <ele>75</ele>
        <time>2024-10-15T13:55:27.424+00:00</time>
      </trkpt>
      <trkpt lat="49.32512" lon="1.16075">
        <ele>75</ele>
        <time>2024-10-15T13:55:31.452+00:00</time>
      </trkpt>
      <trkpt lat="49.32517" lon="1.16076">
        <ele>73</ele>
        <time>2024-10-15T13:55:35.465+00:00</time>
      </trkpt>
      <trkpt lat="49.32521" lon="1.16077">
        <ele>73</ele>
        <time>2024-10-15T13:55:39.852+00:00</time>
      </trkpt>
      <trkpt lat="49.32525" lon="1.1608">
        <ele>73</ele>
        <time>2024-10-15T13:55:43.969+00:00</time>
      </trkpt>
      <trkpt lat="49.32529" lon="1.16082">
        <ele>73</ele>
        <time>2024-10-15T13:55:48.129+00:00</time>
      </trkpt>
      <trkpt lat="49.32534" lon="1.16083">
        <ele>73</ele>
        <time>2024-10-15T13:55:52.335+00:00</time>
      </trkpt>
      <trkpt lat="49.32538" lon="1.16085">
        <ele>73</ele>
        <time>2024-10-15T13:55:56.447+00:00</time>
      </trkpt>
      <trkpt lat="49.32542" lon="1.16087">
        <ele>73</ele>
        <time>2024-10-15T13:56:00.628+00:00</time>
      </trkpt>
      <trkpt lat="49.32546" lon="1.16089">
        <ele>73</ele>
        <time>2024-10-15T13:56:04.770+00:00</time>
      </trkpt>
      <trkpt lat="49.3255" lon="1.16092">
        <ele>73</ele>
        <time>2024-10-15T13:56:08.874+00:00</time>
      </trkpt>
      <trkpt lat="49.32555" lon="1.16095">
        <ele>73</ele>
        <time>2024-10-15T13:56:12.984+00:00</time>
      </trkpt>
      <trkpt lat="49.3256" lon="1.16096">
        <ele>73</ele>
        <time>2024-10-15T13:56:17.465+00:00</time>
      </trkpt>
      <trkpt lat="49.32565" lon="1.16098">
        <ele>75</ele>
        <time>2024-10-15T13:56:22.169+00:00</time>
      </trkpt>
      <trkpt lat="49.32569" lon="1.161">
        <ele>75</ele>
        <time>2024-10-15T13:56:26.352+00:00</time>
      </trkpt>
      <trkpt lat="49.32573" lon="1.16103">
        <ele>76</ele>
        <time>2024-10-15T13:56:30.395+00:00</time>
      </trkpt>
      <trkpt lat="49.32578" lon="1.16107">
        <ele>76</ele>
        <time>2024-10-15T13:56:35.105+00:00</time>
      </trkpt>
      <trkpt lat="49.32583" lon="1.1611">
        <ele>76</ele>
        <time>2024-10-15T13:56:39.250+00:00</time>
      </trkpt>
      <trkpt lat="49.32587" lon="1.16112">
        <ele>76</ele>
        <time>2024-10-15T13:56:43.392+00:00</time>
      </trkpt>
      <trkpt lat="49.32591" lon="1.16115">
        <ele>76</ele>
        <time>2024-10-15T13:56:47.483+00:00</time>
      </trkpt>
      <trkpt lat="49.32595" lon="1.16117">
        <ele>76</ele>
        <time>2024-10-15T13:56:51.726+00:00</time>
      </trkpt>
      <trkpt lat="49.32598" lon="1.16117">
        <ele>77</ele>
        <time>2024-10-15T13:56:56.168+00:00</time>
      </trkpt>
      <trkpt lat="49.326" lon="1.16116">
        <ele>77</ele>
        <time>2024-10-15T13:57:45.448+00:00</time>
      </trkpt>
      <trkpt lat="49.326" lon="1.16115">
        <ele>77</ele>
        <time>2024-10-15T13:57:50.460+00:00</time>
      </trkpt>
      <trkpt lat="49.32601" lon="1.16114">
        <ele>77</ele>
        <time>2024-10-15T13:57:54.906+00:00</time>
      </trkpt>
      <trkpt lat="49.32607" lon="1.16117">
        <ele>77</ele>
        <time>2024-10-15T13:57:59.151+00:00</time>
      </trkpt>
      <trkpt lat="49.32609" lon="1.16124">
        <ele>77</ele>
        <time>2024-10-15T13:58:03.607+00:00</time>
      </trkpt>
      <trkpt lat="49.32613" lon="1.1613">
        <ele>79</ele>
        <time>2024-10-15T13:58:07.611+00:00</time>
      </trkpt>
      <trkpt lat="49.32618" lon="1.16136">
        <ele>79</ele>
        <time>2024-10-15T13:58:12.086+00:00</time>
      </trkpt>
      <trkpt lat="49.32623" lon="1.16141">
        <ele>79</ele>
        <time>2024-10-15T13:58:16.466+00:00</time>
      </trkpt>
      <trkpt lat="49.32628" lon="1.16145">
        <ele>79</ele>
        <time>2024-10-15T13:58:20.933+00:00</time>
      </trkpt>
      <trkpt lat="49.32628" lon="1.16146">
        <ele>79</ele>
        <time>2024-10-15T13:58:30.455+00:00</time>
      </trkpt>
      <trkpt lat="49.32629" lon="1.16147">
        <ele>79</ele>
        <time>2024-10-15T13:58:34.454+00:00</time>
      </trkpt>
      <trkpt lat="49.3263" lon="1.16147">
        <ele>79</ele>
        <time>2024-10-15T13:58:39.451+00:00</time>
      </trkpt>
      <trkpt lat="49.32635" lon="1.16149">
        <ele>79</ele>
        <time>2024-10-15T13:58:43.873+00:00</time>
      </trkpt>
      <trkpt lat="49.3264" lon="1.16153">
        <ele>80</ele>
        <time>2024-10-15T13:58:48.371+00:00</time>
      </trkpt>
      <trkpt lat="49.32645" lon="1.16155">
        <ele>80</ele>
        <time>2024-10-15T13:58:52.374+00:00</time>
      </trkpt>
      <trkpt lat="49.32651" lon="1.16159">
        <ele>80</ele>
        <time>2024-10-15T13:58:56.929+00:00</time>
      </trkpt>
      <trkpt lat="49.32656" lon="1.16163">
        <ele>78</ele>
        <time>2024-10-15T13:59:01.450+00:00</time>
      </trkpt>
      <trkpt lat="49.32661" lon="1.16166">
        <ele>78</ele>
        <time>2024-10-15T13:59:05.927+00:00</time>
      </trkpt>
      <trkpt lat="49.32664" lon="1.16164">
        <ele>78</ele>
        <time>2024-10-15T13:59:10.329+00:00</time>
      </trkpt>
      <trkpt lat="49.32668" lon="1.16169">
        <ele>78</ele>
        <time>2024-10-15T13:59:14.375+00:00</time>
      </trkpt>
      <trkpt lat="49.32672" lon="1.1617">
        <ele>78</ele>
        <time>2024-10-15T13:59:18.968+00:00</time>
      </trkpt>
      <trkpt lat="49.32677" lon="1.16172">
        <ele>78</ele>
        <time>2024-10-15T13:59:23.443+00:00</time>
      </trkpt>
      <trkpt lat="49.32681" lon="1.16175">
        <ele>76</ele>
        <time>2024-10-15T13:59:27.462+00:00</time>
      </trkpt>
      <trkpt lat="49.32686" lon="1.16177">
        <ele>76</ele>
        <time>2024-10-15T13:59:32.108+00:00</time>
      </trkpt>
      <trkpt lat="49.32691" lon="1.16179">
        <ele>76</ele>
        <time>2024-10-15T13:59:36.153+00:00</time>
      </trkpt>
      <trkpt lat="49.32696" lon="1.1618">
        <ele>76</ele>
        <time>2024-10-15T13:59:40.704+00:00</time>
      </trkpt>
      <trkpt lat="49.327" lon="1.16182">
        <ele>76</ele>
        <time>2024-10-15T13:59:44.711+00:00</time>
      </trkpt>
      <trkpt lat="49.32704" lon="1.16183">
        <ele>76</ele>
        <time>2024-10-15T13:59:48.732+00:00</time>
      </trkpt>
      <trkpt lat="49.32709" lon="1.16184">
        <ele>73</ele>
        <time>2024-10-15T13:59:52.810+00:00</time>
      </trkpt>
      <trkpt lat="49.32714" lon="1.16185">
        <ele>73</ele>
        <time>2024-10-15T13:59:57.308+00:00</time>
      </trkpt>
      <trkpt lat="49.32719" lon="1.16188">
        <ele>73</ele>
        <time>2024-10-15T14:00:01.743+00:00</time>
      </trkpt>
      <trkpt lat="49.32723" lon="1.1619">
        <ele>73</ele>
        <time>2024-10-15T14:00:05.791+00:00</time>
      </trkpt>
      <trkpt lat="49.32728" lon="1.16192">
        <ele>73</ele>
        <time>2024-10-15T14:00:10.447+00:00</time>
      </trkpt>
      <trkpt lat="49.32733" lon="1.16195">
        <ele>73</ele>
        <time>2024-10-15T14:00:15.428+00:00</time>
      </trkpt>
      <trkpt lat="49.32738" lon="1.16196">
        <ele>73</ele>
        <time>2024-10-15T14:00:19.424+00:00</time>
      </trkpt>
      <trkpt lat="49.32742" lon="1.16197">
        <ele>73</ele>
        <time>2024-10-15T14:00:23.440+00:00</time>
      </trkpt>
      <trkpt lat="49.32747" lon="1.16201">
        <ele>73</ele>
        <time>2024-10-15T14:00:27.425+00:00</time>
      </trkpt>
      <trkpt lat="49.32752" lon="1.16204">
        <ele>73</ele>
        <time>2024-10-15T14:00:31.933+00:00</time>
      </trkpt>
      <trkpt lat="49.32756" lon="1.16209">
        <ele>74</ele>
        <time>2024-10-15T14:00:36.373+00:00</time>
      </trkpt>
      <trkpt lat="49.3276" lon="1.16214">
        <ele>74</ele>
        <time>2024-10-15T14:00:40.690+00:00</time>
      </trkpt>
      <trkpt lat="49.32764" lon="1.16219">
        <ele>74</ele>
        <time>2024-10-15T14:00:45.270+00:00</time>
      </trkpt>
      <trkpt lat="49.32768" lon="1.16222">
        <ele>73</ele>
        <time>2024-10-15T14:00:49.889+00:00</time>
      </trkpt>
      <trkpt lat="49.32773" lon="1.16226">
        <ele>73</ele>
        <time>2024-10-15T14:00:54.369+00:00</time>
      </trkpt>
      <trkpt lat="49.32778" lon="1.16231">
        <ele>73</ele>
        <time>2024-10-15T14:00:58.824+00:00</time>
      </trkpt>
      <trkpt lat="49.32783" lon="1.16236">
        <ele>73</ele>
        <time>2024-10-15T14:01:03.332+00:00</time>
      </trkpt>
      <trkpt lat="49.32787" lon="1.16241">
        <ele>74</ele>
        <time>2024-10-15T14:01:07.909+00:00</time>
      </trkpt>
      <trkpt lat="49.32791" lon="1.16246">
        <ele>74</ele>
        <time>2024-10-15T14:01:12.345+00:00</time>
      </trkpt>
      <trkpt lat="49.32795" lon="1.16251">
        <ele>72</ele>
        <time>2024-10-15T14:01:16.908+00:00</time>
      </trkpt>
      <trkpt lat="49.32799" lon="1.16257">
        <ele>72</ele>
        <time>2024-10-15T14:01:21.249+00:00</time>
      </trkpt>
      <trkpt lat="49.32803" lon="1.16261">
        <ele>72</ele>
        <time>2024-10-15T14:01:25.771+00:00</time>
      </trkpt>
      <trkpt lat="49.32806" lon="1.16266">
        <ele>74</ele>
        <time>2024-10-15T14:01:30.124+00:00</time>
      </trkpt>
      <trkpt lat="49.3281" lon="1.16272">
        <ele>74</ele>
        <time>2024-10-15T14:01:34.626+00:00</time>
      </trkpt>
      <trkpt lat="49.32812" lon="1.16277">
        <ele>74</ele>
        <time>2024-10-15T14:01:39.086+00:00</time>
      </trkpt>
      <trkpt lat="49.32815" lon="1.16283">
        <ele>74</ele>
        <time>2024-10-15T14:01:43.449+00:00</time>
      </trkpt>
      <trkpt lat="49.32818" lon="1.16289">
        <ele>74</ele>
        <time>2024-10-15T14:01:48.089+00:00</time>
      </trkpt>
      <trkpt lat="49.3282" lon="1.16294">
        <ele>77</ele>
        <time>2024-10-15T14:01:52.441+00:00</time>
      </trkpt>
      <trkpt lat="49.32823" lon="1.16299">
        <ele>77</ele>
        <time>2024-10-15T14:01:56.436+00:00</time>
      </trkpt>
      <trkpt lat="49.32827" lon="1.16303">
        <ele>77</ele>
        <time>2024-10-15T14:02:00.443+00:00</time>
      </trkpt>
      <trkpt lat="49.3283" lon="1.16307">
        <ele>77</ele>
        <time>2024-10-15T14:02:04.968+00:00</time>
      </trkpt>
      <trkpt lat="49.32834" lon="1.16311">
        <ele>77</ele>
        <time>2024-10-15T14:02:09.439+00:00</time>
      </trkpt>
      <trkpt lat="49.32837" lon="1.16316">
        <ele>77</ele>
        <time>2024-10-15T14:02:13.544+00:00</time>
      </trkpt>
      <trkpt lat="49.32839" lon="1.16321">
        <ele>79</ele>
        <time>2024-10-15T14:02:17.743+00:00</time>
      </trkpt>
      <trkpt lat="49.32843" lon="1.16326">
        <ele>79</ele>
        <time>2024-10-15T14:02:22.367+00:00</time>
      </trkpt>
      <trkpt lat="49.32846" lon="1.16331">
        <ele>79</ele>
        <time>2024-10-15T14:02:26.849+00:00</time>
      </trkpt>
      <trkpt lat="49.3285" lon="1.16335">
        <ele>78</ele>
        <time>2024-10-15T14:02:31.243+00:00</time>
      </trkpt>
      <trkpt lat="49.32853" lon="1.16339">
        <ele>78</ele>
        <time>2024-10-15T14:02:35.439+00:00</time>
      </trkpt>
      <trkpt lat="49.32857" lon="1.16344">
        <ele>78</ele>
        <time>2024-10-15T14:02:40.026+00:00</time>
      </trkpt>
      <trkpt lat="49.32863" lon="1.16346">
        <ele>78</ele>
        <time>2024-10-15T14:02:44.043+00:00</time>
      </trkpt>
      <trkpt lat="49.32867" lon="1.16347">
        <ele>81</ele>
        <time>2024-10-15T14:02:48.166+00:00</time>
      </trkpt>
      <trkpt lat="49.32869" lon="1.16348">
        <ele>81</ele>
        <time>2024-10-15T14:02:52.433+00:00</time>
      </trkpt>
      <trkpt lat="49.32872" lon="1.16349">
        <ele>81</ele>
        <time>2024-10-15T14:02:56.444+00:00</time>
      </trkpt>
      <trkpt lat="49.32876" lon="1.16352">
        <ele>81</ele>
        <time>2024-10-15T14:03:00.664+00:00</time>
      </trkpt>
      <trkpt lat="49.3288" lon="1.16354">
        <ele>81</ele>
        <time>2024-10-15T14:03:05.172+00:00</time>
      </trkpt>
      <trkpt lat="49.32885" lon="1.16357">
        <ele>81</ele>
        <time>2024-10-15T14:03:09.385+00:00</time>
      </trkpt>
      <trkpt lat="49.32888" lon="1.16359">
        <ele>81</ele>
        <time>2024-10-15T14:03:13.446+00:00</time>
      </trkpt>
      <trkpt lat="49.32894" lon="1.16361">
        <ele>81</ele>
        <time>2024-10-15T14:03:17.969+00:00</time>
      </trkpt>
      <trkpt lat="49.32898" lon="1.16363">
        <ele>81</ele>
        <time>2024-10-15T14:03:22.063+00:00</time>
      </trkpt>
      <trkpt lat="49.32902" lon="1.16366">
        <ele>81</ele>
        <time>2024-10-15T14:03:26.150+00:00</time>
      </trkpt>
      <trkpt lat="49.32907" lon="1.16369">
        <ele>82</ele>
        <time>2024-10-15T14:03:30.244+00:00</time>
      </trkpt>
      <trkpt lat="49.32913" lon="1.16371">
        <ele>82</ele>
        <time>2024-10-15T14:03:34.325+00:00</time>
      </trkpt>
      <trkpt lat="49.32919" lon="1.16372">
        <ele>82</ele>
        <time>2024-10-15T14:03:38.368+00:00</time>
      </trkpt>
      <trkpt lat="49.32924" lon="1.16372">
        <ele>82</ele>
        <time>2024-10-15T14:03:42.464+00:00</time>
      </trkpt>
      <trkpt lat="49.32929" lon="1.16371">
        <ele>82</ele>
        <time>2024-10-15T14:03:47.112+00:00</time>
      </trkpt>
      <trkpt lat="49.32934" lon="1.16373">
        <ele>83</ele>
        <time>2024-10-15T14:03:51.124+00:00</time>
      </trkpt>
      <trkpt lat="49.32939" lon="1.16374">
        <ele>83</ele>
        <time>2024-10-15T14:03:55.153+00:00</time>
      </trkpt>
      <trkpt lat="49.32945" lon="1.16375">
        <ele>86</ele>
        <time>2024-10-15T14:03:59.704+00:00</time>
      </trkpt>
      <trkpt lat="49.3295" lon="1.16376">
        <ele>86</ele>
        <time>2024-10-15T14:04:04.270+00:00</time>
      </trkpt>
      <trkpt lat="49.32956" lon="1.16376">
        <ele>86</ele>
        <time>2024-10-15T14:04:08.798+00:00</time>
      </trkpt>
      <trkpt lat="49.32962" lon="1.16375">
        <ele>84</ele>
        <time>2024-10-15T14:04:13.347+00:00</time>
      </trkpt>
      <trkpt lat="49.32968" lon="1.16374">
        <ele>84</ele>
        <time>2024-10-15T14:04:17.367+00:00</time>
      </trkpt>
      <trkpt lat="49.32974" lon="1.16375">
        <ele>84</ele>
        <time>2024-10-15T14:04:21.991+00:00</time>
      </trkpt>
      <trkpt lat="49.32979" lon="1.16377">
        <ele>85</ele>
        <time>2024-10-15T14:04:26.003+00:00</time>
      </trkpt>
      <trkpt lat="49.32984" lon="1.16377">
        <ele>85</ele>
        <time>2024-10-15T14:04:30.104+00:00</time>
      </trkpt>
      <trkpt lat="49.32988" lon="1.16379">
        <ele>86</ele>
        <time>2024-10-15T14:04:34.133+00:00</time>
      </trkpt>
      <trkpt lat="49.32993" lon="1.16382">
        <ele>86</ele>
        <time>2024-10-15T14:04:38.210+00:00</time>
      </trkpt>
      <trkpt lat="49.32999" lon="1.16385">
        <ele>86</ele>
        <time>2024-10-15T14:04:42.265+00:00</time>
      </trkpt>
      <trkpt lat="49.33004" lon="1.16387">
        <ele>86</ele>
        <time>2024-10-15T14:04:46.350+00:00</time>
      </trkpt>
      <trkpt lat="49.33008" lon="1.1639">
        <ele>86</ele>
        <time>2024-10-15T14:04:50.371+00:00</time>
      </trkpt>
      <trkpt lat="49.33012" lon="1.16396">
        <ele>86</ele>
        <time>2024-10-15T14:04:55.055+00:00</time>
      </trkpt>
      <trkpt lat="49.33016" lon="1.16401">
        <ele>86</ele>
        <time>2024-10-15T14:04:59.107+00:00</time>
      </trkpt>
      <trkpt lat="49.3302" lon="1.16406">
        <ele>87</ele>
        <time>2024-10-15T14:05:03.108+00:00</time>
      </trkpt>
      <trkpt lat="49.33024" lon="1.16411">
        <ele>87</ele>
        <time>2024-10-15T14:05:07.251+00:00</time>
      </trkpt>
      <trkpt lat="49.33028" lon="1.16416">
        <ele>87</ele>
        <time>2024-10-15T14:05:11.353+00:00</time>
      </trkpt>
      <trkpt lat="49.33033" lon="1.16422">
        <ele>87</ele>
        <time>2024-10-15T14:05:15.446+00:00</time>
      </trkpt>
      <trkpt lat="49.33037" lon="1.16427">
        <ele>87</ele>
        <time>2024-10-15T14:05:19.464+00:00</time>
      </trkpt>
      <trkpt lat="49.33041" lon="1.16434">
        <ele>88</ele>
        <time>2024-10-15T14:05:23.631+00:00</time>
      </trkpt>
      <trkpt lat="49.33045" lon="1.16439">
        <ele>85</ele>
        <time>2024-10-15T14:05:27.666+00:00</time>
      </trkpt>
      <trkpt lat="49.33049" lon="1.16444">
        <ele>85</ele>
        <time>2024-10-15T14:05:31.750+00:00</time>
      </trkpt>
      <trkpt lat="49.33052" lon="1.16448">
        <ele>85</ele>
        <time>2024-10-15T14:05:35.874+00:00</time>
      </trkpt>
      <trkpt lat="49.33055" lon="1.16455">
        <ele>85</ele>
        <time>2024-10-15T14:05:39.924+00:00</time>
      </trkpt>
      <trkpt lat="49.33058" lon="1.1646">
        <ele>85</ele>
        <time>2024-10-15T14:05:43.949+00:00</time>
      </trkpt>
      <trkpt lat="49.33061" lon="1.16466">
        <ele>85</ele>
        <time>2024-10-15T14:05:48.459+00:00</time>
      </trkpt>
      <trkpt lat="49.33065" lon="1.16472">
        <ele>85</ele>
        <time>2024-10-15T14:05:53.164+00:00</time>
      </trkpt>
      <trkpt lat="49.33068" lon="1.16478">
        <ele>85</ele>
        <time>2024-10-15T14:05:57.207+00:00</time>
      </trkpt>
      <trkpt lat="49.33072" lon="1.16483">
        <ele>83</ele>
        <time>2024-10-15T14:06:01.267+00:00</time>
      </trkpt>
      <trkpt lat="49.33076" lon="1.16489">
        <ele>85</ele>
        <time>2024-10-15T14:06:05.828+00:00</time>
      </trkpt>
      <trkpt lat="49.3308" lon="1.16492">
        <ele>85</ele>
        <time>2024-10-15T14:06:09.852+00:00</time>
      </trkpt>
      <trkpt lat="49.33085" lon="1.16496">
        <ele>85</ele>
        <time>2024-10-15T14:06:13.951+00:00</time>
      </trkpt>
      <trkpt lat="49.33089" lon="1.16499">
        <ele>85</ele>
        <time>2024-10-15T14:06:18.170+00:00</time>
      </trkpt>
      <trkpt lat="49.33093" lon="1.16501">
        <ele>85</ele>
        <time>2024-10-15T14:06:22.333+00:00</time>
      </trkpt>
      <trkpt lat="49.33098" lon="1.16504">
        <ele>84</ele>
        <time>2024-10-15T14:06:26.452+00:00</time>
      </trkpt>
      <trkpt lat="49.33102" lon="1.16506">
        <ele>84</ele>
        <time>2024-10-15T14:06:30.884+00:00</time>
      </trkpt>
      <trkpt lat="49.33106" lon="1.16507">
        <ele>84</ele>
        <time>2024-10-15T14:06:34.887+00:00</time>
      </trkpt>
      <trkpt lat="49.3311" lon="1.1651">
        <ele>84</ele>
        <time>2024-10-15T14:06:39.171+00:00</time>
      </trkpt>
      <trkpt lat="49.33115" lon="1.16514">
        <ele>84</ele>
        <time>2024-10-15T14:06:43.304+00:00</time>
      </trkpt>
      <trkpt lat="49.3312" lon="1.16516">
        <ele>87</ele>
        <time>2024-10-15T14:06:47.386+00:00</time>
      </trkpt>
      <trkpt lat="49.33125" lon="1.16518">
        <ele>87</ele>
        <time>2024-10-15T14:06:51.457+00:00</time>
      </trkpt>
      <trkpt lat="49.3313" lon="1.1652">
        <ele>85</ele>
        <time>2024-10-15T14:06:55.457+00:00</time>
      </trkpt>
      <trkpt lat="49.33135" lon="1.16522">
        <ele>85</ele>
        <time>2024-10-15T14:06:59.608+00:00</time>
      </trkpt>
      <trkpt lat="49.33139" lon="1.16524">
        <ele>85</ele>
        <time>2024-10-15T14:07:03.667+00:00</time>
      </trkpt>
      <trkpt lat="49.33144" lon="1.16527">
        <ele>85</ele>
        <time>2024-10-15T14:07:07.730+00:00</time>
      </trkpt>
      <trkpt lat="49.3315" lon="1.16528">
        <ele>85</ele>
        <time>2024-10-15T14:07:11.891+00:00</time>
      </trkpt>
      <trkpt lat="49.33154" lon="1.1653">
        <ele>84</ele>
        <time>2024-10-15T14:07:16.030+00:00</time>
      </trkpt>
      <trkpt lat="49.33159" lon="1.16533">
        <ele>84</ele>
        <time>2024-10-15T14:07:20.148+00:00</time>
      </trkpt>
      <trkpt lat="49.33164" lon="1.16534">
        <ele>84</ele>
        <time>2024-10-15T14:07:24.240+00:00</time>
      </trkpt>
      <trkpt lat="49.33169" lon="1.16536">
        <ele>84</ele>
        <time>2024-10-15T14:07:28.309+00:00</time>
      </trkpt>
      <trkpt lat="49.33174" lon="1.16538">
        <ele>84</ele>
        <time>2024-10-15T14:07:32.372+00:00</time>
      </trkpt>
      <trkpt lat="49.33179" lon="1.1654">
        <ele>84</ele>
        <time>2024-10-15T14:07:36.457+00:00</time>
      </trkpt>
      <trkpt lat="49.33185" lon="1.16542">
        <ele>84</ele>
        <time>2024-10-15T14:07:41.124+00:00</time>
      </trkpt>
      <trkpt lat="49.3319" lon="1.16543">
        <ele>87</ele>
        <time>2024-10-15T14:07:45.146+00:00</time>
      </trkpt>
      <trkpt lat="49.33195" lon="1.16545">
        <ele>87</ele>
        <time>2024-10-15T14:07:49.247+00:00</time>
      </trkpt>
      <trkpt lat="49.332" lon="1.16545">
        <ele>87</ele>
        <time>2024-10-15T14:07:53.829+00:00</time>
      </trkpt>
      <trkpt lat="49.33206" lon="1.16546">
        <ele>87</ele>
        <time>2024-10-15T14:07:58.409+00:00</time>
      </trkpt>
      <trkpt lat="49.3321" lon="1.16548">
        <ele>87</ele>
        <time>2024-10-15T14:08:02.414+00:00</time>
      </trkpt>
      <trkpt lat="49.33216" lon="1.16551">
        <ele>87</ele>
        <time>2024-10-15T14:08:07.096+00:00</time>
      </trkpt>
      <trkpt lat="49.33221" lon="1.16553">
        <ele>87</ele>
        <time>2024-10-15T14:08:11.213+00:00</time>
      </trkpt>
      <trkpt lat="49.33226" lon="1.16554">
        <ele>87</ele>
        <time>2024-10-15T14:08:15.308+00:00</time>
      </trkpt>
      <trkpt lat="49.33231" lon="1.16556">
        <ele>87</ele>
        <time>2024-10-15T14:08:19.470+00:00</time>
      </trkpt>
      <trkpt lat="49.33236" lon="1.16557">
        <ele>87</ele>
        <time>2024-10-15T14:08:24.150+00:00</time>
      </trkpt>
      <trkpt lat="49.3324" lon="1.1656">
        <ele>86</ele>
        <time>2024-10-15T14:08:28.252+00:00</time>
      </trkpt>
      <trkpt lat="49.33245" lon="1.16562">
        <ele>86</ele>
        <time>2024-10-15T14:08:32.333+00:00</time>
      </trkpt>
      <trkpt lat="49.3325" lon="1.16565">
        <ele>86</ele>
        <time>2024-10-15T14:08:36.365+00:00</time>
      </trkpt>
      <trkpt lat="49.33254" lon="1.16566">
        <ele>86</ele>
        <time>2024-10-15T14:08:40.450+00:00</time>
      </trkpt>
      <trkpt lat="49.33258" lon="1.16567">
        <ele>86</ele>
        <time>2024-10-15T14:08:44.445+00:00</time>
      </trkpt>
      <trkpt lat="49.33263" lon="1.16568">
        <ele>86</ele>
        <time>2024-10-15T14:08:48.459+00:00</time>
      </trkpt>
      <trkpt lat="49.33268" lon="1.1657">
        <ele>88</ele>
        <time>2024-10-15T14:08:52.687+00:00</time>
      </trkpt>
      <trkpt lat="49.33273" lon="1.16571">
        <ele>88</ele>
        <time>2024-10-15T14:08:56.766+00:00</time>
      </trkpt>
      <trkpt lat="49.33277" lon="1.16574">
        <ele>88</ele>
        <time>2024-10-15T14:09:00.825+00:00</time>
      </trkpt>
      <trkpt lat="49.33281" lon="1.16577">
        <ele>88</ele>
        <time>2024-10-15T14:09:04.925+00:00</time>
      </trkpt>
      <trkpt lat="49.33285" lon="1.16582">
        <ele>88</ele>
        <time>2024-10-15T14:09:08.945+00:00</time>
      </trkpt>
      <trkpt lat="49.33289" lon="1.16586">
        <ele>88</ele>
        <time>2024-10-15T14:09:13.087+00:00</time>
      </trkpt>
      <trkpt lat="49.33293" lon="1.16588">
        <ele>86</ele>
        <time>2024-10-15T14:09:17.121+00:00</time>
      </trkpt>
      <trkpt lat="49.33298" lon="1.16591">
        <ele>86</ele>
        <time>2024-10-15T14:09:21.268+00:00</time>
      </trkpt>
      <trkpt lat="49.33301" lon="1.16597">
        <ele>86</ele>
        <time>2024-10-15T14:09:26.010+00:00</time>
      </trkpt>
      <trkpt lat="49.33304" lon="1.16601">
        <ele>89</ele>
        <time>2024-10-15T14:09:30.429+00:00</time>
      </trkpt>
      <trkpt lat="49.33307" lon="1.16606">
        <ele>89</ele>
        <time>2024-10-15T14:09:34.586+00:00</time>
      </trkpt>
      <trkpt lat="49.3331" lon="1.16612">
        <ele>89</ele>
        <time>2024-10-15T14:09:38.690+00:00</time>
      </trkpt>
      <trkpt lat="49.33312" lon="1.16617">
        <ele>89</ele>
        <time>2024-10-15T14:09:42.824+00:00</time>
      </trkpt>
      <trkpt lat="49.33315" lon="1.16622">
        <ele>89</ele>
        <time>2024-10-15T14:09:46.928+00:00</time>
      </trkpt>
      <trkpt lat="49.33318" lon="1.16628">
        <ele>92</ele>
        <time>2024-10-15T14:09:50.977+00:00</time>
      </trkpt>
      <trkpt lat="49.3332" lon="1.16633">
        <ele>90</ele>
        <time>2024-10-15T14:09:55.081+00:00</time>
      </trkpt>
      <trkpt lat="49.33322" lon="1.16639">
        <ele>90</ele>
        <time>2024-10-15T14:09:59.603+00:00</time>
      </trkpt>
      <trkpt lat="49.33324" lon="1.16644">
        <ele>90</ele>
        <time>2024-10-15T14:10:03.627+00:00</time>
      </trkpt>
      <trkpt lat="49.33328" lon="1.16649">
        <ele>90</ele>
        <time>2024-10-15T14:10:07.829+00:00</time>
      </trkpt>
      <trkpt lat="49.33332" lon="1.16653">
        <ele>90</ele>
        <time>2024-10-15T14:10:12.274+00:00</time>
      </trkpt>
      <trkpt lat="49.33336" lon="1.16655">
        <ele>92</ele>
        <time>2024-10-15T14:10:16.326+00:00</time>
      </trkpt>
      <trkpt lat="49.3334" lon="1.16657">
        <ele>92</ele>
        <time>2024-10-15T14:10:20.329+00:00</time>
      </trkpt>
      <trkpt lat="49.33345" lon="1.16662">
        <ele>92</ele>
        <time>2024-10-15T14:10:24.931+00:00</time>
      </trkpt>
      <trkpt lat="49.33348" lon="1.16665">
        <ele>90</ele>
        <time>2024-10-15T14:10:29.417+00:00</time>
      </trkpt>
      <trkpt lat="49.33352" lon="1.16668">
        <ele>90</ele>
        <time>2024-10-15T14:10:34.248+00:00</time>
      </trkpt>
      <trkpt lat="49.33354" lon="1.16674">
        <ele>90</ele>
        <time>2024-10-15T14:10:38.655+00:00</time>
      </trkpt>
      <trkpt lat="49.33358" lon="1.16681">
        <ele>91</ele>
        <time>2024-10-15T14:10:43.224+00:00</time>
      </trkpt>
      <trkpt lat="49.3336" lon="1.16688">
        <ele>91</ele>
        <time>2024-10-15T14:10:47.232+00:00</time>
      </trkpt>
      <trkpt lat="49.33363" lon="1.16695">
        <ele>91</ele>
        <time>2024-10-15T14:10:51.309+00:00</time>
      </trkpt>
      <trkpt lat="49.33367" lon="1.16702">
        <ele>91</ele>
        <time>2024-10-15T14:10:56.375+00:00</time>
      </trkpt>
      <trkpt lat="49.33368" lon="1.16708">
        <ele>91</ele>
        <time>2024-10-15T14:11:00.447+00:00</time>
      </trkpt>
      <trkpt lat="49.33368" lon="1.16716">
        <ele>94</ele>
        <time>2024-10-15T14:11:05.031+00:00</time>
      </trkpt>
      <trkpt lat="49.33369" lon="1.16723">
        <ele>94</ele>
        <time>2024-10-15T14:11:09.096+00:00</time>
      </trkpt>
      <trkpt lat="49.33371" lon="1.16729">
        <ele>94</ele>
        <time>2024-10-15T14:11:13.865+00:00</time>
      </trkpt>
      <trkpt lat="49.33375" lon="1.16734">
        <ele>94</ele>
        <time>2024-10-15T14:11:18.047+00:00</time>
      </trkpt>
      <trkpt lat="49.33379" lon="1.1674">
        <ele>95</ele>
        <time>2024-10-15T14:11:22.211+00:00</time>
      </trkpt>
      <trkpt lat="49.33381" lon="1.16746">
        <ele>95</ele>
        <time>2024-10-15T14:11:26.438+00:00</time>
      </trkpt>
      <trkpt lat="49.33382" lon="1.16747">
        <ele>95</ele>
        <time>2024-10-15T14:11:31.438+00:00</time>
      </trkpt>
      <trkpt lat="49.33382" lon="1.16748">
        <ele>95</ele>
        <time>2024-10-15T14:11:35.440+00:00</time>
      </trkpt>
      <trkpt lat="49.33384" lon="1.16757">
        <ele>95</ele>
        <time>2024-10-15T14:11:39.787+00:00</time>
      </trkpt>
      <trkpt lat="49.33384" lon="1.16765">
        <ele>94</ele>
        <time>2024-10-15T14:11:44.048+00:00</time>
      </trkpt>
      <trkpt lat="49.33386" lon="1.16773">
        <ele>94</ele>
        <time>2024-10-15T14:11:48.249+00:00</time>
      </trkpt>
      <trkpt lat="49.33389" lon="1.16782">
        <ele>94</ele>
        <time>2024-10-15T14:11:52.392+00:00</time>
      </trkpt>
      <trkpt lat="49.33392" lon="1.1679">
        <ele>94</ele>
        <time>2024-10-15T14:11:56.666+00:00</time>
      </trkpt>
      <trkpt lat="49.33396" lon="1.16796">
        <ele>93</ele>
        <time>2024-10-15T14:12:00.974+00:00</time>
      </trkpt>
      <trkpt lat="49.33401" lon="1.168">
        <ele>93</ele>
        <time>2024-10-15T14:12:05.234+00:00</time>
      </trkpt>
      <trkpt lat="49.33404" lon="1.16802">
        <ele>94</ele>
        <time>2024-10-15T14:12:09.440+00:00</time>
      </trkpt>
      <trkpt lat="49.33406" lon="1.16806">
        <ele>94</ele>
        <time>2024-10-15T14:12:14.009+00:00</time>
      </trkpt>
      <trkpt lat="49.33408" lon="1.16809">
        <ele>94</ele>
        <time>2024-10-15T14:12:18.310+00:00</time>
      </trkpt>
      <trkpt lat="49.33411" lon="1.16812">
        <ele>94</ele>
        <time>2024-10-15T14:12:22.767+00:00</time>
      </trkpt>
      <trkpt lat="49.33417" lon="1.16813">
        <ele>94</ele>
        <time>2024-10-15T14:12:27.073+00:00</time>
      </trkpt>
      <trkpt lat="49.33421" lon="1.16813">
        <ele>94</ele>
        <time>2024-10-15T14:12:31.455+00:00</time>
      </trkpt>
      <trkpt lat="49.33421" lon="1.1681">
        <ele>94</ele>
        <time>2024-10-15T14:15:39.451+00:00</time>
      </trkpt>
      <trkpt lat="49.33421" lon="1.1681">
        <ele>94</ele>
        <time>2024-10-15T14:15:43.441+00:00</time>
      </trkpt>
      <trkpt lat="49.3342" lon="1.16808">
        <ele>94</ele>
        <time>2024-10-15T14:15:47.449+00:00</time>
      </trkpt>
      <trkpt lat="49.33418" lon="1.16802">
        <ele>94</ele>
        <time>2024-10-15T14:15:52.457+00:00</time>
      </trkpt>
      <trkpt lat="49.33418" lon="1.16799">
        <ele>94</ele>
        <time>2024-10-15T14:15:57.429+00:00</time>
      </trkpt>
      <trkpt lat="49.33422" lon="1.16809">
        <ele>94</ele>
        <time>2024-10-15T14:19:32.457+00:00</time>
      </trkpt>
      <trkpt lat="49.33422" lon="1.16808">
        <ele>94</ele>
        <time>2024-10-15T14:19:37.050+00:00</time>
      </trkpt>
      <trkpt lat="49.33422" lon="1.1681">
        <ele>94</ele>
        <time>2024-10-15T14:19:41.437+00:00</time>
      </trkpt>
      <trkpt lat="49.33422" lon="1.16811">
        <ele>94</ele>
        <time>2024-10-15T14:19:45.415+00:00</time>
      </trkpt>
      <trkpt lat="49.33423" lon="1.16811">
        <ele>94</ele>
        <time>2024-10-15T14:19:52.424+00:00</time>
      </trkpt>
      <trkpt lat="49.3343" lon="1.16809">
        <ele>94</ele>
        <time>2024-10-15T14:22:58.443+00:00</time>
      </trkpt>
      <trkpt lat="49.3343" lon="1.16811">
        <ele>94</ele>
        <time>2024-10-15T14:23:03.439+00:00</time>
      </trkpt>
      <trkpt lat="49.33431" lon="1.16813">
        <ele>96</ele>
        <time>2024-10-15T14:23:08.437+00:00</time>
      </trkpt>
      <trkpt lat="49.33434" lon="1.16815">
        <ele>96</ele>
        <time>2024-10-15T14:23:13.421+00:00</time>
      </trkpt>
      <trkpt lat="49.33437" lon="1.16816">
        <ele>96</ele>
        <time>2024-10-15T14:23:17.435+00:00</time>
      </trkpt>
      <trkpt lat="49.33439" lon="1.16816">
        <ele>96</ele>
        <time>2024-10-15T14:23:30.392+00:00</time>
      </trkpt>
      <trkpt lat="49.33439" lon="1.16816">
        <ele>96</ele>
        <time>2024-10-15T14:23:35.443+00:00</time>
      </trkpt>
      <trkpt lat="49.33442" lon="1.16815">
        <ele>96</ele>
        <time>2024-10-15T14:23:39.650+00:00</time>
      </trkpt>
      <trkpt lat="49.33445" lon="1.16812">
        <ele>96</ele>
        <time>2024-10-15T14:23:43.934+00:00</time>
      </trkpt>
      <trkpt lat="49.33449" lon="1.16813">
        <ele>96</ele>
        <time>2024-10-15T14:23:48.085+00:00</time>
      </trkpt>
      <trkpt lat="49.33454" lon="1.16814">
        <ele>96</ele>
        <time>2024-10-15T14:23:52.170+00:00</time>
      </trkpt>
      <trkpt lat="49.33459" lon="1.16815">
        <ele>97</ele>
        <time>2024-10-15T14:23:56.408+00:00</time>
      </trkpt>
      <trkpt lat="49.33463" lon="1.16817">
        <ele>97</ele>
        <time>2024-10-15T14:24:00.671+00:00</time>
      </trkpt>
      <trkpt lat="49.33466" lon="1.16819">
        <ele>97</ele>
        <time>2024-10-15T14:24:05.008+00:00</time>
      </trkpt>
      <trkpt lat="49.3347" lon="1.16821">
        <ele>98</ele>
        <time>2024-10-15T14:24:09.068+00:00</time>
      </trkpt>
      <trkpt lat="49.33475" lon="1.16822">
        <ele>98</ele>
        <time>2024-10-15T14:24:13.310+00:00</time>
      </trkpt>
      <trkpt lat="49.3348" lon="1.16822">
        <ele>98</ele>
        <time>2024-10-15T14:24:17.473+00:00</time>
      </trkpt>
      <trkpt lat="49.33485" lon="1.16821">
        <ele>98</ele>
        <time>2024-10-15T14:24:21.786+00:00</time>
      </trkpt>
      <trkpt lat="49.33489" lon="1.16822">
        <ele>100</ele>
        <time>2024-10-15T14:24:26.032+00:00</time>
      </trkpt>
      <trkpt lat="49.33493" lon="1.16824">
        <ele>100</ele>
        <time>2024-10-15T14:24:30.267+00:00</time>
      </trkpt>
      <trkpt lat="49.33497" lon="1.16827">
        <ele>100</ele>
        <time>2024-10-15T14:24:34.451+00:00</time>
      </trkpt>
      <trkpt lat="49.33501" lon="1.16831">
        <ele>100</ele>
        <time>2024-10-15T14:24:38.848+00:00</time>
      </trkpt>
      <trkpt lat="49.33506" lon="1.16834">
        <ele>100</ele>
        <time>2024-10-15T14:24:43.105+00:00</time>
      </trkpt>
      <trkpt lat="49.33511" lon="1.16835">
        <ele>100</ele>
        <time>2024-10-15T14:24:47.411+00:00</time>
      </trkpt>
      <trkpt lat="49.33516" lon="1.16836">
        <ele>103</ele>
        <time>2024-10-15T14:24:51.770+00:00</time>
      </trkpt>
      <trkpt lat="49.3352" lon="1.16836">
        <ele>103</ele>
        <time>2024-10-15T14:24:55.990+00:00</time>
      </trkpt>
      <trkpt lat="49.33525" lon="1.16837">
        <ele>103</ele>
        <time>2024-10-15T14:25:00.274+00:00</time>
      </trkpt>
      <trkpt lat="49.33531" lon="1.16838">
        <ele>103</ele>
        <time>2024-10-15T14:25:04.672+00:00</time>
      </trkpt>
      <trkpt lat="49.33536" lon="1.16839">
        <ele>103</ele>
        <time>2024-10-15T14:25:08.945+00:00</time>
      </trkpt>
      <trkpt lat="49.33541" lon="1.16839">
        <ele>103</ele>
        <time>2024-10-15T14:25:13.229+00:00</time>
      </trkpt>
      <trkpt lat="49.33543" lon="1.16843">
        <ele>106</ele>
        <time>2024-10-15T14:25:17.367+00:00</time>
      </trkpt>
      <trkpt lat="49.33546" lon="1.16845">
        <ele>106</ele>
        <time>2024-10-15T14:25:21.467+00:00</time>
      </trkpt>
      <trkpt lat="49.33551" lon="1.16846">
        <ele>106</ele>
        <time>2024-10-15T14:25:25.828+00:00</time>
      </trkpt>
      <trkpt lat="49.33555" lon="1.16845">
        <ele>106</ele>
        <time>2024-10-15T14:25:30.254+00:00</time>
      </trkpt>
      <trkpt lat="49.33558" lon="1.16847">
        <ele>106</ele>
        <time>2024-10-15T14:25:34.671+00:00</time>
      </trkpt>
      <trkpt lat="49.33562" lon="1.16849">
        <ele>105</ele>
        <time>2024-10-15T14:25:38.925+00:00</time>
      </trkpt>
      <trkpt lat="49.33564" lon="1.16849">
        <ele>105</ele>
        <time>2024-10-15T14:25:43.442+00:00</time>
      </trkpt>
      <trkpt lat="49.33569" lon="1.16851">
        <ele>105</ele>
        <time>2024-10-15T14:25:48.129+00:00</time>
      </trkpt>
      <trkpt lat="49.33575" lon="1.16853">
        <ele>107</ele>
        <time>2024-10-15T14:25:52.398+00:00</time>
      </trkpt>
      <trkpt lat="49.33581" lon="1.16851">
        <ele>107</ele>
        <time>2024-10-15T14:25:56.706+00:00</time>
      </trkpt>
      <trkpt lat="49.33585" lon="1.1685">
        <ele>107</ele>
        <time>2024-10-15T14:26:01.086+00:00</time>
      </trkpt>
      <trkpt lat="49.3359" lon="1.16851">
        <ele>107</ele>
        <time>2024-10-15T14:26:05.436+00:00</time>
      </trkpt>
      <trkpt lat="49.33594" lon="1.16849">
        <ele>107</ele>
        <time>2024-10-15T14:26:09.925+00:00</time>
      </trkpt>
      <trkpt lat="49.33597" lon="1.16844">
        <ele>107</ele>
        <time>2024-10-15T14:26:14.245+00:00</time>
      </trkpt>
      <trkpt lat="49.33599" lon="1.16838">
        <ele>106</ele>
        <time>2024-10-15T14:26:18.449+00:00</time>
      </trkpt>
      <trkpt lat="49.33602" lon="1.16831">
        <ele>106</ele>
        <time>2024-10-15T14:26:23.250+00:00</time>
      </trkpt>
      <trkpt lat="49.33605" lon="1.16826">
        <ele>106</ele>
        <time>2024-10-15T14:26:27.452+00:00</time>
      </trkpt>
      <trkpt lat="49.33607" lon="1.16822">
        <ele>106</ele>
        <time>2024-10-15T14:26:31.670+00:00</time>
      </trkpt>
      <trkpt lat="49.33609" lon="1.16817">
        <ele>106</ele>
        <time>2024-10-15T14:26:35.847+00:00</time>
      </trkpt>
      <trkpt lat="49.33611" lon="1.16812">
        <ele>106</ele>
        <time>2024-10-15T14:26:39.870+00:00</time>
      </trkpt>
      <trkpt lat="49.33613" lon="1.16807">
        <ele>106</ele>
        <time>2024-10-15T14:26:43.884+00:00</time>
      </trkpt>
      <trkpt lat="49.33615" lon="1.16803">
        <ele>106</ele>
        <time>2024-10-15T14:26:47.971+00:00</time>
      </trkpt>
      <trkpt lat="49.33617" lon="1.16797">
        <ele>106</ele>
        <time>2024-10-15T14:26:52.026+00:00</time>
      </trkpt>
      <trkpt lat="49.3362" lon="1.16792">
        <ele>106</ele>
        <time>2024-10-15T14:26:56.234+00:00</time>
      </trkpt>
      <trkpt lat="49.33623" lon="1.16787">
        <ele>105</ele>
        <time>2024-10-15T14:27:00.816+00:00</time>
      </trkpt>
      <trkpt lat="49.33626" lon="1.16783">
        <ele>105</ele>
        <time>2024-10-15T14:27:04.847+00:00</time>
      </trkpt>
      <trkpt lat="49.33631" lon="1.16779">
        <ele>105</ele>
        <time>2024-10-15T14:27:08.993+00:00</time>
      </trkpt>
      <trkpt lat="49.33634" lon="1.16776">
        <ele>105</ele>
        <time>2024-10-15T14:27:13.090+00:00</time>
      </trkpt>
      <trkpt lat="49.33637" lon="1.16772">
        <ele>105</ele>
        <time>2024-10-15T14:27:17.251+00:00</time>
      </trkpt>
      <trkpt lat="49.33639" lon="1.16766">
        <ele>105</ele>
        <time>2024-10-15T14:27:21.443+00:00</time>
      </trkpt>
      <trkpt lat="49.33643" lon="1.16762">
        <ele>105</ele>
        <time>2024-10-15T14:27:25.912+00:00</time>
      </trkpt>
      <trkpt lat="49.33646" lon="1.16759">
        <ele>105</ele>
        <time>2024-10-15T14:27:29.951+00:00</time>
      </trkpt>
      <trkpt lat="49.33649" lon="1.16755">
        <ele>105</ele>
        <time>2024-10-15T14:27:34.104+00:00</time>
      </trkpt>
      <trkpt lat="49.33653" lon="1.16752">
        <ele>105</ele>
        <time>2024-10-15T14:27:38.685+00:00</time>
      </trkpt>
      <trkpt lat="49.33657" lon="1.16746">
        <ele>104</ele>
        <time>2024-10-15T14:27:43.313+00:00</time>
      </trkpt>
      <trkpt lat="49.33662" lon="1.1674">
        <ele>104</ele>
        <time>2024-10-15T14:27:47.414+00:00</time>
      </trkpt>
      <trkpt lat="49.33665" lon="1.16735">
        <ele>102</ele>
        <time>2024-10-15T14:27:51.970+00:00</time>
      </trkpt>
      <trkpt lat="49.33668" lon="1.1673">
        <ele>102</ele>
        <time>2024-10-15T14:27:56.015+00:00</time>
      </trkpt>
      <trkpt lat="49.33671" lon="1.16726">
        <ele>102</ele>
        <time>2024-10-15T14:28:00.029+00:00</time>
      </trkpt>
      <trkpt lat="49.33673" lon="1.1672">
        <ele>102</ele>
        <time>2024-10-15T14:28:04.107+00:00</time>
      </trkpt>
      <trkpt lat="49.33677" lon="1.16714">
        <ele>102</ele>
        <time>2024-10-15T14:28:08.458+00:00</time>
      </trkpt>
      <trkpt lat="49.33681" lon="1.16707">
        <ele>98</ele>
        <time>2024-10-15T14:28:12.648+00:00</time>
      </trkpt>
      <trkpt lat="49.33686" lon="1.16702">
        <ele>98</ele>
        <time>2024-10-15T14:28:17.205+00:00</time>
      </trkpt>
      <trkpt lat="49.33691" lon="1.16699">
        <ele>98</ele>
        <time>2024-10-15T14:28:21.309+00:00</time>
      </trkpt>
      <trkpt lat="49.33696" lon="1.16697">
        <ele>98</ele>
        <time>2024-10-15T14:28:25.413+00:00</time>
      </trkpt>
      <trkpt lat="49.33702" lon="1.16695">
        <ele>98</ele>
        <time>2024-10-15T14:28:30.167+00:00</time>
      </trkpt>
      <trkpt lat="49.33707" lon="1.16694">
        <ele>98</ele>
        <time>2024-10-15T14:28:34.330+00:00</time>
      </trkpt>
      <trkpt lat="49.33712" lon="1.16694">
        <ele>100</ele>
        <time>2024-10-15T14:28:38.409+00:00</time>
      </trkpt>
      <trkpt lat="49.33716" lon="1.16696">
        <ele>100</ele>
        <time>2024-10-15T14:28:42.671+00:00</time>
      </trkpt>
      <trkpt lat="49.3372" lon="1.16699">
        <ele>100</ele>
        <time>2024-10-15T14:28:47.095+00:00</time>
      </trkpt>
      <trkpt lat="49.33725" lon="1.16704">
        <ele>100</ele>
        <time>2024-10-15T14:28:51.751+00:00</time>
      </trkpt>
      <trkpt lat="49.33728" lon="1.16709">
        <ele>103</ele>
        <time>2024-10-15T14:28:56.306+00:00</time>
      </trkpt>
      <trkpt lat="49.33732" lon="1.16712">
        <ele>103</ele>
        <time>2024-10-15T14:29:00.371+00:00</time>
      </trkpt>
      <trkpt lat="49.33735" lon="1.16712">
        <ele>103</ele>
        <time>2024-10-15T14:29:04.893+00:00</time>
      </trkpt>
      <trkpt lat="49.33738" lon="1.16712">
        <ele>104</ele>
        <time>2024-10-15T14:29:09.224+00:00</time>
      </trkpt>
      <trkpt lat="49.33742" lon="1.16713">
        <ele>104</ele>
        <time>2024-10-15T14:29:13.445+00:00</time>
      </trkpt>
      <trkpt lat="49.33745" lon="1.16714">
        <ele>104</ele>
        <time>2024-10-15T14:29:17.651+00:00</time>
      </trkpt>
      <trkpt lat="49.3375" lon="1.16715">
        <ele>104</ele>
        <time>2024-10-15T14:29:21.715+00:00</time>
      </trkpt>
      <trkpt lat="49.33754" lon="1.16716">
        <ele>104</ele>
        <time>2024-10-15T14:29:25.831+00:00</time>
      </trkpt>
      <trkpt lat="49.33757" lon="1.16717">
        <ele>104</ele>
        <time>2024-10-15T14:29:29.894+00:00</time>
      </trkpt>
      <trkpt lat="49.33762" lon="1.16717">
        <ele>104</ele>
        <time>2024-10-15T14:29:34.104+00:00</time>
      </trkpt>
      <trkpt lat="49.33768" lon="1.16717">
        <ele>103</ele>
        <time>2024-10-15T14:29:38.229+00:00</time>
      </trkpt>
      <trkpt lat="49.33773" lon="1.16718">
        <ele>103</ele>
        <time>2024-10-15T14:29:42.414+00:00</time>
      </trkpt>
      <trkpt lat="49.33778" lon="1.16719">
        <ele>103</ele>
        <time>2024-10-15T14:29:46.552+00:00</time>
      </trkpt>
      <trkpt lat="49.33783" lon="1.16718">
        <ele>103</ele>
        <time>2024-10-15T14:29:50.693+00:00</time>
      </trkpt>
      <trkpt lat="49.33788" lon="1.16715">
        <ele>103</ele>
        <time>2024-10-15T14:29:54.753+00:00</time>
      </trkpt>
      <trkpt lat="49.33792" lon="1.16714">
        <ele>101</ele>
        <time>2024-10-15T14:29:59.307+00:00</time>
      </trkpt>
      <trkpt lat="49.33796" lon="1.16716">
        <ele>101</ele>
        <time>2024-10-15T14:30:03.384+00:00</time>
      </trkpt>
      <trkpt lat="49.338" lon="1.16721">
        <ele>101</ele>
        <time>2024-10-15T14:30:07.436+00:00</time>
      </trkpt>
      <trkpt lat="49.33803" lon="1.16727">
        <ele>101</ele>
        <time>2024-10-15T14:30:11.714+00:00</time>
      </trkpt>
      <trkpt lat="49.33807" lon="1.16732">
        <ele>101</ele>
        <time>2024-10-15T14:30:16.146+00:00</time>
      </trkpt>
      <trkpt lat="49.33812" lon="1.16737">
        <ele>104</ele>
        <time>2024-10-15T14:30:20.450+00:00</time>
      </trkpt>
      <trkpt lat="49.33815" lon="1.16741">
        <ele>104</ele>
        <time>2024-10-15T14:30:24.908+00:00</time>
      </trkpt>
      <trkpt lat="49.33817" lon="1.16746">
        <ele>104</ele>
        <time>2024-10-15T14:30:29.431+00:00</time>
      </trkpt>
      <trkpt lat="49.3382" lon="1.16752">
        <ele>104</ele>
        <time>2024-10-15T14:30:33.842+00:00</time>
      </trkpt>
      <trkpt lat="49.33823" lon="1.16756">
        <ele>104</ele>
        <time>2024-10-15T14:30:38.227+00:00</time>
      </trkpt>
      <trkpt lat="49.33827" lon="1.16757">
        <ele>104</ele>
        <time>2024-10-15T14:30:42.446+00:00</time>
      </trkpt>
      <trkpt lat="49.3383" lon="1.16753">
        <ele>104</ele>
        <time>2024-10-15T14:30:46.550+00:00</time>
      </trkpt>
      <trkpt lat="49.33833" lon="1.16748">
        <ele>104</ele>
        <time>2024-10-15T14:30:50.686+00:00</time>
      </trkpt>
      <trkpt lat="49.33835" lon="1.16747">
        <ele>104</ele>
        <time>2024-10-15T14:30:55.449+00:00</time>
      </trkpt>
      <trkpt lat="49.3384" lon="1.16751">
        <ele>104</ele>
        <time>2024-10-15T14:32:08.966+00:00</time>
      </trkpt>
      <trkpt lat="49.33847" lon="1.16745">
        <ele>104</ele>
        <time>2024-10-15T14:32:13.459+00:00</time>
      </trkpt>
      <trkpt lat="49.33852" lon="1.1674">
        <ele>103</ele>
        <time>2024-10-15T14:32:17.912+00:00</time>
      </trkpt>
      <trkpt lat="49.33858" lon="1.16738">
        <ele>103</ele>
        <time>2024-10-15T14:32:22.411+00:00</time>
      </trkpt>
      <trkpt lat="49.33864" lon="1.1674">
        <ele>103</ele>
        <time>2024-10-15T14:32:26.973+00:00</time>
      </trkpt>
      <trkpt lat="49.3387" lon="1.16739">
        <ele>103</ele>
        <time>2024-10-15T14:32:31.461+00:00</time>
      </trkpt>
      <trkpt lat="49.33875" lon="1.16739">
        <ele>103</ele>
        <time>2024-10-15T14:32:35.471+00:00</time>
      </trkpt>
      <trkpt lat="49.33879" lon="1.16739">
        <ele>103</ele>
        <time>2024-10-15T14:32:40.067+00:00</time>
      </trkpt>
      <trkpt lat="49.33884" lon="1.16739">
        <ele>103</ele>
        <time>2024-10-15T14:32:44.130+00:00</time>
      </trkpt>
      <trkpt lat="49.3389" lon="1.16739">
        <ele>103</ele>
        <time>2024-10-15T14:32:48.232+00:00</time>
      </trkpt>
      <trkpt lat="49.33894" lon="1.16737">
        <ele>103</ele>
        <time>2024-10-15T14:32:52.347+00:00</time>
      </trkpt>
      <trkpt lat="49.33899" lon="1.16735">
        <ele>99</ele>
        <time>2024-10-15T14:32:56.447+00:00</time>
      </trkpt>
      <trkpt lat="49.33903" lon="1.16733">
        <ele>99</ele>
        <time>2024-10-15T14:33:00.469+00:00</time>
      </trkpt>
      <trkpt lat="49.33908" lon="1.16731">
        <ele>99</ele>
        <time>2024-10-15T14:33:04.712+00:00</time>
      </trkpt>
      <trkpt lat="49.33913" lon="1.16729">
        <ele>99</ele>
        <time>2024-10-15T14:33:09.248+00:00</time>
      </trkpt>
      <trkpt lat="49.33918" lon="1.16727">
        <ele>99</ele>
        <time>2024-10-15T14:33:13.412+00:00</time>
      </trkpt>
      <trkpt lat="49.33922" lon="1.16727">
        <ele>99</ele>
        <time>2024-10-15T14:33:17.795+00:00</time>
      </trkpt>
      <trkpt lat="49.33926" lon="1.16726">
        <ele>99</ele>
        <time>2024-10-15T14:33:21.844+00:00</time>
      </trkpt>
      <trkpt lat="49.33931" lon="1.16724">
        <ele>99</ele>
        <time>2024-10-15T14:33:25.964+00:00</time>
      </trkpt>
      <trkpt lat="49.33935" lon="1.16723">
        <ele>99</ele>
        <time>2024-10-15T14:33:29.968+00:00</time>
      </trkpt>
      <trkpt lat="49.3394" lon="1.16723">
        <ele>99</ele>
        <time>2024-10-15T14:33:34.491+00:00</time>
      </trkpt>
      <trkpt lat="49.33945" lon="1.16723">
        <ele>99</ele>
        <time>2024-10-15T14:33:39.172+00:00</time>
      </trkpt>
      <trkpt lat="49.3395" lon="1.16721">
        <ele>99</ele>
        <time>2024-10-15T14:33:43.664+00:00</time>
      </trkpt>
      <trkpt lat="49.33955" lon="1.16719">
        <ele>99</ele>
        <time>2024-10-15T14:33:48.028+00:00</time>
      </trkpt>
      <trkpt lat="49.3396" lon="1.16717">
        <ele>98</ele>
        <time>2024-10-15T14:33:52.494+00:00</time>
      </trkpt>
      <trkpt lat="49.33965" lon="1.16715">
        <ele>98</ele>
        <time>2024-10-15T14:33:57.130+00:00</time>
      </trkpt>
      <trkpt lat="49.33971" lon="1.16713">
        <ele>98</ele>
        <time>2024-10-15T14:34:01.668+00:00</time>
      </trkpt>
      <trkpt lat="49.33975" lon="1.16712">
        <ele>98</ele>
        <time>2024-10-15T14:34:05.712+00:00</time>
      </trkpt>
      <trkpt lat="49.3398" lon="1.1671">
        <ele>98</ele>
        <time>2024-10-15T14:34:10.131+00:00</time>
      </trkpt>
      <trkpt lat="49.33985" lon="1.1671">
        <ele>98</ele>
        <time>2024-10-15T14:34:14.674+00:00</time>
      </trkpt>
      <trkpt lat="49.33991" lon="1.1671">
        <ele>97</ele>
        <time>2024-10-15T14:34:19.274+00:00</time>
      </trkpt>
      <trkpt lat="49.33995" lon="1.1671">
        <ele>97</ele>
        <time>2024-10-15T14:34:23.312+00:00</time>
      </trkpt>
      <trkpt lat="49.33996" lon="1.16711">
        <ele>97</ele>
        <time>2024-10-15T14:34:27.461+00:00</time>
      </trkpt>
      <trkpt lat="49.33996" lon="1.16712">
        <ele>97</ele>
        <time>2024-10-15T14:34:45.442+00:00</time>
      </trkpt>
      <trkpt lat="49.33998" lon="1.16712">
        <ele>97</ele>
        <time>2024-10-15T14:34:49.474+00:00</time>
      </trkpt>
      <trkpt lat="49.34004" lon="1.1671">
        <ele>97</ele>
        <time>2024-10-15T14:34:54.046+00:00</time>
      </trkpt>
      <trkpt lat="49.34008" lon="1.16709">
        <ele>97</ele>
        <time>2024-10-15T14:34:58.349+00:00</time>
      </trkpt>
      <trkpt lat="49.34012" lon="1.16706">
        <ele>94</ele>
        <time>2024-10-15T14:35:02.872+00:00</time>
      </trkpt>
      <trkpt lat="49.34016" lon="1.16706">
        <ele>94</ele>
        <time>2024-10-15T14:35:07.371+00:00</time>
      </trkpt>
      <trkpt lat="49.3402" lon="1.16707">
        <ele>94</ele>
        <time>2024-10-15T14:35:11.952+00:00</time>
      </trkpt>
      <trkpt lat="49.34024" lon="1.16708">
        <ele>94</ele>
        <time>2024-10-15T14:35:16.355+00:00</time>
      </trkpt>
      <trkpt lat="49.34029" lon="1.16707">
        <ele>94</ele>
        <time>2024-10-15T14:35:20.790+00:00</time>
      </trkpt>
      <trkpt lat="49.34035" lon="1.16706">
        <ele>94</ele>
        <time>2024-10-15T14:35:25.224+00:00</time>
      </trkpt>
      <trkpt lat="49.34038" lon="1.16706">
        <ele>94</ele>
        <time>2024-10-15T14:35:30.447+00:00</time>
      </trkpt>
      <trkpt lat="49.34041" lon="1.16703">
        <ele>94</ele>
        <time>2024-10-15T14:35:34.828+00:00</time>
      </trkpt>
      <trkpt lat="49.34045" lon="1.167">
        <ele>95</ele>
        <time>2024-10-15T14:35:39.230+00:00</time>
      </trkpt>
      <trkpt lat="49.34048" lon="1.16701">
        <ele>95</ele>
        <time>2024-10-15T14:35:43.449+00:00</time>
      </trkpt>
      <trkpt lat="49.34049" lon="1.16703">
        <ele>95</ele>
        <time>2024-10-15T14:35:49.318+00:00</time>
      </trkpt>
      <trkpt lat="49.3405" lon="1.16703">
        <ele>95</ele>
        <time>2024-10-15T14:35:53.422+00:00</time>
      </trkpt>
      <trkpt lat="49.34056" lon="1.16701">
        <ele>95</ele>
        <time>2024-10-15T14:35:57.497+00:00</time>
      </trkpt>
      <trkpt lat="49.34061" lon="1.16698">
        <ele>95</ele>
        <time>2024-10-15T14:36:02.035+00:00</time>
      </trkpt>
      <trkpt lat="49.34065" lon="1.16696">
        <ele>95</ele>
        <time>2024-10-15T14:36:06.439+00:00</time>
      </trkpt>
      <trkpt lat="49.34069" lon="1.16694">
        <ele>95</ele>
        <time>2024-10-15T14:36:10.585+00:00</time>
      </trkpt>
      <trkpt lat="49.34075" lon="1.16695">
        <ele>97</ele>
        <time>2024-10-15T14:36:15.114+00:00</time>
      </trkpt>
      <trkpt lat="49.34079" lon="1.16692">
        <ele>97</ele>
        <time>2024-10-15T14:36:19.650+00:00</time>
      </trkpt>
      <trkpt lat="49.34083" lon="1.16689">
        <ele>97</ele>
        <time>2024-10-15T14:36:24.115+00:00</time>
      </trkpt>
      <trkpt lat="49.34089" lon="1.16686">
        <ele>97</ele>
        <time>2024-10-15T14:36:28.671+00:00</time>
      </trkpt>
      <trkpt lat="49.34091" lon="1.16683">
        <ele>97</ele>
        <time>2024-10-15T14:36:33.450+00:00</time>
      </trkpt>
      <trkpt lat="49.34096" lon="1.16682">
        <ele>97</ele>
        <time>2024-10-15T14:36:37.708+00:00</time>
      </trkpt>
      <trkpt lat="49.34103" lon="1.1668">
        <ele>96</ele>
        <time>2024-10-15T14:36:42.088+00:00</time>
      </trkpt>
      <trkpt lat="49.34109" lon="1.16678">
        <ele>96</ele>
        <time>2024-10-15T14:36:46.486+00:00</time>
      </trkpt>
      <trkpt lat="49.34115" lon="1.16674">
        <ele>96</ele>
        <time>2024-10-15T14:36:51.089+00:00</time>
      </trkpt>
      <trkpt lat="49.34121" lon="1.16673">
        <ele>96</ele>
        <time>2024-10-15T14:36:55.129+00:00</time>
      </trkpt>
      <trkpt lat="49.34125" lon="1.16672">
        <ele>99</ele>
        <time>2024-10-15T14:36:59.193+00:00</time>
      </trkpt>
      <trkpt lat="49.3413" lon="1.1667">
        <ele>99</ele>
        <time>2024-10-15T14:37:03.233+00:00</time>
      </trkpt>
      <trkpt lat="49.34135" lon="1.16666">
        <ele>99</ele>
        <time>2024-10-15T14:37:07.314+00:00</time>
      </trkpt>
      <trkpt lat="49.3414" lon="1.16662">
        <ele>99</ele>
        <time>2024-10-15T14:37:11.410+00:00</time>
      </trkpt>
      <trkpt lat="49.34145" lon="1.16657">
        <ele>99</ele>
        <time>2024-10-15T14:37:15.929+00:00</time>
      </trkpt>
      <trkpt lat="49.34149" lon="1.16654">
        <ele>99</ele>
        <time>2024-10-15T14:37:20.069+00:00</time>
      </trkpt>
      <trkpt lat="49.34153" lon="1.16649">
        <ele>99</ele>
        <time>2024-10-15T14:37:24.453+00:00</time>
      </trkpt>
      <trkpt lat="49.34157" lon="1.16645">
        <ele>99</ele>
        <time>2024-10-15T14:37:28.449+00:00</time>
      </trkpt>
      <trkpt lat="49.34161" lon="1.16641">
        <ele>99</ele>
        <time>2024-10-15T14:37:32.458+00:00</time>
      </trkpt>
      <trkpt lat="49.34166" lon="1.16638">
        <ele>99</ele>
        <time>2024-10-15T14:37:37.086+00:00</time>
      </trkpt>
      <trkpt lat="49.34171" lon="1.16635">
        <ele>99</ele>
        <time>2024-10-15T14:37:41.113+00:00</time>
      </trkpt>
      <trkpt lat="49.34176" lon="1.16632">
        <ele>99</ele>
        <time>2024-10-15T14:37:45.707+00:00</time>
      </trkpt>
      <trkpt lat="49.3418" lon="1.16629">
        <ele>99</ele>
        <time>2024-10-15T14:37:49.789+00:00</time>
      </trkpt>
      <trkpt lat="49.34185" lon="1.16626">
        <ele>101</ele>
        <time>2024-10-15T14:37:54.394+00:00</time>
      </trkpt>
      <trkpt lat="49.34189" lon="1.16621">
        <ele>99</ele>
        <time>2024-10-15T14:37:58.825+00:00</time>
      </trkpt>
      <trkpt lat="49.34192" lon="1.16616">
        <ele>99</ele>
        <time>2024-10-15T14:38:02.888+00:00</time>
      </trkpt>
      <trkpt lat="49.34196" lon="1.1661">
        <ele>99</ele>
        <time>2024-10-15T14:38:06.909+00:00</time>
      </trkpt>
      <trkpt lat="49.34201" lon="1.16604">
        <ele>99</ele>
        <time>2024-10-15T14:38:10.935+00:00</time>
      </trkpt>
      <trkpt lat="49.34204" lon="1.166">
        <ele>99</ele>
        <time>2024-10-15T14:38:15.404+00:00</time>
      </trkpt>
      <trkpt lat="49.34208" lon="1.16595">
        <ele>96</ele>
        <time>2024-10-15T14:38:20.027+00:00</time>
      </trkpt>
      <trkpt lat="49.34211" lon="1.1659">
        <ele>96</ele>
        <time>2024-10-15T14:38:24.087+00:00</time>
      </trkpt>
      <trkpt lat="49.34215" lon="1.16585">
        <ele>96</ele>
        <time>2024-10-15T14:38:28.312+00:00</time>
      </trkpt>
      <trkpt lat="49.34218" lon="1.1658">
        <ele>96</ele>
        <time>2024-10-15T14:38:32.806+00:00</time>
      </trkpt>
      <trkpt lat="49.34222" lon="1.16575">
        <ele>96</ele>
        <time>2024-10-15T14:38:36.970+00:00</time>
      </trkpt>
      <trkpt lat="49.34225" lon="1.16571">
        <ele>96</ele>
        <time>2024-10-15T14:38:41.130+00:00</time>
      </trkpt>
      <trkpt lat="49.34229" lon="1.16567">
        <ele>94</ele>
        <time>2024-10-15T14:38:45.448+00:00</time>
      </trkpt>
      <trkpt lat="49.34233" lon="1.1656">
        <ele>94</ele>
        <time>2024-10-15T14:38:50.307+00:00</time>
      </trkpt>
      <trkpt lat="49.34237" lon="1.16554">
        <ele>94</ele>
        <time>2024-10-15T14:38:54.729+00:00</time>
      </trkpt>
      <trkpt lat="49.34242" lon="1.1655">
        <ele>94</ele>
        <time>2024-10-15T14:38:58.825+00:00</time>
      </trkpt>
      <trkpt lat="49.34246" lon="1.16546">
        <ele>94</ele>
        <time>2024-10-15T14:39:02.873+00:00</time>
      </trkpt>
      <trkpt lat="49.34249" lon="1.16543">
        <ele>94</ele>
        <time>2024-10-15T14:39:06.965+00:00</time>
      </trkpt>
      <trkpt lat="49.34253" lon="1.16538">
        <ele>91</ele>
        <time>2024-10-15T14:39:11.030+00:00</time>
      </trkpt>
      <trkpt lat="49.34257" lon="1.16531">
        <ele>91</ele>
        <time>2024-10-15T14:39:15.150+00:00</time>
      </trkpt>
      <trkpt lat="49.3426" lon="1.16525">
        <ele>91</ele>
        <time>2024-10-15T14:39:19.612+00:00</time>
      </trkpt>
      <trkpt lat="49.34262" lon="1.16519">
        <ele>91</ele>
        <time>2024-10-15T14:39:23.723+00:00</time>
      </trkpt>
      <trkpt lat="49.34265" lon="1.16514">
        <ele>92</ele>
        <time>2024-10-15T14:39:27.816+00:00</time>
      </trkpt>
      <trkpt lat="49.34268" lon="1.16509">
        <ele>89</ele>
        <time>2024-10-15T14:39:31.886+00:00</time>
      </trkpt>
      <trkpt lat="49.34271" lon="1.16503">
        <ele>89</ele>
        <time>2024-10-15T14:39:35.950+00:00</time>
      </trkpt>
      <trkpt lat="49.34275" lon="1.16498">
        <ele>89</ele>
        <time>2024-10-15T14:39:40.015+00:00</time>
      </trkpt>
      <trkpt lat="49.34279" lon="1.16494">
        <ele>89</ele>
        <time>2024-10-15T14:39:44.112+00:00</time>
      </trkpt>
      <trkpt lat="49.34282" lon="1.16489">
        <ele>89</ele>
        <time>2024-10-15T14:39:48.183+00:00</time>
      </trkpt>
      <trkpt lat="49.34286" lon="1.16483">
        <ele>85</ele>
        <time>2024-10-15T14:39:52.750+00:00</time>
      </trkpt>
      <trkpt lat="49.3429" lon="1.16478">
        <ele>85</ele>
        <time>2024-10-15T14:39:56.747+00:00</time>
      </trkpt>
      <trkpt lat="49.34293" lon="1.16473">
        <ele>85</ele>
        <time>2024-10-15T14:40:00.892+00:00</time>
      </trkpt>
      <trkpt lat="49.34297" lon="1.16469">
        <ele>85</ele>
        <time>2024-10-15T14:40:05.458+00:00</time>
      </trkpt>
      <trkpt lat="49.34302" lon="1.16465">
        <ele>85</ele>
        <time>2024-10-15T14:40:09.985+00:00</time>
      </trkpt>
      <trkpt lat="49.34308" lon="1.16461">
        <ele>85</ele>
        <time>2024-10-15T14:40:14.459+00:00</time>
      </trkpt>
      <trkpt lat="49.34313" lon="1.16459">
        <ele>85</ele>
        <time>2024-10-15T14:40:18.457+00:00</time>
      </trkpt>
      <trkpt lat="49.34317" lon="1.16458">
        <ele>85</ele>
        <time>2024-10-15T14:40:22.632+00:00</time>
      </trkpt>
      <trkpt lat="49.34322" lon="1.16456">
        <ele>83</ele>
        <time>2024-10-15T14:40:27.207+00:00</time>
      </trkpt>
      <trkpt lat="49.34326" lon="1.16454">
        <ele>83</ele>
        <time>2024-10-15T14:40:31.330+00:00</time>
      </trkpt>
      <trkpt lat="49.3433" lon="1.16452">
        <ele>83</ele>
        <time>2024-10-15T14:40:35.430+00:00</time>
      </trkpt>
      <trkpt lat="49.34334" lon="1.1645">
        <ele>83</ele>
        <time>2024-10-15T14:40:39.446+00:00</time>
      </trkpt>
      <trkpt lat="49.34339" lon="1.16449">
        <ele>83</ele>
        <time>2024-10-15T14:40:43.645+00:00</time>
      </trkpt>
      <trkpt lat="49.34344" lon="1.16446">
        <ele>83</ele>
        <time>2024-10-15T14:40:48.287+00:00</time>
      </trkpt>
      <trkpt lat="49.34349" lon="1.16444">
        <ele>83</ele>
        <time>2024-10-15T14:40:52.432+00:00</time>
      </trkpt>
      <trkpt lat="49.34349" lon="1.16428">
        <ele>82</ele>
        <time>2024-10-15T14:41:09.450+00:00</time>
      </trkpt>
      <trkpt lat="49.34349" lon="1.16427">
        <ele>82</ele>
        <time>2024-10-15T14:41:13.459+00:00</time>
      </trkpt>
      <trkpt lat="49.34349" lon="1.16426">
        <ele>82</ele>
        <time>2024-10-15T14:41:19.446+00:00</time>
      </trkpt>
      <trkpt lat="49.34349" lon="1.16425">
        <ele>82</ele>
        <time>2024-10-15T14:41:23.464+00:00</time>
      </trkpt>
      <trkpt lat="49.34348" lon="1.16424">
        <ele>82</ele>
        <time>2024-10-15T14:41:28.436+00:00</time>
      </trkpt>
      <trkpt lat="49.34349" lon="1.16423">
        <ele>82</ele>
        <time>2024-10-15T14:41:59.465+00:00</time>
      </trkpt>
      <trkpt lat="49.34349" lon="1.16423">
        <ele>82</ele>
        <time>2024-10-15T14:42:04.420+00:00</time>
      </trkpt>
      <trkpt lat="49.34346" lon="1.1642">
        <ele>80</ele>
        <time>2024-10-15T14:42:09.129+00:00</time>
      </trkpt>
      <trkpt lat="49.34342" lon="1.16414">
        <ele>80</ele>
        <time>2024-10-15T14:42:13.387+00:00</time>
      </trkpt>
      <trkpt lat="49.34339" lon="1.16408">
        <ele>80</ele>
        <time>2024-10-15T14:42:17.987+00:00</time>
      </trkpt>
      <trkpt lat="49.34336" lon="1.16403">
        <ele>80</ele>
        <time>2024-10-15T14:42:22.422+00:00</time>
      </trkpt>
      <trkpt lat="49.34331" lon="1.16399">
        <ele>79</ele>
        <time>2024-10-15T14:42:26.803+00:00</time>
      </trkpt>
      <trkpt lat="49.34327" lon="1.16393">
        <ele>79</ele>
        <time>2024-10-15T14:42:31.092+00:00</time>
      </trkpt>
      <trkpt lat="49.34323" lon="1.16387">
        <ele>79</ele>
        <time>2024-10-15T14:42:35.446+00:00</time>
      </trkpt>
      <trkpt lat="49.3432" lon="1.1638">
        <ele>79</ele>
        <time>2024-10-15T14:42:39.907+00:00</time>
      </trkpt>
      <trkpt lat="49.34316" lon="1.16375">
        <ele>79</ele>
        <time>2024-10-15T14:42:44.351+00:00</time>
      </trkpt>
      <trkpt lat="49.34313" lon="1.16369">
        <ele>79</ele>
        <time>2024-10-15T14:42:48.846+00:00</time>
      </trkpt>
      <trkpt lat="49.3431" lon="1.16364">
        <ele>79</ele>
        <time>2024-10-15T14:42:53.250+00:00</time>
      </trkpt>
      <trkpt lat="49.34306" lon="1.16357">
        <ele>79</ele>
        <time>2024-10-15T14:42:58.266+00:00</time>
      </trkpt>
      <trkpt lat="49.34302" lon="1.16352">
        <ele>79</ele>
        <time>2024-10-15T14:43:02.650+00:00</time>
      </trkpt>
      <trkpt lat="49.34297" lon="1.16347">
        <ele>79</ele>
        <time>2024-10-15T14:43:07.233+00:00</time>
      </trkpt>
      <trkpt lat="49.34293" lon="1.1634">
        <ele>79</ele>
        <time>2024-10-15T14:43:11.787+00:00</time>
      </trkpt>
      <trkpt lat="49.34289" lon="1.16334">
        <ele>78</ele>
        <time>2024-10-15T14:43:16.231+00:00</time>
      </trkpt>
      <trkpt lat="49.34286" lon="1.16329">
        <ele>78</ele>
        <time>2024-10-15T14:43:20.449+00:00</time>
      </trkpt>
      <trkpt lat="49.34282" lon="1.16323">
        <ele>78</ele>
        <time>2024-10-15T14:43:25.009+00:00</time>
      </trkpt>
      <trkpt lat="49.34278" lon="1.16317">
        <ele>77</ele>
        <time>2024-10-15T14:43:29.433+00:00</time>
      </trkpt>
      <trkpt lat="49.34275" lon="1.16312">
        <ele>77</ele>
        <time>2024-10-15T14:43:33.492+00:00</time>
      </trkpt>
      <trkpt lat="49.34271" lon="1.16306">
        <ele>77</ele>
        <time>2024-10-15T14:43:37.937+00:00</time>
      </trkpt>
      <trkpt lat="49.34268" lon="1.16301">
        <ele>77</ele>
        <time>2024-10-15T14:43:41.991+00:00</time>
      </trkpt>
      <trkpt lat="49.34264" lon="1.16296">
        <ele>77</ele>
        <time>2024-10-15T14:43:46.418+00:00</time>
      </trkpt>
      <trkpt lat="49.3426" lon="1.16289">
        <ele>75</ele>
        <time>2024-10-15T14:43:50.886+00:00</time>
      </trkpt>
      <trkpt lat="49.34256" lon="1.16284">
        <ele>75</ele>
        <time>2024-10-15T14:43:55.247+00:00</time>
      </trkpt>
      <trkpt lat="49.34253" lon="1.1628">
        <ele>75</ele>
        <time>2024-10-15T14:43:59.446+00:00</time>
      </trkpt>
      <trkpt lat="49.34249" lon="1.16273">
        <ele>75</ele>
        <time>2024-10-15T14:44:04.311+00:00</time>
      </trkpt>
      <trkpt lat="49.34245" lon="1.16267">
        <ele>75</ele>
        <time>2024-10-15T14:44:08.892+00:00</time>
      </trkpt>
      <trkpt lat="49.34241" lon="1.16261">
        <ele>74</ele>
        <time>2024-10-15T14:44:13.266+00:00</time>
      </trkpt>
      <trkpt lat="49.34237" lon="1.16256">
        <ele>74</ele>
        <time>2024-10-15T14:44:17.442+00:00</time>
      </trkpt>
      <trkpt lat="49.34234" lon="1.16251">
        <ele>74</ele>
        <time>2024-10-15T14:44:21.455+00:00</time>
      </trkpt>
      <trkpt lat="49.3423" lon="1.16246">
        <ele>74</ele>
        <time>2024-10-15T14:44:25.651+00:00</time>
      </trkpt>
      <trkpt lat="49.34226" lon="1.1624">
        <ele>74</ele>
        <time>2024-10-15T14:44:30.187+00:00</time>
      </trkpt>
      <trkpt lat="49.34223" lon="1.16234">
        <ele>73</ele>
        <time>2024-10-15T14:44:34.473+00:00</time>
      </trkpt>
      <trkpt lat="49.34219" lon="1.16227">
        <ele>73</ele>
        <time>2024-10-15T14:44:39.091+00:00</time>
      </trkpt>
      <trkpt lat="49.34216" lon="1.16221">
        <ele>73</ele>
        <time>2024-10-15T14:44:43.749+00:00</time>
      </trkpt>
      <trkpt lat="49.34212" lon="1.16215">
        <ele>73</ele>
        <time>2024-10-15T14:44:48.111+00:00</time>
      </trkpt>
      <trkpt lat="49.34208" lon="1.1621">
        <ele>74</ele>
        <time>2024-10-15T14:44:52.607+00:00</time>
      </trkpt>
      <trkpt lat="49.34204" lon="1.16204">
        <ele>74</ele>
        <time>2024-10-15T14:44:57.109+00:00</time>
      </trkpt>
      <trkpt lat="49.34201" lon="1.16198">
        <ele>74</ele>
        <time>2024-10-15T14:45:01.525+00:00</time>
      </trkpt>
      <trkpt lat="49.34198" lon="1.16192">
        <ele>74</ele>
        <time>2024-10-15T14:45:06.029+00:00</time>
      </trkpt>
      <trkpt lat="49.34195" lon="1.16186">
        <ele>74</ele>
        <time>2024-10-15T14:45:10.464+00:00</time>
      </trkpt>
      <trkpt lat="49.3419" lon="1.16181">
        <ele>74</ele>
        <time>2024-10-15T14:45:15.114+00:00</time>
      </trkpt>
      <trkpt lat="49.34186" lon="1.16176">
        <ele>73</ele>
        <time>2024-10-15T14:45:19.329+00:00</time>
      </trkpt>
      <trkpt lat="49.34182" lon="1.1617">
        <ele>73</ele>
        <time>2024-10-15T14:45:23.924+00:00</time>
      </trkpt>
      <trkpt lat="49.34178" lon="1.16165">
        <ele>74</ele>
        <time>2024-10-15T14:45:28.325+00:00</time>
      </trkpt>
      <trkpt lat="49.34173" lon="1.16159">
        <ele>74</ele>
        <time>2024-10-15T14:45:32.729+00:00</time>
      </trkpt>
      <trkpt lat="49.34168" lon="1.16155">
        <ele>74</ele>
        <time>2024-10-15T14:45:37.170+00:00</time>
      </trkpt>
      <trkpt lat="49.34164" lon="1.1615">
        <ele>72</ele>
        <time>2024-10-15T14:45:41.713+00:00</time>
      </trkpt>
      <trkpt lat="49.34159" lon="1.16146">
        <ele>72</ele>
        <time>2024-10-15T14:45:46.383+00:00</time>
      </trkpt>
      <trkpt lat="49.34155" lon="1.1614">
        <ele>72</ele>
        <time>2024-10-15T14:45:50.807+00:00</time>
      </trkpt>
      <trkpt lat="49.34151" lon="1.16136">
        <ele>72</ele>
        <time>2024-10-15T14:45:55.370+00:00</time>
      </trkpt>
      <trkpt lat="49.34146" lon="1.16132">
        <ele>72</ele>
        <time>2024-10-15T14:45:59.848+00:00</time>
      </trkpt>
      <trkpt lat="49.34142" lon="1.16128">
        <ele>72</ele>
        <time>2024-10-15T14:46:04.246+00:00</time>
      </trkpt>
      <trkpt lat="49.34138" lon="1.16124">
        <ele>70</ele>
        <time>2024-10-15T14:46:08.751+00:00</time>
      </trkpt>
      <trkpt lat="49.34133" lon="1.1612">
        <ele>70</ele>
        <time>2024-10-15T14:46:13.210+00:00</time>
      </trkpt>
      <trkpt lat="49.34128" lon="1.16116">
        <ele>70</ele>
        <time>2024-10-15T14:46:17.733+00:00</time>
      </trkpt>
      <trkpt lat="49.34123" lon="1.16112">
        <ele>69</ele>
        <time>2024-10-15T14:46:22.264+00:00</time>
      </trkpt>
      <trkpt lat="49.34119" lon="1.16107">
        <ele>69</ele>
        <time>2024-10-15T14:46:26.565+00:00</time>
      </trkpt>
      <trkpt lat="49.34115" lon="1.16102">
        <ele>69</ele>
        <time>2024-10-15T14:46:30.765+00:00</time>
      </trkpt>
      <trkpt lat="49.3411" lon="1.16098">
        <ele>69</ele>
        <time>2024-10-15T14:46:35.247+00:00</time>
      </trkpt>
      <trkpt lat="49.34106" lon="1.16094">
        <ele>68</ele>
        <time>2024-10-15T14:46:39.448+00:00</time>
      </trkpt>
      <trkpt lat="49.34101" lon="1.16089">
        <ele>68</ele>
        <time>2024-10-15T14:46:44.407+00:00</time>
      </trkpt>
      <trkpt lat="49.34097" lon="1.16084">
        <ele>67</ele>
        <time>2024-10-15T14:46:48.893+00:00</time>
      </trkpt>
      <trkpt lat="49.34092" lon="1.1608">
        <ele>67</ele>
        <time>2024-10-15T14:46:53.414+00:00</time>
      </trkpt>
      <trkpt lat="49.34088" lon="1.16077">
        <ele>67</ele>
        <time>2024-10-15T14:46:57.412+00:00</time>
      </trkpt>
      <trkpt lat="49.34084" lon="1.16073">
        <ele>67</ele>
        <time>2024-10-15T14:47:01.948+00:00</time>
      </trkpt>
      <trkpt lat="49.34079" lon="1.1607">
        <ele>67</ele>
        <time>2024-10-15T14:47:06.436+00:00</time>
      </trkpt>
      <trkpt lat="49.34075" lon="1.16066">
        <ele>66</ele>
        <time>2024-10-15T14:47:10.897+00:00</time>
      </trkpt>
      <trkpt lat="49.3407" lon="1.16062">
        <ele>66</ele>
        <time>2024-10-15T14:47:15.366+00:00</time>
      </trkpt>
      <trkpt lat="49.34066" lon="1.16058">
        <ele>67</ele>
        <time>2024-10-15T14:47:19.708+00:00</time>
      </trkpt>
      <trkpt lat="49.34062" lon="1.16053">
        <ele>67</ele>
        <time>2024-10-15T14:47:24.129+00:00</time>
      </trkpt>
      <trkpt lat="49.34057" lon="1.16049">
        <ele>67</ele>
        <time>2024-10-15T14:47:28.442+00:00</time>
      </trkpt>
      <trkpt lat="49.34052" lon="1.16046">
        <ele>67</ele>
        <time>2024-10-15T14:47:32.470+00:00</time>
      </trkpt>
      <trkpt lat="49.34048" lon="1.16041">
        <ele>66</ele>
        <time>2024-10-15T14:47:36.966+00:00</time>
      </trkpt>
      <trkpt lat="49.34043" lon="1.16036">
        <ele>66</ele>
        <time>2024-10-15T14:47:41.438+00:00</time>
      </trkpt>
      <trkpt lat="49.3404" lon="1.16032">
        <ele>67</ele>
        <time>2024-10-15T14:47:45.530+00:00</time>
      </trkpt>
      <trkpt lat="49.34036" lon="1.16028">
        <ele>67</ele>
        <time>2024-10-15T14:47:50.204+00:00</time>
      </trkpt>
      <trkpt lat="49.34032" lon="1.16023">
        <ele>67</ele>
        <time>2024-10-15T14:47:54.454+00:00</time>
      </trkpt>
      <trkpt lat="49.34028" lon="1.16019">
        <ele>67</ele>
        <time>2024-10-15T14:47:58.790+00:00</time>
      </trkpt>
      <trkpt lat="49.34025" lon="1.16017">
        <ele>67</ele>
        <time>2024-10-15T14:48:02.810+00:00</time>
      </trkpt>
      <trkpt lat="49.34019" lon="1.16014">
        <ele>67</ele>
        <time>2024-10-15T14:48:07.230+00:00</time>
      </trkpt>
      <trkpt lat="49.34014" lon="1.16011">
        <ele>66</ele>
        <time>2024-10-15T14:48:11.712+00:00</time>
      </trkpt>
      <trkpt lat="49.34007" lon="1.16008">
        <ele>66</ele>
        <time>2024-10-15T14:48:16.226+00:00</time>
      </trkpt>
      <trkpt lat="49.34002" lon="1.16004">
        <ele>66</ele>
        <time>2024-10-15T14:48:20.309+00:00</time>
      </trkpt>
      <trkpt lat="49.33996" lon="1.16001">
        <ele>66</ele>
        <time>2024-10-15T14:48:24.832+00:00</time>
      </trkpt>
      <trkpt lat="49.33991" lon="1.15998">
        <ele>66</ele>
        <time>2024-10-15T14:48:28.911+00:00</time>
      </trkpt>
      <trkpt lat="49.33986" lon="1.15995">
        <ele>65</ele>
        <time>2024-10-15T14:48:33.409+00:00</time>
      </trkpt>
      <trkpt lat="49.33982" lon="1.15991">
        <ele>65</ele>
        <time>2024-10-15T14:48:37.952+00:00</time>
      </trkpt>
      <trkpt lat="49.33978" lon="1.15987">
        <ele>65</ele>
        <time>2024-10-15T14:48:42.080+00:00</time>
      </trkpt>
      <trkpt lat="49.33974" lon="1.15984">
        <ele>64</ele>
        <time>2024-10-15T14:48:46.151+00:00</time>
      </trkpt>
      <trkpt lat="49.33969" lon="1.15981">
        <ele>64</ele>
        <time>2024-10-15T14:48:50.646+00:00</time>
      </trkpt>
      <trkpt lat="49.33964" lon="1.15978">
        <ele>64</ele>
        <time>2024-10-15T14:48:55.104+00:00</time>
      </trkpt>
      <trkpt lat="49.33959" lon="1.15973">
        <ele>64</ele>
        <time>2024-10-15T14:48:59.732+00:00</time>
      </trkpt>
      <trkpt lat="49.33954" lon="1.1597">
        <ele>64</ele>
        <time>2024-10-15T14:49:04.314+00:00</time>
      </trkpt>
      <trkpt lat="49.33949" lon="1.15967">
        <ele>64</ele>
        <time>2024-10-15T14:49:08.843+00:00</time>
      </trkpt>
      <trkpt lat="49.33945" lon="1.15964">
        <ele>64</ele>
        <time>2024-10-15T14:49:12.827+00:00</time>
      </trkpt>
      <trkpt lat="49.3394" lon="1.1596">
        <ele>64</ele>
        <time>2024-10-15T14:49:17.269+00:00</time>
      </trkpt>
      <trkpt lat="49.33935" lon="1.15957">
        <ele>64</ele>
        <time>2024-10-15T14:49:22.051+00:00</time>
      </trkpt>
      <trkpt lat="49.33929" lon="1.15953">
        <ele>64</ele>
        <time>2024-10-15T14:49:26.458+00:00</time>
      </trkpt>
      <trkpt lat="49.33924" lon="1.15951">
        <ele>64</ele>
        <time>2024-10-15T14:49:30.809+00:00</time>
      </trkpt>
      <trkpt lat="49.3392" lon="1.15947">
        <ele>64</ele>
        <time>2024-10-15T14:49:35.341+00:00</time>
      </trkpt>
      <trkpt lat="49.33914" lon="1.15944">
        <ele>64</ele>
        <time>2024-10-15T14:49:39.992+00:00</time>
      </trkpt>
      <trkpt lat="49.3391" lon="1.1594">
        <ele>64</ele>
        <time>2024-10-15T14:49:44.458+00:00</time>
      </trkpt>
      <trkpt lat="49.33905" lon="1.15936">
        <ele>64</ele>
        <time>2024-10-15T14:49:48.886+00:00</time>
      </trkpt>
      <trkpt lat="49.33901" lon="1.15933">
        <ele>64</ele>
        <time>2024-10-15T14:49:52.871+00:00</time>
      </trkpt>
      <trkpt lat="49.33897" lon="1.15931">
        <ele>64</ele>
        <time>2024-10-15T14:49:56.904+00:00</time>
      </trkpt>
      <trkpt lat="49.33892" lon="1.15929">
        <ele>63</ele>
        <time>2024-10-15T14:50:00.966+00:00</time>
      </trkpt>
      <trkpt lat="49.33888" lon="1.15926">
        <ele>63</ele>
        <time>2024-10-15T14:50:05.227+00:00</time>
      </trkpt>
      <trkpt lat="49.33884" lon="1.15922">
        <ele>63</ele>
        <time>2024-10-15T14:50:09.444+00:00</time>
      </trkpt>
      <trkpt lat="49.33881" lon="1.15917">
        <ele>63</ele>
        <time>2024-10-15T14:50:13.627+00:00</time>
      </trkpt>
      <trkpt lat="49.33878" lon="1.15911">
        <ele>63</ele>
        <time>2024-10-15T14:50:18.151+00:00</time>
      </trkpt>
      <trkpt lat="49.33876" lon="1.15906">
        <ele>63</ele>
        <time>2024-10-15T14:50:22.409+00:00</time>
      </trkpt>
      <trkpt lat="49.33874" lon="1.159">
        <ele>62</ele>
        <time>2024-10-15T14:50:26.450+00:00</time>
      </trkpt>
      <trkpt lat="49.33875" lon="1.15893">
        <ele>63</ele>
        <time>2024-10-15T14:50:30.850+00:00</time>
      </trkpt>
      <trkpt lat="49.33876" lon="1.15886">
        <ele>63</ele>
        <time>2024-10-15T14:50:35.290+00:00</time>
      </trkpt>
      <trkpt lat="49.33878" lon="1.15879">
        <ele>63</ele>
        <time>2024-10-15T14:50:39.771+00:00</time>
      </trkpt>
      <trkpt lat="49.33877" lon="1.15872">
        <ele>62</ele>
        <time>2024-10-15T14:50:44.144+00:00</time>
      </trkpt>
      <trkpt lat="49.33875" lon="1.15864">
        <ele>62</ele>
        <time>2024-10-15T14:50:48.670+00:00</time>
      </trkpt>
      <trkpt lat="49.33874" lon="1.15857">
        <ele>62</ele>
        <time>2024-10-15T14:50:52.746+00:00</time>
      </trkpt>
      <trkpt lat="49.33872" lon="1.15848">
        <ele>62</ele>
        <time>2024-10-15T14:50:57.427+00:00</time>
      </trkpt>
      <trkpt lat="49.3387" lon="1.15842">
        <ele>62</ele>
        <time>2024-10-15T14:51:01.432+00:00</time>
      </trkpt>
      <trkpt lat="49.3387" lon="1.15834">
        <ele>62</ele>
        <time>2024-10-15T14:51:05.791+00:00</time>
      </trkpt>
      <trkpt lat="49.33868" lon="1.15828">
        <ele>62</ele>
        <time>2024-10-15T14:51:09.883+00:00</time>
      </trkpt>
      <trkpt lat="49.33867" lon="1.15823">
        <ele>62</ele>
        <time>2024-10-15T14:51:14.311+00:00</time>
      </trkpt>
      <trkpt lat="49.33866" lon="1.15817">
        <ele>62</ele>
        <time>2024-10-15T14:51:18.968+00:00</time>
      </trkpt>
      <trkpt lat="49.33867" lon="1.15807">
        <ele>62</ele>
        <time>2024-10-15T14:51:23.371+00:00</time>
      </trkpt>
      <trkpt lat="49.33864" lon="1.158">
        <ele>62</ele>
        <time>2024-10-15T14:51:27.952+00:00</time>
      </trkpt>
      <trkpt lat="49.3386" lon="1.15793">
        <ele>62</ele>
        <time>2024-10-15T14:51:32.467+00:00</time>
      </trkpt>
      <trkpt lat="49.33856" lon="1.15785">
        <ele>60</ele>
        <time>2024-10-15T14:51:37.126+00:00</time>
      </trkpt>
      <trkpt lat="49.33854" lon="1.15777">
        <ele>60</ele>
        <time>2024-10-15T14:51:41.150+00:00</time>
      </trkpt>
      <trkpt lat="49.33852" lon="1.1577">
        <ele>60</ele>
        <time>2024-10-15T14:51:45.664+00:00</time>
      </trkpt>
      <trkpt lat="49.3385" lon="1.15765">
        <ele>60</ele>
        <time>2024-10-15T14:51:49.991+00:00</time>
      </trkpt>
      <trkpt lat="49.33847" lon="1.15761">
        <ele>59</ele>
        <time>2024-10-15T14:51:54.465+00:00</time>
      </trkpt>
      <trkpt lat="49.33843" lon="1.15757">
        <ele>59</ele>
        <time>2024-10-15T14:51:58.609+00:00</time>
      </trkpt>
      <trkpt lat="49.33838" lon="1.15753">
        <ele>59</ele>
        <time>2024-10-15T14:52:02.851+00:00</time>
      </trkpt>
      <trkpt lat="49.33833" lon="1.1575">
        <ele>59</ele>
        <time>2024-10-15T14:52:07.351+00:00</time>
      </trkpt>
      <trkpt lat="49.33827" lon="1.15746">
        <ele>59</ele>
        <time>2024-10-15T14:52:11.907+00:00</time>
      </trkpt>
      <trkpt lat="49.33821" lon="1.15743">
        <ele>59</ele>
        <time>2024-10-15T14:52:16.444+00:00</time>
      </trkpt>
      <trkpt lat="49.33815" lon="1.15741">
        <ele>60</ele>
        <time>2024-10-15T14:52:21.085+00:00</time>
      </trkpt>
      <trkpt lat="49.3381" lon="1.15739">
        <ele>60</ele>
        <time>2024-10-15T14:52:25.111+00:00</time>
      </trkpt>
      <trkpt lat="49.33805" lon="1.15736">
        <ele>59</ele>
        <time>2024-10-15T14:52:29.645+00:00</time>
      </trkpt>
      <trkpt lat="49.33801" lon="1.15731">
        <ele>59</ele>
        <time>2024-10-15T14:52:33.670+00:00</time>
      </trkpt>
      <trkpt lat="49.33798" lon="1.15724">
        <ele>59</ele>
        <time>2024-10-15T14:52:38.163+00:00</time>
      </trkpt>
      <trkpt lat="49.33797" lon="1.15716">
        <ele>59</ele>
        <time>2024-10-15T14:52:42.168+00:00</time>
      </trkpt>
      <trkpt lat="49.33795" lon="1.15709">
        <ele>59</ele>
        <time>2024-10-15T14:52:46.272+00:00</time>
      </trkpt>
      <trkpt lat="49.33794" lon="1.15702">
        <ele>59</ele>
        <time>2024-10-15T14:52:50.407+00:00</time>
      </trkpt>
      <trkpt lat="49.33794" lon="1.15695">
        <ele>59</ele>
        <time>2024-10-15T14:52:54.474+00:00</time>
      </trkpt>
      <trkpt lat="49.33793" lon="1.15688">
        <ele>59</ele>
        <time>2024-10-15T14:52:59.025+00:00</time>
      </trkpt>
      <trkpt lat="49.33792" lon="1.15681">
        <ele>57</ele>
        <time>2024-10-15T14:53:03.104+00:00</time>
      </trkpt>
      <trkpt lat="49.3379" lon="1.15673">
        <ele>57</ele>
        <time>2024-10-15T14:53:07.328+00:00</time>
      </trkpt>
      <trkpt lat="49.33789" lon="1.15665">
        <ele>57</ele>
        <time>2024-10-15T14:53:11.410+00:00</time>
      </trkpt>
      <trkpt lat="49.33789" lon="1.15658">
        <ele>57</ele>
        <time>2024-10-15T14:53:15.463+00:00</time>
      </trkpt>
      <trkpt lat="49.33788" lon="1.15651">
        <ele>57</ele>
        <time>2024-10-15T14:53:19.929+00:00</time>
      </trkpt>
      <trkpt lat="49.33788" lon="1.15644">
        <ele>57</ele>
        <time>2024-10-15T14:53:24.169+00:00</time>
      </trkpt>
      <trkpt lat="49.33789" lon="1.15637">
        <ele>57</ele>
        <time>2024-10-15T14:53:28.303+00:00</time>
      </trkpt>
      <trkpt lat="49.33789" lon="1.15629">
        <ele>57</ele>
        <time>2024-10-15T14:53:32.451+00:00</time>
      </trkpt>
      <trkpt lat="49.33789" lon="1.15621">
        <ele>57</ele>
        <time>2024-10-15T14:53:36.471+00:00</time>
      </trkpt>
      <trkpt lat="49.33789" lon="1.15613">
        <ele>57</ele>
        <time>2024-10-15T14:53:41.169+00:00</time>
      </trkpt>
      <trkpt lat="49.33789" lon="1.15605">
        <ele>57</ele>
        <time>2024-10-15T14:53:45.371+00:00</time>
      </trkpt>
      <trkpt lat="49.3379" lon="1.15599">
        <ele>57</ele>
        <time>2024-10-15T14:53:49.473+00:00</time>
      </trkpt>
      <trkpt lat="49.33789" lon="1.15591">
        <ele>57</ele>
        <time>2024-10-15T14:53:54.253+00:00</time>
      </trkpt>
      <trkpt lat="49.33789" lon="1.15584">
        <ele>57</ele>
        <time>2024-10-15T14:53:58.690+00:00</time>
      </trkpt>
      <trkpt lat="49.3379" lon="1.15578">
        <ele>57</ele>
        <time>2024-10-15T14:54:03.037+00:00</time>
      </trkpt>
      <trkpt lat="49.33791" lon="1.1557">
        <ele>57</ele>
        <time>2024-10-15T14:54:07.367+00:00</time>
      </trkpt>
      <trkpt lat="49.33791" lon="1.15562">
        <ele>58</ele>
        <time>2024-10-15T14:54:11.487+00:00</time>
      </trkpt>
      <trkpt lat="49.3379" lon="1.15556">
        <ele>58</ele>
        <time>2024-10-15T14:54:15.696+00:00</time>
      </trkpt>
      <trkpt lat="49.3379" lon="1.15549">
        <ele>58</ele>
        <time>2024-10-15T14:54:19.908+00:00</time>
      </trkpt>
      <trkpt lat="49.33791" lon="1.15541">
        <ele>61</ele>
        <time>2024-10-15T14:54:24.172+00:00</time>
      </trkpt>
      <trkpt lat="49.33791" lon="1.15534">
        <ele>61</ele>
        <time>2024-10-15T14:54:28.454+00:00</time>
      </trkpt>
      <trkpt lat="49.33791" lon="1.15527">
        <ele>61</ele>
        <time>2024-10-15T14:54:32.712+00:00</time>
      </trkpt>
      <trkpt lat="49.33791" lon="1.15519">
        <ele>61</ele>
        <time>2024-10-15T14:54:36.955+00:00</time>
      </trkpt>
      <trkpt lat="49.33791" lon="1.15512">
        <ele>62</ele>
        <time>2024-10-15T14:54:41.308+00:00</time>
      </trkpt>
      <trkpt lat="49.33791" lon="1.15504">
        <ele>62</ele>
        <time>2024-10-15T14:54:45.628+00:00</time>
      </trkpt>
      <trkpt lat="49.33791" lon="1.15496">
        <ele>62</ele>
        <time>2024-10-15T14:54:49.935+00:00</time>
      </trkpt>
      <trkpt lat="49.3379" lon="1.15489">
        <ele>62</ele>
        <time>2024-10-15T14:54:54.145+00:00</time>
      </trkpt>
      <trkpt lat="49.3379" lon="1.15482">
        <ele>63</ele>
        <time>2024-10-15T14:54:58.454+00:00</time>
      </trkpt>
      <trkpt lat="49.3379" lon="1.15475">
        <ele>63</ele>
        <time>2024-10-15T14:55:02.770+00:00</time>
      </trkpt>
      <trkpt lat="49.3379" lon="1.15466">
        <ele>63</ele>
        <time>2024-10-15T14:55:07.084+00:00</time>
      </trkpt>
      <trkpt lat="49.3379" lon="1.1546">
        <ele>63</ele>
        <time>2024-10-15T14:55:11.210+00:00</time>
      </trkpt>
      <trkpt lat="49.3379" lon="1.15451">
        <ele>63</ele>
        <time>2024-10-15T14:55:15.791+00:00</time>
      </trkpt>
      <trkpt lat="49.33789" lon="1.15444">
        <ele>63</ele>
        <time>2024-10-15T14:55:19.873+00:00</time>
      </trkpt>
      <trkpt lat="49.33789" lon="1.15436">
        <ele>63</ele>
        <time>2024-10-15T14:55:24.126+00:00</time>
      </trkpt>
      <trkpt lat="49.33789" lon="1.15429">
        <ele>62</ele>
        <time>2024-10-15T14:55:28.331+00:00</time>
      </trkpt>
      <trkpt lat="49.33788" lon="1.15421">
        <ele>62</ele>
        <time>2024-10-15T14:55:32.462+00:00</time>
      </trkpt>
      <trkpt lat="49.33788" lon="1.15414">
        <ele>62</ele>
        <time>2024-10-15T14:55:36.772+00:00</time>
      </trkpt>
      <trkpt lat="49.33788" lon="1.15406">
        <ele>62</ele>
        <time>2024-10-15T14:55:41.094+00:00</time>
      </trkpt>
      <trkpt lat="49.33788" lon="1.15399">
        <ele>61</ele>
        <time>2024-10-15T14:55:45.434+00:00</time>
      </trkpt>
      <trkpt lat="49.33788" lon="1.15392">
        <ele>61</ele>
        <time>2024-10-15T14:55:49.688+00:00</time>
      </trkpt>
      <trkpt lat="49.33787" lon="1.15385">
        <ele>61</ele>
        <time>2024-10-15T14:55:53.870+00:00</time>
      </trkpt>
      <trkpt lat="49.33787" lon="1.15377">
        <ele>61</ele>
        <time>2024-10-15T14:55:58.209+00:00</time>
      </trkpt>
      <trkpt lat="49.33786" lon="1.1537">
        <ele>60</ele>
        <time>2024-10-15T14:56:02.446+00:00</time>
      </trkpt>
      <trkpt lat="49.33786" lon="1.15362">
        <ele>60</ele>
        <time>2024-10-15T14:56:06.887+00:00</time>
      </trkpt>
      <trkpt lat="49.33785" lon="1.15355">
        <ele>60</ele>
        <time>2024-10-15T14:56:11.099+00:00</time>
      </trkpt>
      <trkpt lat="49.33785" lon="1.15348">
        <ele>60</ele>
        <time>2024-10-15T14:56:15.189+00:00</time>
      </trkpt>
      <trkpt lat="49.33785" lon="1.1534">
        <ele>61</ele>
        <time>2024-10-15T14:56:19.394+00:00</time>
      </trkpt>
      <trkpt lat="49.33785" lon="1.15333">
        <ele>61</ele>
        <time>2024-10-15T14:56:23.645+00:00</time>
      </trkpt>
      <trkpt lat="49.33785" lon="1.15326">
        <ele>61</ele>
        <time>2024-10-15T14:56:27.809+00:00</time>
      </trkpt>
      <trkpt lat="49.33784" lon="1.15319">
        <ele>61</ele>
        <time>2024-10-15T14:56:31.931+00:00</time>
      </trkpt>
      <trkpt lat="49.33784" lon="1.15313">
        <ele>61</ele>
        <time>2024-10-15T14:56:36.113+00:00</time>
      </trkpt>
      <trkpt lat="49.33783" lon="1.15305">
        <ele>61</ele>
        <time>2024-10-15T14:56:40.297+00:00</time>
      </trkpt>
      <trkpt lat="49.33782" lon="1.15298">
        <ele>61</ele>
        <time>2024-10-15T14:56:44.458+00:00</time>
      </trkpt>
      <trkpt lat="49.33782" lon="1.15291">
        <ele>62</ele>
        <time>2024-10-15T14:56:48.891+00:00</time>
      </trkpt>
      <trkpt lat="49.33782" lon="1.15284">
        <ele>62</ele>
        <time>2024-10-15T14:56:53.113+00:00</time>
      </trkpt>
      <trkpt lat="49.33781" lon="1.15277">
        <ele>62</ele>
        <time>2024-10-15T14:56:57.406+00:00</time>
      </trkpt>
      <trkpt lat="49.33781" lon="1.15271">
        <ele>62</ele>
        <time>2024-10-15T14:57:01.476+00:00</time>
      </trkpt>
      <trkpt lat="49.33779" lon="1.15263">
        <ele>63</ele>
        <time>2024-10-15T14:57:05.712+00:00</time>
      </trkpt>
      <trkpt lat="49.33778" lon="1.15255">
        <ele>63</ele>
        <time>2024-10-15T14:57:09.944+00:00</time>
      </trkpt>
      <trkpt lat="49.33777" lon="1.15247">
        <ele>63</ele>
        <time>2024-10-15T14:57:14.328+00:00</time>
      </trkpt>
      <trkpt lat="49.33777" lon="1.1524">
        <ele>63</ele>
        <time>2024-10-15T14:57:18.729+00:00</time>
      </trkpt>
      <trkpt lat="49.33776" lon="1.15232">
        <ele>65</ele>
        <time>2024-10-15T14:57:23.116+00:00</time>
      </trkpt>
      <trkpt lat="49.33776" lon="1.15221">
        <ele>65</ele>
        <time>2024-10-15T14:57:46.443+00:00</time>
      </trkpt>
      <trkpt lat="49.33776" lon="1.1522">
        <ele>65</ele>
        <time>2024-10-15T14:57:50.930+00:00</time>
      </trkpt>
      <trkpt lat="49.33776" lon="1.15217">
        <ele>65</ele>
        <time>2024-10-15T14:57:55.458+00:00</time>
      </trkpt>
      <trkpt lat="49.33776" lon="1.15215">
        <ele>65</ele>
        <time>2024-10-15T14:57:59.709+00:00</time>
      </trkpt>
      <trkpt lat="49.33775" lon="1.15207">
        <ele>66</ele>
        <time>2024-10-15T14:58:03.994+00:00</time>
      </trkpt>
      <trkpt lat="49.33775" lon="1.15198">
        <ele>66</ele>
        <time>2024-10-15T14:58:17.465+00:00</time>
      </trkpt>
      <trkpt lat="49.33773" lon="1.15192">
        <ele>66</ele>
        <time>2024-10-15T14:58:22.096+00:00</time>
      </trkpt>
      <trkpt lat="49.33772" lon="1.15185">
        <ele>66</ele>
        <time>2024-10-15T14:58:26.645+00:00</time>
      </trkpt>
      <trkpt lat="49.33772" lon="1.15176">
        <ele>67</ele>
        <time>2024-10-15T14:58:30.929+00:00</time>
      </trkpt>
      <trkpt lat="49.33772" lon="1.15169">
        <ele>67</ele>
        <time>2024-10-15T14:58:35.006+00:00</time>
      </trkpt>
      <trkpt lat="49.33772" lon="1.1516">
        <ele>67</ele>
        <time>2024-10-15T14:58:39.051+00:00</time>
      </trkpt>
      <trkpt lat="49.33772" lon="1.15154">
        <ele>67</ele>
        <time>2024-10-15T14:58:43.168+00:00</time>
      </trkpt>
      <trkpt lat="49.33771" lon="1.15147">
        <ele>67</ele>
        <time>2024-10-15T14:58:47.331+00:00</time>
      </trkpt>
      <trkpt lat="49.33771" lon="1.15138">
        <ele>67</ele>
        <time>2024-10-15T14:58:51.928+00:00</time>
      </trkpt>
      <trkpt lat="49.3377" lon="1.15131">
        <ele>67</ele>
        <time>2024-10-15T14:58:56.051+00:00</time>
      </trkpt>
      <trkpt lat="49.3377" lon="1.15123">
        <ele>67</ele>
        <time>2024-10-15T14:59:00.131+00:00</time>
      </trkpt>
      <trkpt lat="49.33769" lon="1.15116">
        <ele>67</ele>
        <time>2024-10-15T14:59:04.268+00:00</time>
      </trkpt>
      <trkpt lat="49.33768" lon="1.15108">
        <ele>67</ele>
        <time>2024-10-15T14:59:08.415+00:00</time>
      </trkpt>
      <trkpt lat="49.33768" lon="1.15101">
        <ele>67</ele>
        <time>2024-10-15T14:59:12.627+00:00</time>
      </trkpt>
      <trkpt lat="49.33768" lon="1.15093">
        <ele>68</ele>
        <time>2024-10-15T14:59:16.850+00:00</time>
      </trkpt>
      <trkpt lat="49.33768" lon="1.15086">
        <ele>68</ele>
        <time>2024-10-15T14:59:21.035+00:00</time>
      </trkpt>
      <trkpt lat="49.33767" lon="1.15079">
        <ele>68</ele>
        <time>2024-10-15T14:59:25.246+00:00</time>
      </trkpt>
      <trkpt lat="49.33768" lon="1.15071">
        <ele>68</ele>
        <time>2024-10-15T14:59:29.323+00:00</time>
      </trkpt>
      <trkpt lat="49.33768" lon="1.15065">
        <ele>70</ele>
        <time>2024-10-15T14:59:33.324+00:00</time>
      </trkpt>
      <trkpt lat="49.33767" lon="1.15058">
        <ele>70</ele>
        <time>2024-10-15T14:59:37.435+00:00</time>
      </trkpt>
      <trkpt lat="49.33766" lon="1.1505">
        <ele>70</ele>
        <time>2024-10-15T14:59:41.762+00:00</time>
      </trkpt>
      <trkpt lat="49.33764" lon="1.15042">
        <ele>70</ele>
        <time>2024-10-15T14:59:46.371+00:00</time>
      </trkpt>
      <trkpt lat="49.33763" lon="1.15038">
        <ele>71</ele>
        <time>2024-10-15T14:59:50.465+00:00</time>
      </trkpt>
      <trkpt lat="49.33762" lon="1.15029">
        <ele>71</ele>
        <time>2024-10-15T14:59:55.290+00:00</time>
      </trkpt>
      <trkpt lat="49.33764" lon="1.15019">
        <ele>71</ele>
        <time>2024-10-15T14:59:59.435+00:00</time>
      </trkpt>
      <trkpt lat="49.33764" lon="1.15012">
        <ele>73</ele>
        <time>2024-10-15T15:00:03.455+00:00</time>
      </trkpt>
      <trkpt lat="49.33764" lon="1.15005">
        <ele>73</ele>
        <time>2024-10-15T15:00:07.630+00:00</time>
      </trkpt>
      <trkpt lat="49.33764" lon="1.14996">
        <ele>73</ele>
        <time>2024-10-15T15:00:12.307+00:00</time>
      </trkpt>
      <trkpt lat="49.33764" lon="1.14988">
        <ele>73</ele>
        <time>2024-10-15T15:00:16.440+00:00</time>
      </trkpt>
      <trkpt lat="49.33764" lon="1.14981">
        <ele>74</ele>
        <time>2024-10-15T15:00:20.722+00:00</time>
      </trkpt>
      <trkpt lat="49.33763" lon="1.14974">
        <ele>74</ele>
        <time>2024-10-15T15:00:24.885+00:00</time>
      </trkpt>
      <trkpt lat="49.33764" lon="1.14966">
        <ele>75</ele>
        <time>2024-10-15T15:00:29.150+00:00</time>
      </trkpt>
      <trkpt lat="49.33764" lon="1.14958">
        <ele>76</ele>
        <time>2024-10-15T15:00:33.353+00:00</time>
      </trkpt>
      <trkpt lat="49.33764" lon="1.14951">
        <ele>75</ele>
        <time>2024-10-15T15:00:37.474+00:00</time>
      </trkpt>
      <trkpt lat="49.33763" lon="1.14943">
        <ele>75</ele>
        <time>2024-10-15T15:00:41.805+00:00</time>
      </trkpt>
      <trkpt lat="49.33763" lon="1.14936">
        <ele>75</ele>
        <time>2024-10-15T15:00:46.107+00:00</time>
      </trkpt>
      <trkpt lat="49.33762" lon="1.14929">
        <ele>75</ele>
        <time>2024-10-15T15:00:50.391+00:00</time>
      </trkpt>
      <trkpt lat="49.33762" lon="1.14921">
        <ele>75</ele>
        <time>2024-10-15T15:00:54.692+00:00</time>
      </trkpt>
      <trkpt lat="49.33762" lon="1.14913">
        <ele>75</ele>
        <time>2024-10-15T15:00:58.905+00:00</time>
      </trkpt>
      <trkpt lat="49.33762" lon="1.14906">
        <ele>75</ele>
        <time>2024-10-15T15:01:03.166+00:00</time>
      </trkpt>
      <trkpt lat="49.33761" lon="1.14899">
        <ele>77</ele>
        <time>2024-10-15T15:01:07.488+00:00</time>
      </trkpt>
      <trkpt lat="49.33761" lon="1.14892">
        <ele>77</ele>
        <time>2024-10-15T15:01:11.909+00:00</time>
      </trkpt>
      <trkpt lat="49.33761" lon="1.14886">
        <ele>77</ele>
        <time>2024-10-15T15:01:16.151+00:00</time>
      </trkpt>
      <trkpt lat="49.33761" lon="1.14879">
        <ele>77</ele>
        <time>2024-10-15T15:01:20.465+00:00</time>
      </trkpt>
      <trkpt lat="49.33762" lon="1.14873">
        <ele>78</ele>
        <time>2024-10-15T15:01:24.455+00:00</time>
      </trkpt>
      <trkpt lat="49.33761" lon="1.14866">
        <ele>78</ele>
        <time>2024-10-15T15:01:28.806+00:00</time>
      </trkpt>
      <trkpt lat="49.33761" lon="1.14859">
        <ele>78</ele>
        <time>2024-10-15T15:01:33.046+00:00</time>
      </trkpt>
      <trkpt lat="49.33761" lon="1.14851">
        <ele>78</ele>
        <time>2024-10-15T15:01:37.273+00:00</time>
      </trkpt>
      <trkpt lat="49.33761" lon="1.14845">
        <ele>80</ele>
        <time>2024-10-15T15:01:41.480+00:00</time>
      </trkpt>
      <trkpt lat="49.3376" lon="1.14825">
        <ele>80</ele>
        <time>2024-10-15T15:01:59.468+00:00</time>
      </trkpt>
      <trkpt lat="49.3376" lon="1.14824">
        <ele>80</ele>
        <time>2024-10-15T15:02:07.103+00:00</time>
      </trkpt>
      <trkpt lat="49.33761" lon="1.14824">
        <ele>80</ele>
        <time>2024-10-15T15:02:11.486+00:00</time>
      </trkpt>
      <trkpt lat="49.3376" lon="1.14824">
        <ele>80</ele>
        <time>2024-10-15T15:02:16.457+00:00</time>
      </trkpt>
      <trkpt lat="49.3376" lon="1.14817">
        <ele>81</ele>
        <time>2024-10-15T15:02:21.014+00:00</time>
      </trkpt>
      <trkpt lat="49.33759" lon="1.14808">
        <ele>81</ele>
        <time>2024-10-15T15:02:25.407+00:00</time>
      </trkpt>
      <trkpt lat="49.33758" lon="1.14801">
        <ele>81</ele>
        <time>2024-10-15T15:02:29.934+00:00</time>
      </trkpt>
      <trkpt lat="49.33758" lon="1.14794">
        <ele>81</ele>
        <time>2024-10-15T15:02:34.211+00:00</time>
      </trkpt>
      <trkpt lat="49.33758" lon="1.14785">
        <ele>81</ele>
        <time>2024-10-15T15:02:38.385+00:00</time>
      </trkpt>
      <trkpt lat="49.33758" lon="1.14778">
        <ele>81</ele>
        <time>2024-10-15T15:02:42.627+00:00</time>
      </trkpt>
      <trkpt lat="49.33759" lon="1.14771">
        <ele>81</ele>
        <time>2024-10-15T15:02:46.870+00:00</time>
      </trkpt>
      <trkpt lat="49.33758" lon="1.14764">
        <ele>81</ele>
        <time>2024-10-15T15:02:50.930+00:00</time>
      </trkpt>
      <trkpt lat="49.33758" lon="1.14758">
        <ele>82</ele>
        <time>2024-10-15T15:02:55.044+00:00</time>
      </trkpt>
      <trkpt lat="49.33759" lon="1.14755">
        <ele>82</ele>
        <time>2024-10-15T15:02:59.350+00:00</time>
      </trkpt>
      <trkpt lat="49.3376" lon="1.14749">
        <ele>82</ele>
        <time>2024-10-15T15:03:03.472+00:00</time>
      </trkpt>
      <trkpt lat="49.3376" lon="1.14742">
        <ele>82</ele>
        <time>2024-10-15T15:03:07.523+00:00</time>
      </trkpt>
      <trkpt lat="49.3376" lon="1.14736">
        <ele>82</ele>
        <time>2024-10-15T15:03:11.791+00:00</time>
      </trkpt>
      <trkpt lat="49.3376" lon="1.14729">
        <ele>82</ele>
        <time>2024-10-15T15:03:16.050+00:00</time>
      </trkpt>
      <trkpt lat="49.3376" lon="1.14721">
        <ele>82</ele>
        <time>2024-10-15T15:03:20.306+00:00</time>
      </trkpt>
      <trkpt lat="49.3376" lon="1.14714">
        <ele>82</ele>
        <time>2024-10-15T15:03:24.467+00:00</time>
      </trkpt>
      <trkpt lat="49.33761" lon="1.14706">
        <ele>82</ele>
        <time>2024-10-15T15:03:28.714+00:00</time>
      </trkpt>
      <trkpt lat="49.33761" lon="1.14699">
        <ele>82</ele>
        <time>2024-10-15T15:03:32.765+00:00</time>
      </trkpt>
      <trkpt lat="49.33762" lon="1.14691">
        <ele>82</ele>
        <time>2024-10-15T15:03:37.111+00:00</time>
      </trkpt>
      <trkpt lat="49.33763" lon="1.14684">
        <ele>82</ele>
        <time>2024-10-15T15:03:41.451+00:00</time>
      </trkpt>
      <trkpt lat="49.33763" lon="1.14677">
        <ele>82</ele>
        <time>2024-10-15T15:03:45.814+00:00</time>
      </trkpt>
      <trkpt lat="49.33763" lon="1.14669">
        <ele>82</ele>
        <time>2024-10-15T15:03:50.088+00:00</time>
      </trkpt>
      <trkpt lat="49.33764" lon="1.14662">
        <ele>82</ele>
        <time>2024-10-15T15:03:54.246+00:00</time>
      </trkpt>
      <trkpt lat="49.33765" lon="1.14655">
        <ele>82</ele>
        <time>2024-10-15T15:03:58.467+00:00</time>
      </trkpt>
      <trkpt lat="49.33766" lon="1.14648">
        <ele>82</ele>
        <time>2024-10-15T15:04:02.811+00:00</time>
      </trkpt>
      <trkpt lat="49.33767" lon="1.1464">
        <ele>82</ele>
        <time>2024-10-15T15:04:07.026+00:00</time>
      </trkpt>
      <trkpt lat="49.33768" lon="1.14633">
        <ele>82</ele>
        <time>2024-10-15T15:04:11.188+00:00</time>
      </trkpt>
      <trkpt lat="49.33769" lon="1.14626">
        <ele>82</ele>
        <time>2024-10-15T15:04:15.312+00:00</time>
      </trkpt>
      <trkpt lat="49.33771" lon="1.14619">
        <ele>83</ele>
        <time>2024-10-15T15:04:19.471+00:00</time>
      </trkpt>
      <trkpt lat="49.33772" lon="1.14612">
        <ele>83</ele>
        <time>2024-10-15T15:04:23.786+00:00</time>
      </trkpt>
      <trkpt lat="49.33773" lon="1.14604">
        <ele>83</ele>
        <time>2024-10-15T15:04:28.050+00:00</time>
      </trkpt>
      <trkpt lat="49.33774" lon="1.14597">
        <ele>84</ele>
        <time>2024-10-15T15:04:32.284+00:00</time>
      </trkpt>
      <trkpt lat="49.33775" lon="1.1459">
        <ele>84</ele>
        <time>2024-10-15T15:04:36.467+00:00</time>
      </trkpt>
      <trkpt lat="49.33775" lon="1.14582">
        <ele>84</ele>
        <time>2024-10-15T15:04:40.826+00:00</time>
      </trkpt>
      <trkpt lat="49.33776" lon="1.14574">
        <ele>84</ele>
        <time>2024-10-15T15:04:45.046+00:00</time>
      </trkpt>
      <trkpt lat="49.33777" lon="1.14567">
        <ele>84</ele>
        <time>2024-10-15T15:04:49.290+00:00</time>
      </trkpt>
      <trkpt lat="49.33779" lon="1.14559">
        <ele>84</ele>
        <time>2024-10-15T15:04:53.456+00:00</time>
      </trkpt>
      <trkpt lat="49.3378" lon="1.14551">
        <ele>84</ele>
        <time>2024-10-15T15:04:57.831+00:00</time>
      </trkpt>
      <trkpt lat="49.33781" lon="1.14544">
        <ele>84</ele>
        <time>2024-10-15T15:05:02.046+00:00</time>
      </trkpt>
      <trkpt lat="49.33782" lon="1.14538">
        <ele>85</ele>
        <time>2024-10-15T15:05:06.231+00:00</time>
      </trkpt>
      <trkpt lat="49.33784" lon="1.14532">
        <ele>85</ele>
        <time>2024-10-15T15:05:10.368+00:00</time>
      </trkpt>
      <trkpt lat="49.33784" lon="1.14526">
        <ele>85</ele>
        <time>2024-10-15T15:05:14.431+00:00</time>
      </trkpt>
      <trkpt lat="49.33785" lon="1.14519">
        <ele>85</ele>
        <time>2024-10-15T15:05:19.166+00:00</time>
      </trkpt>
      <trkpt lat="49.33786" lon="1.14513">
        <ele>85</ele>
        <time>2024-10-15T15:05:23.225+00:00</time>
      </trkpt>
      <trkpt lat="49.33787" lon="1.14507">
        <ele>85</ele>
        <time>2024-10-15T15:05:27.437+00:00</time>
      </trkpt>
      <trkpt lat="49.33786" lon="1.145">
        <ele>85</ele>
        <time>2024-10-15T15:05:32.129+00:00</time>
      </trkpt>
      <trkpt lat="49.33788" lon="1.14492">
        <ele>85</ele>
        <time>2024-10-15T15:05:36.472+00:00</time>
      </trkpt>
      <trkpt lat="49.33789" lon="1.14484">
        <ele>85</ele>
        <time>2024-10-15T15:05:41.344+00:00</time>
      </trkpt>
      <trkpt lat="49.33789" lon="1.1448">
        <ele>85</ele>
        <time>2024-10-15T15:05:45.928+00:00</time>
      </trkpt>
      <trkpt lat="49.33791" lon="1.14472">
        <ele>85</ele>
        <time>2024-10-15T15:05:50.457+00:00</time>
      </trkpt>
      <trkpt lat="49.33795" lon="1.14465">
        <ele>83</ele>
        <time>2024-10-15T15:05:55.110+00:00</time>
      </trkpt>
      <trkpt lat="49.33797" lon="1.14461">
        <ele>83</ele>
        <time>2024-10-15T15:05:59.204+00:00</time>
      </trkpt>
      <trkpt lat="49.33799" lon="1.14454">
        <ele>83</ele>
        <time>2024-10-15T15:06:03.728+00:00</time>
      </trkpt>
      <trkpt lat="49.33802" lon="1.14447">
        <ele>83</ele>
        <time>2024-10-15T15:06:08.193+00:00</time>
      </trkpt>
      <trkpt lat="49.33805" lon="1.1444">
        <ele>83</ele>
        <time>2024-10-15T15:06:12.664+00:00</time>
      </trkpt>
      <trkpt lat="49.33807" lon="1.14432">
        <ele>83</ele>
        <time>2024-10-15T15:06:17.208+00:00</time>
      </trkpt>
      <trkpt lat="49.3381" lon="1.14425">
        <ele>83</ele>
        <time>2024-10-15T15:06:21.710+00:00</time>
      </trkpt>
      <trkpt lat="49.33811" lon="1.14417">
        <ele>83</ele>
        <time>2024-10-15T15:06:26.173+00:00</time>
      </trkpt>
      <trkpt lat="49.33812" lon="1.14408">
        <ele>83</ele>
        <time>2024-10-15T15:06:30.723+00:00</time>
      </trkpt>
      <trkpt lat="49.33814" lon="1.144">
        <ele>83</ele>
        <time>2024-10-15T15:06:35.369+00:00</time>
      </trkpt>
      <trkpt lat="49.33815" lon="1.14393">
        <ele>83</ele>
        <time>2024-10-15T15:06:39.807+00:00</time>
      </trkpt>
      <trkpt lat="49.33816" lon="1.14387">
        <ele>83</ele>
        <time>2024-10-15T15:06:43.929+00:00</time>
      </trkpt>
      <trkpt lat="49.33815" lon="1.14379">
        <ele>83</ele>
        <time>2024-10-15T15:06:48.436+00:00</time>
      </trkpt>
      <trkpt lat="49.33816" lon="1.1437">
        <ele>83</ele>
        <time>2024-10-15T15:06:53.395+00:00</time>
      </trkpt>
      <trkpt lat="49.33817" lon="1.14362">
        <ele>83</ele>
        <time>2024-10-15T15:06:57.912+00:00</time>
      </trkpt>
      <trkpt lat="49.33819" lon="1.14353">
        <ele>83</ele>
        <time>2024-10-15T15:07:02.464+00:00</time>
      </trkpt>
      <trkpt lat="49.33821" lon="1.14346">
        <ele>83</ele>
        <time>2024-10-15T15:07:07.051+00:00</time>
      </trkpt>
      <trkpt lat="49.33822" lon="1.14339">
        <ele>83</ele>
        <time>2024-10-15T15:07:11.457+00:00</time>
      </trkpt>
      <trkpt lat="49.33823" lon="1.1433">
        <ele>83</ele>
        <time>2024-10-15T15:07:16.427+00:00</time>
      </trkpt>
      <trkpt lat="49.33823" lon="1.14323">
        <ele>83</ele>
        <time>2024-10-15T15:07:20.547+00:00</time>
      </trkpt>
      <trkpt lat="49.33824" lon="1.14314">
        <ele>83</ele>
        <time>2024-10-15T15:07:24.948+00:00</time>
      </trkpt>
      <trkpt lat="49.33825" lon="1.14306">
        <ele>83</ele>
        <time>2024-10-15T15:07:29.267+00:00</time>
      </trkpt>
      <trkpt lat="49.33826" lon="1.14298">
        <ele>83</ele>
        <time>2024-10-15T15:07:33.585+00:00</time>
      </trkpt>
      <trkpt lat="49.33826" lon="1.1429">
        <ele>83</ele>
        <time>2024-10-15T15:07:37.975+00:00</time>
      </trkpt>
      <trkpt lat="49.33827" lon="1.14282">
        <ele>83</ele>
        <time>2024-10-15T15:07:42.420+00:00</time>
      </trkpt>
      <trkpt lat="49.33829" lon="1.14274">
        <ele>83</ele>
        <time>2024-10-15T15:07:46.848+00:00</time>
      </trkpt>
      <trkpt lat="49.33829" lon="1.14266">
        <ele>83</ele>
        <time>2024-10-15T15:07:51.285+00:00</time>
      </trkpt>
      <trkpt lat="49.3383" lon="1.1426">
        <ele>82</ele>
        <time>2024-10-15T15:07:55.673+00:00</time>
      </trkpt>
      <trkpt lat="49.33832" lon="1.14252">
        <ele>82</ele>
        <time>2024-10-15T15:08:00.031+00:00</time>
      </trkpt>
      <trkpt lat="49.33833" lon="1.14244">
        <ele>82</ele>
        <time>2024-10-15T15:08:04.431+00:00</time>
      </trkpt>
      <trkpt lat="49.33834" lon="1.14235">
        <ele>82</ele>
        <time>2024-10-15T15:08:08.748+00:00</time>
      </trkpt>
      <trkpt lat="49.33836" lon="1.14227">
        <ele>82</ele>
        <time>2024-10-15T15:08:13.335+00:00</time>
      </trkpt>
      <trkpt lat="49.33838" lon="1.1422">
        <ele>82</ele>
        <time>2024-10-15T15:08:17.463+00:00</time>
      </trkpt>
      <trkpt lat="49.33839" lon="1.14211">
        <ele>82</ele>
        <time>2024-10-15T15:08:22.006+00:00</time>
      </trkpt>
      <trkpt lat="49.33839" lon="1.14202">
        <ele>82</ele>
        <time>2024-10-15T15:08:26.459+00:00</time>
      </trkpt>
      <trkpt lat="49.33841" lon="1.14194">
        <ele>82</ele>
        <time>2024-10-15T15:08:30.910+00:00</time>
      </trkpt>
      <trkpt lat="49.33842" lon="1.14185">
        <ele>82</ele>
        <time>2024-10-15T15:08:35.391+00:00</time>
      </trkpt>
      <trkpt lat="49.33844" lon="1.14177">
        <ele>82</ele>
        <time>2024-10-15T15:08:39.805+00:00</time>
      </trkpt>
      <trkpt lat="49.33846" lon="1.14169">
        <ele>82</ele>
        <time>2024-10-15T15:08:44.145+00:00</time>
      </trkpt>
      <trkpt lat="49.33847" lon="1.1416">
        <ele>82</ele>
        <time>2024-10-15T15:08:48.550+00:00</time>
      </trkpt>
      <trkpt lat="49.33848" lon="1.14152">
        <ele>81</ele>
        <time>2024-10-15T15:08:53.114+00:00</time>
      </trkpt>
      <trkpt lat="49.33849" lon="1.14144">
        <ele>81</ele>
        <time>2024-10-15T15:08:57.374+00:00</time>
      </trkpt>
      <trkpt lat="49.33851" lon="1.14135">
        <ele>81</ele>
        <time>2024-10-15T15:09:01.812+00:00</time>
      </trkpt>
      <trkpt lat="49.33848" lon="1.14121">
        <ele>81</ele>
        <time>2024-10-15T15:10:16.423+00:00</time>
      </trkpt>
      <trkpt lat="49.33848" lon="1.1412">
        <ele>81</ele>
        <time>2024-10-15T15:10:21.431+00:00</time>
      </trkpt>
      <trkpt lat="49.33848" lon="1.14116">
        <ele>81</ele>
        <time>2024-10-15T15:10:25.435+00:00</time>
      </trkpt>
      <trkpt lat="49.33851" lon="1.14101">
        <ele>81</ele>
        <time>2024-10-15T15:10:29.749+00:00</time>
      </trkpt>
      <trkpt lat="49.33852" lon="1.14094">
        <ele>82</ele>
        <time>2024-10-15T15:10:34.111+00:00</time>
      </trkpt>
      <trkpt lat="49.33853" lon="1.14086">
        <ele>82</ele>
        <time>2024-10-15T15:10:38.569+00:00</time>
      </trkpt>
      <trkpt lat="49.33855" lon="1.14079">
        <ele>82</ele>
        <time>2024-10-15T15:10:42.987+00:00</time>
      </trkpt>
      <trkpt lat="49.33856" lon="1.14071">
        <ele>82</ele>
        <time>2024-10-15T15:10:47.455+00:00</time>
      </trkpt>
      <trkpt lat="49.33856" lon="1.14065">
        <ele>82</ele>
        <time>2024-10-15T15:10:51.477+00:00</time>
      </trkpt>
      <trkpt lat="49.33855" lon="1.14057">
        <ele>82</ele>
        <time>2024-10-15T15:10:55.783+00:00</time>
      </trkpt>
      <trkpt lat="49.33856" lon="1.1405">
        <ele>82</ele>
        <time>2024-10-15T15:11:00.248+00:00</time>
      </trkpt>
      <trkpt lat="49.33857" lon="1.14042">
        <ele>82</ele>
        <time>2024-10-15T15:11:04.691+00:00</time>
      </trkpt>
      <trkpt lat="49.33858" lon="1.14036">
        <ele>82</ele>
        <time>2024-10-15T15:11:09.096+00:00</time>
      </trkpt>
      <trkpt lat="49.3386" lon="1.14028">
        <ele>82</ele>
        <time>2024-10-15T15:11:13.444+00:00</time>
      </trkpt>
      <trkpt lat="49.3386" lon="1.14021">
        <ele>82</ele>
        <time>2024-10-15T15:11:17.450+00:00</time>
      </trkpt>
      <trkpt lat="49.33862" lon="1.14014">
        <ele>82</ele>
        <time>2024-10-15T15:11:21.787+00:00</time>
      </trkpt>
      <trkpt lat="49.33863" lon="1.14006">
        <ele>81</ele>
        <time>2024-10-15T15:11:26.203+00:00</time>
      </trkpt>
      <trkpt lat="49.33864" lon="1.14">
        <ele>81</ele>
        <time>2024-10-15T15:11:30.691+00:00</time>
      </trkpt>
      <trkpt lat="49.33866" lon="1.13992">
        <ele>81</ele>
        <time>2024-10-15T15:11:35.148+00:00</time>
      </trkpt>
      <trkpt lat="49.33868" lon="1.13984">
        <ele>81</ele>
        <time>2024-10-15T15:11:39.475+00:00</time>
      </trkpt>
      <trkpt lat="49.33868" lon="1.13975">
        <ele>81</ele>
        <time>2024-10-15T15:11:43.827+00:00</time>
      </trkpt>
      <trkpt lat="49.33868" lon="1.13968">
        <ele>81</ele>
        <time>2024-10-15T15:11:47.854+00:00</time>
      </trkpt>
      <trkpt lat="49.33869" lon="1.13959">
        <ele>81</ele>
        <time>2024-10-15T15:11:52.091+00:00</time>
      </trkpt>
      <trkpt lat="49.33872" lon="1.13952">
        <ele>80</ele>
        <time>2024-10-15T15:11:56.427+00:00</time>
      </trkpt>
      <trkpt lat="49.33878" lon="1.13951">
        <ele>80</ele>
        <time>2024-10-15T15:12:00.891+00:00</time>
      </trkpt>
      <trkpt lat="49.33883" lon="1.13949">
        <ele>80</ele>
        <time>2024-10-15T15:12:04.931+00:00</time>
      </trkpt>
      <trkpt lat="49.33887" lon="1.13946">
        <ele>80</ele>
        <time>2024-10-15T15:12:09.031+00:00</time>
      </trkpt>
      <trkpt lat="49.33891" lon="1.13944">
        <ele>80</ele>
        <time>2024-10-15T15:12:13.090+00:00</time>
      </trkpt>
      <trkpt lat="49.33896" lon="1.13942">
        <ele>80</ele>
        <time>2024-10-15T15:12:17.526+00:00</time>
      </trkpt>
      <trkpt lat="49.33902" lon="1.1394">
        <ele>80</ele>
        <time>2024-10-15T15:12:22.010+00:00</time>
      </trkpt>
      <trkpt lat="49.33906" lon="1.13936">
        <ele>81</ele>
        <time>2024-10-15T15:12:26.111+00:00</time>
      </trkpt>
      <trkpt lat="49.33911" lon="1.13934">
        <ele>81</ele>
        <time>2024-10-15T15:12:30.692+00:00</time>
      </trkpt>
      <trkpt lat="49.33915" lon="1.13931">
        <ele>81</ele>
        <time>2024-10-15T15:12:34.726+00:00</time>
      </trkpt>
      <trkpt lat="49.3392" lon="1.1393">
        <ele>81</ele>
        <time>2024-10-15T15:12:39.228+00:00</time>
      </trkpt>
      <trkpt lat="49.33926" lon="1.13927">
        <ele>81</ele>
        <time>2024-10-15T15:12:43.792+00:00</time>
      </trkpt>
      <trkpt lat="49.33932" lon="1.13926">
        <ele>82</ele>
        <time>2024-10-15T15:12:48.427+00:00</time>
      </trkpt>
      <trkpt lat="49.33934" lon="1.1392">
        <ele>82</ele>
        <time>2024-10-15T15:12:51.906+00:00</time>
      </trkpt>
      <trkpt lat="49.33938" lon="1.13916">
        <ele>82</ele>
        <time>2024-10-15T15:12:56.933+00:00</time>
      </trkpt>
      <trkpt lat="49.33944" lon="1.13913">
        <ele>82</ele>
        <time>2024-10-15T15:13:01.373+00:00</time>
      </trkpt>
      <trkpt lat="49.33951" lon="1.13913">
        <ele>82</ele>
        <time>2024-10-15T15:13:05.848+00:00</time>
      </trkpt>
      <trkpt lat="49.33957" lon="1.13913">
        <ele>82</ele>
        <time>2024-10-15T15:13:10.308+00:00</time>
      </trkpt>
      <trkpt lat="49.33962" lon="1.13912">
        <ele>83</ele>
        <time>2024-10-15T15:13:14.752+00:00</time>
      </trkpt>
      <trkpt lat="49.33967" lon="1.13909">
        <ele>83</ele>
        <time>2024-10-15T15:13:19.054+00:00</time>
      </trkpt>
      <trkpt lat="49.33971" lon="1.13908">
        <ele>83</ele>
        <time>2024-10-15T15:13:23.448+00:00</time>
      </trkpt>
      <trkpt lat="49.33977" lon="1.13905">
        <ele>83</ele>
        <time>2024-10-15T15:13:28.006+00:00</time>
      </trkpt>
      <trkpt lat="49.33982" lon="1.13903">
        <ele>83</ele>
        <time>2024-10-15T15:13:32.034+00:00</time>
      </trkpt>
      <trkpt lat="49.33986" lon="1.139">
        <ele>82</ele>
        <time>2024-10-15T15:13:36.110+00:00</time>
      </trkpt>
      <trkpt lat="49.33991" lon="1.13896">
        <ele>83</ele>
        <time>2024-10-15T15:13:40.627+00:00</time>
      </trkpt>
      <trkpt lat="49.33995" lon="1.13894">
        <ele>83</ele>
        <time>2024-10-15T15:13:44.673+00:00</time>
      </trkpt>
      <trkpt lat="49.34" lon="1.13892">
        <ele>83</ele>
        <time>2024-10-15T15:13:48.806+00:00</time>
      </trkpt>
      <trkpt lat="49.34004" lon="1.1389">
        <ele>83</ele>
        <time>2024-10-15T15:13:52.853+00:00</time>
      </trkpt>
      <trkpt lat="49.34009" lon="1.13888">
        <ele>83</ele>
        <time>2024-10-15T15:13:56.887+00:00</time>
      </trkpt>
      <trkpt lat="49.34014" lon="1.13886">
        <ele>83</ele>
        <time>2024-10-15T15:14:01.456+00:00</time>
      </trkpt>
      <trkpt lat="49.34019" lon="1.13884">
        <ele>84</ele>
        <time>2024-10-15T15:14:06.147+00:00</time>
      </trkpt>
      <trkpt lat="49.34024" lon="1.13881">
        <ele>84</ele>
        <time>2024-10-15T15:14:10.631+00:00</time>
      </trkpt>
      <trkpt lat="49.34029" lon="1.13879">
        <ele>84</ele>
        <time>2024-10-15T15:14:14.732+00:00</time>
      </trkpt>
      <trkpt lat="49.34034" lon="1.13878">
        <ele>84</ele>
        <time>2024-10-15T15:14:19.372+00:00</time>
      </trkpt>
      <trkpt lat="49.34039" lon="1.13876">
        <ele>84</ele>
        <time>2024-10-15T15:14:23.948+00:00</time>
      </trkpt>
      <trkpt lat="49.34043" lon="1.13874">
        <ele>84</ele>
        <time>2024-10-15T15:14:27.991+00:00</time>
      </trkpt>
      <trkpt lat="49.34048" lon="1.13872">
        <ele>84</ele>
        <time>2024-10-15T15:14:32.460+00:00</time>
      </trkpt>
      <trkpt lat="49.34054" lon="1.13869">
        <ele>84</ele>
        <time>2024-10-15T15:14:37.112+00:00</time>
      </trkpt>
      <trkpt lat="49.34059" lon="1.13868">
        <ele>84</ele>
        <time>2024-10-15T15:14:41.185+00:00</time>
      </trkpt>
      <trkpt lat="49.34063" lon="1.13866">
        <ele>84</ele>
        <time>2024-10-15T15:14:45.770+00:00</time>
      </trkpt>
      <trkpt lat="49.34067" lon="1.13863">
        <ele>84</ele>
        <time>2024-10-15T15:14:49.786+00:00</time>
      </trkpt>
      <trkpt lat="49.34072" lon="1.1386">
        <ele>84</ele>
        <time>2024-10-15T15:14:54.327+00:00</time>
      </trkpt>
      <trkpt lat="49.34077" lon="1.13857">
        <ele>84</ele>
        <time>2024-10-15T15:14:58.867+00:00</time>
      </trkpt>
      <trkpt lat="49.34082" lon="1.13855">
        <ele>84</ele>
        <time>2024-10-15T15:15:03.410+00:00</time>
      </trkpt>
      <trkpt lat="49.34087" lon="1.13853">
        <ele>84</ele>
        <time>2024-10-15T15:15:08.184+00:00</time>
      </trkpt>
      <trkpt lat="49.34092" lon="1.1385">
        <ele>84</ele>
        <time>2024-10-15T15:15:12.308+00:00</time>
      </trkpt>
      <trkpt lat="49.34097" lon="1.13847">
        <ele>84</ele>
        <time>2024-10-15T15:15:16.385+00:00</time>
      </trkpt>
      <trkpt lat="49.34101" lon="1.13844">
        <ele>85</ele>
        <time>2024-10-15T15:15:20.428+00:00</time>
      </trkpt>
      <trkpt lat="49.34106" lon="1.13842">
        <ele>85</ele>
        <time>2024-10-15T15:15:24.646+00:00</time>
      </trkpt>
      <trkpt lat="49.3411" lon="1.13837">
        <ele>85</ele>
        <time>2024-10-15T15:15:28.814+00:00</time>
      </trkpt>
      <trkpt lat="49.34114" lon="1.13834">
        <ele>85</ele>
        <time>2024-10-15T15:15:32.949+00:00</time>
      </trkpt>
      <trkpt lat="49.34117" lon="1.13829">
        <ele>85</ele>
        <time>2024-10-15T15:15:37.473+00:00</time>
      </trkpt>
      <trkpt lat="49.3412" lon="1.13825">
        <ele>85</ele>
        <time>2024-10-15T15:15:41.971+00:00</time>
      </trkpt>
      <trkpt lat="49.3412" lon="1.1382">
        <ele>85</ele>
        <time>2024-10-15T15:15:46.129+00:00</time>
      </trkpt>
      <trkpt lat="49.34117" lon="1.1381">
        <ele>85</ele>
        <time>2024-10-15T15:15:56.455+00:00</time>
      </trkpt>
      <trkpt lat="49.34115" lon="1.13803">
        <ele>85</ele>
        <time>2024-10-15T15:16:00.867+00:00</time>
      </trkpt>
      <trkpt lat="49.34114" lon="1.13803">
        <ele>85</ele>
        <time>2024-10-15T15:16:05.370+00:00</time>
      </trkpt>
      <trkpt lat="49.34115" lon="1.138">
        <ele>85</ele>
        <time>2024-10-15T15:16:10.922+00:00</time>
      </trkpt>
      <trkpt lat="49.34114" lon="1.13792">
        <ele>85</ele>
        <time>2024-10-15T15:16:15.367+00:00</time>
      </trkpt>
      <trkpt lat="49.34111" lon="1.13783">
        <ele>85</ele>
        <time>2024-10-15T15:16:19.852+00:00</time>
      </trkpt>
      <trkpt lat="49.34109" lon="1.13775">
        <ele>85</ele>
        <time>2024-10-15T15:16:24.419+00:00</time>
      </trkpt>
      <trkpt lat="49.34108" lon="1.13769">
        <ele>85</ele>
        <time>2024-10-15T15:16:28.783+00:00</time>
      </trkpt>
      <trkpt lat="49.34107" lon="1.13762">
        <ele>85</ele>
        <time>2024-10-15T15:16:33.429+00:00</time>
      </trkpt>
      <trkpt lat="49.34107" lon="1.13755">
        <ele>85</ele>
        <time>2024-10-15T15:16:37.750+00:00</time>
      </trkpt>
      <trkpt lat="49.34106" lon="1.13747">
        <ele>85</ele>
        <time>2024-10-15T15:16:41.746+00:00</time>
      </trkpt>
      <trkpt lat="49.34105" lon="1.13741">
        <ele>85</ele>
        <time>2024-10-15T15:16:45.791+00:00</time>
      </trkpt>
      <trkpt lat="49.34102" lon="1.13733">
        <ele>85</ele>
        <time>2024-10-15T15:16:50.208+00:00</time>
      </trkpt>
      <trkpt lat="49.34099" lon="1.13728">
        <ele>85</ele>
        <time>2024-10-15T15:16:54.312+00:00</time>
      </trkpt>
      <trkpt lat="49.34095" lon="1.13721">
        <ele>85</ele>
        <time>2024-10-15T15:16:58.945+00:00</time>
      </trkpt>
      <trkpt lat="49.34093" lon="1.13713">
        <ele>85</ele>
        <time>2024-10-15T15:17:03.390+00:00</time>
      </trkpt>
      <trkpt lat="49.34093" lon="1.13704">
        <ele>86</ele>
        <time>2024-10-15T15:17:08.088+00:00</time>
      </trkpt>
      <trkpt lat="49.34091" lon="1.13695">
        <ele>86</ele>
        <time>2024-10-15T15:17:12.474+00:00</time>
      </trkpt>
      <trkpt lat="49.3409" lon="1.13687">
        <ele>86</ele>
        <time>2024-10-15T15:17:17.180+00:00</time>
      </trkpt>
      <trkpt lat="49.34089" lon="1.13679">
        <ele>86</ele>
        <time>2024-10-15T15:17:21.687+00:00</time>
      </trkpt>
      <trkpt lat="49.34088" lon="1.13672">
        <ele>86</ele>
        <time>2024-10-15T15:17:26.172+00:00</time>
      </trkpt>
      <trkpt lat="49.34087" lon="1.13665">
        <ele>86</ele>
        <time>2024-10-15T15:17:30.187+00:00</time>
      </trkpt>
      <trkpt lat="49.34086" lon="1.13659">
        <ele>86</ele>
        <time>2024-10-15T15:17:34.753+00:00</time>
      </trkpt>
      <trkpt lat="49.34083" lon="1.13653">
        <ele>86</ele>
        <time>2024-10-15T15:17:38.967+00:00</time>
      </trkpt>
      <trkpt lat="49.34081" lon="1.13646">
        <ele>86</ele>
        <time>2024-10-15T15:17:43.428+00:00</time>
      </trkpt>
      <trkpt lat="49.34078" lon="1.13638">
        <ele>86</ele>
        <time>2024-10-15T15:17:48.185+00:00</time>
      </trkpt>
      <trkpt lat="49.34077" lon="1.13631">
        <ele>86</ele>
        <time>2024-10-15T15:17:52.430+00:00</time>
      </trkpt>
      <trkpt lat="49.34074" lon="1.13624">
        <ele>86</ele>
        <time>2024-10-15T15:17:57.152+00:00</time>
      </trkpt>
      <trkpt lat="49.34071" lon="1.13618">
        <ele>86</ele>
        <time>2024-10-15T15:18:01.203+00:00</time>
      </trkpt>
      <trkpt lat="49.34068" lon="1.13612">
        <ele>85</ele>
        <time>2024-10-15T15:18:05.329+00:00</time>
      </trkpt>
      <trkpt lat="49.34064" lon="1.13607">
        <ele>85</ele>
        <time>2024-10-15T15:18:09.457+00:00</time>
      </trkpt>
      <trkpt lat="49.34061" lon="1.13601">
        <ele>85</ele>
        <time>2024-10-15T15:18:14.129+00:00</time>
      </trkpt>
      <trkpt lat="49.34057" lon="1.13596">
        <ele>85</ele>
        <time>2024-10-15T15:18:18.127+00:00</time>
      </trkpt>
      <trkpt lat="49.34054" lon="1.13591">
        <ele>85</ele>
        <time>2024-10-15T15:18:22.168+00:00</time>
      </trkpt>
      <trkpt lat="49.3405" lon="1.13586">
        <ele>85</ele>
        <time>2024-10-15T15:18:26.372+00:00</time>
      </trkpt>
      <trkpt lat="49.34048" lon="1.13581">
        <ele>85</ele>
        <time>2024-10-15T15:18:30.440+00:00</time>
      </trkpt>
      <trkpt lat="49.34045" lon="1.13576">
        <ele>85</ele>
        <time>2024-10-15T15:18:34.655+00:00</time>
      </trkpt>
      <trkpt lat="49.34042" lon="1.1357">
        <ele>85</ele>
        <time>2024-10-15T15:18:38.807+00:00</time>
      </trkpt>
      <trkpt lat="49.34039" lon="1.13565">
        <ele>85</ele>
        <time>2024-10-15T15:18:42.953+00:00</time>
      </trkpt>
      <trkpt lat="49.34036" lon="1.13559">
        <ele>85</ele>
        <time>2024-10-15T15:18:47.009+00:00</time>
      </trkpt>
      <trkpt lat="49.34034" lon="1.13553">
        <ele>85</ele>
        <time>2024-10-15T15:18:51.446+00:00</time>
      </trkpt>
      <trkpt lat="49.3403" lon="1.13548">
        <ele>85</ele>
        <time>2024-10-15T15:18:55.645+00:00</time>
      </trkpt>
      <trkpt lat="49.34027" lon="1.13541">
        <ele>85</ele>
        <time>2024-10-15T15:19:00.205+00:00</time>
      </trkpt>
      <trkpt lat="49.34024" lon="1.13536">
        <ele>85</ele>
        <time>2024-10-15T15:19:04.451+00:00</time>
      </trkpt>
      <trkpt lat="49.34021" lon="1.1353">
        <ele>85</ele>
        <time>2024-10-15T15:19:08.875+00:00</time>
      </trkpt>
      <trkpt lat="49.34018" lon="1.13523">
        <ele>85</ele>
        <time>2024-10-15T15:19:13.442+00:00</time>
      </trkpt>
      <trkpt lat="49.34016" lon="1.13517">
        <ele>85</ele>
        <time>2024-10-15T15:19:17.451+00:00</time>
      </trkpt>
      <trkpt lat="49.34013" lon="1.13509">
        <ele>85</ele>
        <time>2024-10-15T15:19:22.076+00:00</time>
      </trkpt>
      <trkpt lat="49.3401" lon="1.13503">
        <ele>85</ele>
        <time>2024-10-15T15:19:26.166+00:00</time>
      </trkpt>
      <trkpt lat="49.34007" lon="1.13497">
        <ele>85</ele>
        <time>2024-10-15T15:19:30.189+00:00</time>
      </trkpt>
      <trkpt lat="49.34005" lon="1.1349">
        <ele>85</ele>
        <time>2024-10-15T15:19:34.449+00:00</time>
      </trkpt>
      <trkpt lat="49.34004" lon="1.13484">
        <ele>85</ele>
        <time>2024-10-15T15:19:38.450+00:00</time>
      </trkpt>
      <trkpt lat="49.34002" lon="1.13477">
        <ele>85</ele>
        <time>2024-10-15T15:19:42.460+00:00</time>
      </trkpt>
      <trkpt lat="49.34001" lon="1.13469">
        <ele>85</ele>
        <time>2024-10-15T15:19:46.669+00:00</time>
      </trkpt>
      <trkpt lat="49.34001" lon="1.13462">
        <ele>85</ele>
        <time>2024-10-15T15:19:50.846+00:00</time>
      </trkpt>
      <trkpt lat="49.34001" lon="1.13455">
        <ele>85</ele>
        <time>2024-10-15T15:19:55.470+00:00</time>
      </trkpt>
      <trkpt lat="49.34001" lon="1.13448">
        <ele>85</ele>
        <time>2024-10-15T15:19:59.497+00:00</time>
      </trkpt>
      <trkpt lat="49.34005" lon="1.13447">
        <ele>85</ele>
        <time>2024-10-15T15:20:03.564+00:00</time>
      </trkpt>
      <trkpt lat="49.3401" lon="1.13447">
        <ele>85</ele>
        <time>2024-10-15T15:20:08.078+00:00</time>
      </trkpt>
      <trkpt lat="49.34014" lon="1.13448">
        <ele>84</ele>
        <time>2024-10-15T15:20:12.100+00:00</time>
      </trkpt>
      <trkpt lat="49.3402" lon="1.13449">
        <ele>84</ele>
        <time>2024-10-15T15:20:16.170+00:00</time>
      </trkpt>
      <trkpt lat="49.34025" lon="1.1345">
        <ele>84</ele>
        <time>2024-10-15T15:20:20.186+00:00</time>
      </trkpt>
      <trkpt lat="49.3403" lon="1.1345">
        <ele>84</ele>
        <time>2024-10-15T15:20:24.772+00:00</time>
      </trkpt>
      <trkpt lat="49.34035" lon="1.13448">
        <ele>84</ele>
        <time>2024-10-15T15:20:28.887+00:00</time>
      </trkpt>
      <trkpt lat="49.34039" lon="1.13447">
        <ele>84</ele>
        <time>2024-10-15T15:20:32.992+00:00</time>
      </trkpt>
      <trkpt lat="49.34044" lon="1.13446">
        <ele>84</ele>
        <time>2024-10-15T15:20:37.097+00:00</time>
      </trkpt>
      <trkpt lat="49.34049" lon="1.13445">
        <ele>84</ele>
        <time>2024-10-15T15:20:41.152+00:00</time>
      </trkpt>
      <trkpt lat="49.34052" lon="1.13443">
        <ele>84</ele>
        <time>2024-10-15T15:20:45.288+00:00</time>
      </trkpt>
      <trkpt lat="49.34057" lon="1.13442">
        <ele>84</ele>
        <time>2024-10-15T15:20:49.334+00:00</time>
      </trkpt>
      <trkpt lat="49.34062" lon="1.13439">
        <ele>84</ele>
        <time>2024-10-15T15:20:53.847+00:00</time>
      </trkpt>
      <trkpt lat="49.34066" lon="1.13435">
        <ele>84</ele>
        <time>2024-10-15T15:20:58.352+00:00</time>
      </trkpt>
      <trkpt lat="49.34071" lon="1.13431">
        <ele>83</ele>
        <time>2024-10-15T15:21:02.751+00:00</time>
      </trkpt>
      <trkpt lat="49.34074" lon="1.13427">
        <ele>83</ele>
        <time>2024-10-15T15:21:07.304+00:00</time>
      </trkpt>
      <trkpt lat="49.34076" lon="1.1342">
        <ele>83</ele>
        <time>2024-10-15T15:21:11.723+00:00</time>
      </trkpt>
      <trkpt lat="49.34079" lon="1.13415">
        <ele>83</ele>
        <time>2024-10-15T15:21:16.438+00:00</time>
      </trkpt>
      <trkpt lat="49.34079" lon="1.13415">
        <ele>83</ele>
        <time>2024-10-15T15:21:21.460+00:00</time>
      </trkpt>
      <trkpt lat="49.34082" lon="1.13408">
        <ele>83</ele>
        <time>2024-10-15T15:21:25.891+00:00</time>
      </trkpt>
      <trkpt lat="49.34083" lon="1.13399">
        <ele>83</ele>
        <time>2024-10-15T15:21:30.365+00:00</time>
      </trkpt>
      <trkpt lat="49.34085" lon="1.13394">
        <ele>83</ele>
        <time>2024-10-15T15:21:34.773+00:00</time>
      </trkpt>
      <trkpt lat="49.3409" lon="1.13392">
        <ele>83</ele>
        <time>2024-10-15T15:21:38.820+00:00</time>
      </trkpt>
      <trkpt lat="49.34095" lon="1.13392">
        <ele>83</ele>
        <time>2024-10-15T15:21:43.212+00:00</time>
      </trkpt>
      <trkpt lat="49.341" lon="1.1339">
        <ele>82</ele>
        <time>2024-10-15T15:21:47.647+00:00</time>
      </trkpt>
      <trkpt lat="49.34104" lon="1.13387">
        <ele>82</ele>
        <time>2024-10-15T15:21:52.211+00:00</time>
      </trkpt>
      <trkpt lat="49.34105" lon="1.13383">
        <ele>82</ele>
        <time>2024-10-15T15:21:57.460+00:00</time>
      </trkpt>
      <trkpt lat="49.34108" lon="1.13378">
        <ele>82</ele>
        <time>2024-10-15T15:22:01.732+00:00</time>
      </trkpt>
      <trkpt lat="49.34109" lon="1.13371">
        <ele>82</ele>
        <time>2024-10-15T15:22:06.166+00:00</time>
      </trkpt>
      <trkpt lat="49.34108" lon="1.13364">
        <ele>82</ele>
        <time>2024-10-15T15:22:10.392+00:00</time>
      </trkpt>
      <trkpt lat="49.34107" lon="1.13357">
        <ele>82</ele>
        <time>2024-10-15T15:22:14.847+00:00</time>
      </trkpt>
      <trkpt lat="49.34106" lon="1.13348">
        <ele>82</ele>
        <time>2024-10-15T15:22:19.449+00:00</time>
      </trkpt>
      <trkpt lat="49.34105" lon="1.13342">
        <ele>83</ele>
        <time>2024-10-15T15:22:23.476+00:00</time>
      </trkpt>
      <trkpt lat="49.34104" lon="1.13334">
        <ele>83</ele>
        <time>2024-10-15T15:22:27.477+00:00</time>
      </trkpt>
      <trkpt lat="49.34105" lon="1.13326">
        <ele>83</ele>
        <time>2024-10-15T15:22:32.169+00:00</time>
      </trkpt>
      <trkpt lat="49.34104" lon="1.13318">
        <ele>83</ele>
        <time>2024-10-15T15:22:36.707+00:00</time>
      </trkpt>
      <trkpt lat="49.34104" lon="1.13312">
        <ele>83</ele>
        <time>2024-10-15T15:22:40.748+00:00</time>
      </trkpt>
      <trkpt lat="49.34103" lon="1.13305">
        <ele>83</ele>
        <time>2024-10-15T15:22:44.992+00:00</time>
      </trkpt>
      <trkpt lat="49.34101" lon="1.13299">
        <ele>83</ele>
        <time>2024-10-15T15:22:49.067+00:00</time>
      </trkpt>
      <trkpt lat="49.34101" lon="1.13292">
        <ele>83</ele>
        <time>2024-10-15T15:22:53.232+00:00</time>
      </trkpt>
      <trkpt lat="49.34102" lon="1.13286">
        <ele>83</ele>
        <time>2024-10-15T15:22:57.443+00:00</time>
      </trkpt>
      <trkpt lat="49.34103" lon="1.13279">
        <ele>83</ele>
        <time>2024-10-15T15:23:01.653+00:00</time>
      </trkpt>
      <trkpt lat="49.34105" lon="1.13276">
        <ele>83</ele>
        <time>2024-10-15T15:23:05.787+00:00</time>
      </trkpt>
      <trkpt lat="49.34104" lon="1.1327">
        <ele>83</ele>
        <time>2024-10-15T15:23:09.813+00:00</time>
      </trkpt>
    </trkseg>
  </trk>
</gpx>